[[{"header":{"parameterUnit":"m.s-1","parameterCategory":1,"la1":31.0,"la2":29.5877,"lo1":-88.7671,"lo2":-86.6584,"dy":0.0162,"dx":0.0185,"nx":115,"ny":88,"refTime":"2024-02-04T06:00:00:Z","depth":0,"parameterNumber":2,"parameterNumberName":"U-component_of_WINDS"},"data":[0.0,0.0,0.0,0.0,0.0,0.0,0.0,0.0,0.0,0.0,0.0,0.0,0.0,0.0,0.0,0.0,0.0,0.0,0.0,0.0,0.0,0.0,0.0,0.0,0.0,0.0,0.0,0.0,0.0,0.0,0.0,0.0,0.0,0.0,0.0,0.0,0.0,0.0,0.0,0.0,0.0,0.0,0.0,0.0,0.0,0.0,0.0,0.0,0.0,0.0,0.0,0.0,0.0,0.0,0.0,0.0,0.0,0.0,0.0,0.0,0.0,0.0,0.0,0.0,0.0,0.0,0.0,0.0,0.0,0.0,0.0,0.0,0.0,0.0,0.0,0.0,0.0,0.0,0.0,0.0,0.0,0.0,0.0,0.0,0.0,0.0,0.0,0.0,0.0,0.0,0.0,0.0,0.0,0.0,0.0,0.0,0.0,0.0,0.0,0.0,0.0,0.0,0.0,0.0,0.0,0.0,0.0,0.0,0.0,0.0,0.0,0.0,0.0,0.0,0.0,0.0,0.0,0.0,0.0,0.0,0.0,0.0,0.0,0.0,0.0,0.0,0.0,0.0,0.0,0.0,0.0,0.0,0.0,0.0,0.0,0.0,0.0,0.0,0.0,0.0,0.0,0.0,0.0,0.0,0.0,0.0,0.0,0.0,0.0,0.0,0.0,0.0,0.0,0.0,0.0,0.0,0.0,0.0,0.0,0.0,0.0,0.0,0.0,0.0,0.0,0.0,0.0,0.0,0.0,0.0,0.0,0.0,0.0,0.0,0.0,0.0,0.0,0.0,0.0,0.0,0.0,0.0,0.0,0.0,0.0,0.0,0.0,0.0,0.0,0.0,0.0,0.0,0.0,0.0,0.0,0.0,0.0,0.0,0.0,0.0,0.0,0.0,0.0,0.0,0.0,0.0,0.0,0.0,0.0,0.0,0.0,0.0,0.0,0.0,0.0,0.0,0.0,0.0,0.0,0.0,0.0,0.0,0.0,0.0,0.0,0.0,0.0,0.0,0.0,0.0,0.0,0.0,0.0,0.0,0.0,0.0,0.0,0.0,0.0,0.0,0.0,0.0,0.0,0.0,0.0,0.0,0.0,0.0,0.0,0.0,0.0,0.0,0.0,0.0,0.0,0.0,0.0,0.0,0.0,0.0,0.0,0.0,0.0,0.0,0.0,0.0,0.0,0.0,0.0,0.0,0.0,0.0,0.0,0.0,0.0,0.0,0.0,0.0,0.0,0.0,0.0,0.0,0.0,0.0,0.0,0.0,0.0,0.0,0.0,0.0,0.0,0.0,0.0,0.0,0.0,0.0,0.0,0.0,0.0,0.0,0.0,0.0,0.0,0.0,0.0,0.0,0.0,0.0,0.0,0.0,0.0,0.0,0.0,0.0,0.0,0.0,0.0,0.0,0.0,0.0,0.0,0.0,0.0,0.0,0.0,0.0,0.0,0.0,0.0,0.0,0.0,0.0,0.0,0.0,0.0,0.0,0.0,0.0,0.0,0.0,0.0,0.0,0.0,0.0,0.0,0.0,0.0,0.0,0.0,0.0,0.0,0.0,0.0,0.0,0.0,0.0,0.0,0.0,0.0,0.0,0.0,0.0,0.0,0.0,0.0,0.0,0.0,0.0,0.0,0.0,0.0,0.0,0.0,0.0,0.0,0.0,0.0,0.0,0.0,0.0,0.0,0.0,0.0,0.0,0.0,0.0,0.0,0.0,0.0,0.0,0.0,0.0,0.0,0.0,0.0,0.0,0.0,0.0,0.0,0.0,0.0,0.0,0.0,0.0,0.0,0.0,0.0,0.0,0.0,0.0,0.0,0.0,0.0,0.0,0.0,0.0,0.0,0.0,0.0,0.0,0.0,0.0,0.0,0.0,0.0,0.0,0.0,0.0,0.0,0.0,0.0,0.0,0.0,0.0,0.0,0.0,0.0,0.0,0.0,0.0,0.0,0.0,0.0,0.0,0.0,0.0,0.0,0.0,0.0,0.0,0.0,0.0,0.0,0.0,0.0,0.0,0.0,0.0,0.0,0.0,0.0,0.0,0.0,0.0,0.0,0.0,0.0,0.0,0.0,0.0,0.0,0.0,0.0,0.0,0.0,0.0,0.0,0.0,0.0,0.0,0.0,0.0,0.0,0.0,0.0,0.0,0.0,0.0,0.0,0.0,0.0,0.0,0.0,0.0,0.0,0.0,0.0,0.0,0.0,0.0,0.0,0.0,0.0,0.0,0.0,0.0,0.0,0.0,0.0,0.0,0.0,0.0,0.0,0.0,0.0,0.0,0.0,0.0,0.0,0.0,0.0,0.0,0.0,0.0,0.0,0.0,0.0,0.0,0.0,0.0,0.0,0.0,0.0,0.0,0.0,0.0,0.0,0.0,0.0,0.0,0.0,0.0,0.0,0.0,0.0,0.0,0.0,0.0,0.0,0.0,0.0,0.0,0.0,0.0,0.0,0.0,0.0,0.0,0.0,0.0,0.0,0.0,0.0,0.0,0.0,0.0,0.0,0.0,0.0,0.0,0.0,0.0,0.0,0.0,0.0,0.0,0.0,0.0,0.0,0.0,0.0,0.0,0.0,0.0,0.0,0.0,0.0,0.0,0.0,0.0,0.0,0.0,0.0,0.0,0.0,0.0,0.0,0.0,0.0,0.0,0.0,0.0,0.0,0.0,0.0,0.0,0.0,0.0,0.0,0.0,0.0,0.0,0.0,0.0,0.0,0.0,0.0,0.0,0.0,0.0,0.0,0.0,0.0,0.0,0.0,0.0,0.0,0.0,0.0,0.0,0.0,0.0,0.0,0.0,0.0,0.0,0.0,0.0,0.0,0.0,0.0,0.0,0.0,0.0,0.0,0.0,0.0,0.0,0.0,0.0,0.0,0.0,0.0,0.0,0.0,0.0,0.0,0.0,0.0,0.0,0.0,0.0,0.0,0.0,0.0,0.0,0.0,0.0,0.0,0.0,0.0,0.0,0.0,0.0,0.0,0.0,0.0,0.0,0.0,0.0,0.0,0.0,0.0,0.0,0.0,0.0,0.0,0.0,0.0,0.0,0.0,0.0,0.0,0.0,0.0,0.0,0.0,0.0,0.0,0.0,0.0,0.0,0.0,0.0,0.0,0.0,0.0,0.0,0.0,0.0,0.0,0.0,0.0,0.0,0.0,0.0,0.0,0.0,0.0,0.0,0.0,0.0,0.0,0.0,0.0,0.0,0.0,0.0,0.0,0.0,0.0,0.0,0.0,0.0,0.0,0.0,0.0,0.0,0.0,0.0,0.0,0.0,0.0,0.0,0.0,0.0,0.0,0.0,0.0,0.0,0.0,0.0,0.0,0.0,0.0,0.0,0.0,0.0,0.0,0.0,0.0,0.0,0.0,0.0,0.0,0.0,0.0,0.0,0.0,0.0,0.0,0.0,0.0,0.0,0.0,0.0,0.0,0.0,0.0,0.0,0.0,0.0,0.0,0.0,0.0,0.0,0.0,0.0,0.0,0.0,0.0,0.0,0.0,0.0,0.0,0.0,0.0,0.0,0.0,0.0,0.0,0.0,0.0,0.0,0.0,0.0,0.0,0.0,0.0,0.0,0.0,0.0,0.0,0.0,0.0,0.0,0.0,0.0,0.0,0.0,0.0,0.0,0.0,0.0,0.0,0.0,0.0,0.0,0.0,0.0,0.0,0.0,0.0,0.0,0.0,0.0,0.0,0.0,0.0,0.0,0.0,0.0,0.0,0.0,0.0,0.0,0.0,0.0,0.0,0.0,0.0,0.0,0.0,0.0,0.0,0.0,0.0,0.0,0.0,0.0,0.0,0.0,0.0,0.0,0.0,0.0,0.0,0.0,0.0,0.0,0.0,0.0,0.0,0.0,0.0,0.0,0.0,0.0,0.0,0.0,0.0,0.0,0.0,0.0,0.0,0.0,0.0,0.0,0.0,0.0,0.0,0.0,0.0,0.0,0.0,0.0,0.0,0.0,0.0,0.0,0.0,0.0,0.0,0.0,0.0,0.0,0.0,0.0,0.0,0.0,0.0,0.0,0.0,0.0,0.0,0.0,0.0,0.0,0.0,0.0,0.0,0.0,0.0,0.0,0.0,0.0,0.0,0.0,0.0,0.0,0.0,0.0,0.0,0.0,0.0,0.0,0.0,0.0,0.0,0.0,0.0,0.0,0.0,0.0,0.0,0.0,0.0,0.0,0.0,0.0,0.0,0.0,0.0,0.0,0.0,0.0,0.0,0.0,0.0,0.0,0.0,0.0,0.0,0.0,0.0,0.0,4.1992,0.0,0.0,0.0,0.0,0.0,0.0,0.0,0.0,0.0,0.0,0.0,0.0,0.0,0.0,0.0,0.0,0.0,0.0,0.0,0.0,0.0,0.0,0.0,0.0,0.0,0.0,0.0,0.0,0.0,0.0,0.0,0.0,0.0,0.0,0.0,0.0,0.0,0.0,0.0,0.0,0.0,0.0,0.0,0.0,0.0,0.0,0.0,0.0,0.0,0.0,0.0,0.0,0.0,0.0,0.0,0.0,0.0,0.0,0.0,0.0,0.0,0.0,0.0,0.0,0.0,0.0,0.0,0.0,0.0,0.0,0.0,0.0,0.0,0.0,0.0,0.0,0.0,0.0,0.0,0.0,0.0,0.0,0.0,0.0,0.0,0.0,0.0,0.0,0.0,0.0,0.0,0.0,0.0,0.0,0.0,0.0,0.0,0.0,0.0,0.0,0.0,0.0,0.0,0.0,0.0,0.0,0.0,0.0,0.0,0.0,4.4336,4.5586,4.1875,4.082,4.3008,0.0,0.0,0.0,0.0,0.0,0.0,0.0,0.0,0.0,0.0,0.0,0.0,0.0,0.0,0.0,0.0,0.0,0.0,0.0,0.0,0.0,0.0,0.0,0.0,0.0,0.0,0.0,0.0,0.0,0.0,0.0,0.0,0.0,0.0,0.0,0.0,0.0,0.0,0.0,0.0,0.0,0.0,0.0,0.0,0.0,0.0,0.0,0.0,0.0,0.0,0.0,0.0,0.0,0.0,0.0,0.0,0.0,0.0,0.0,0.0,0.0,0.0,0.0,0.0,0.0,0.0,0.0,0.0,0.0,0.0,0.0,0.0,0.0,0.0,0.0,0.0,0.0,0.0,0.0,0.0,0.0,0.0,0.0,0.0,0.0,0.0,0.0,0.0,0.0,0.0,0.0,0.0,0.0,0.0,0.0,0.0,0.0,0.0,0.0,0.0,0.0,0.0,0.0,0.0,0.0,0.0,0.0,0.0,0.0,0.0,0.0,0.0,4.3125,4.207,4.4414,0.0,0.0,0.0,0.0,0.0,0.0,0.0,0.0,0.0,0.0,0.0,0.0,0.0,0.0,0.0,0.0,0.0,0.0,0.0,0.0,0.0,0.0,0.0,0.0,0.0,0.0,0.0,0.0,0.0,0.0,0.0,0.0,0.0,0.0,0.0,0.0,0.0,0.0,0.0,0.0,0.0,0.0,0.0,0.0,0.0,0.0,0.0,0.0,0.0,0.0,0.0,0.0,0.0,0.0,0.0,0.0,0.0,0.0,0.0,0.0,0.0,0.0,0.0,0.0,0.0,0.0,0.0,0.0,0.0,0.0,0.0,0.0,0.0,0.0,0.0,0.0,0.0,0.0,0.0,0.0,0.0,0.0,0.0,0.0,0.0,0.0,0.0,0.0,0.0,0.0,0.0,0.0,0.0,0.0,0.0,0.0,0.0,0.0,0.0,0.0,0.0,0.0,0.0,0.0,0.0,0.0,0.0,0.0,0.0,0.0,4.7266,4.9726,4.8555,0.0,4.7226,0.0,0.0,0.0,0.0,0.0,0.0,0.0,0.0,0.0,0.0,0.0,0.0,0.0,0.0,0.0,0.0,0.0,0.0,0.0,0.0,0.0,0.0,0.0,0.0,0.0,0.0,0.0,0.0,0.0,0.0,0.0,0.0,0.0,0.0,0.0,0.0,0.0,0.0,0.0,0.0,0.0,0.0,0.0,0.0,0.0,0.0,0.0,0.0,0.0,0.0,0.0,0.0,0.0,0.0,0.0,0.0,0.0,0.0,0.0,0.0,0.0,0.0,0.0,0.0,0.0,0.0,0.0,0.0,0.0,0.0,0.0,0.0,0.0,0.0,0.0,0.0,0.0,0.0,0.0,0.0,0.0,0.0,0.0,0.0,0.0,0.0,0.0,0.0,0.0,0.0,0.0,0.0,0.0,0.0,0.0,0.0,0.0,0.0,0.0,0.0,0.0,0.0,0.0,0.0,0.0,0.0,0.0,0.0,0.0,0.0,4.7305,4.9375,4.8086,4.6719,0.0,0.0,0.0,0.0,0.0,0.0,0.0,0.0,0.0,0.0,0.0,0.0,0.0,0.0,0.0,0.0,0.0,0.0,0.0,0.0,0.0,0.0,0.0,0.0,0.0,0.0,0.0,0.0,0.0,0.0,0.0,0.0,0.0,0.0,0.0,0.0,0.0,0.0,0.0,0.0,0.0,0.0,0.0,0.0,0.0,0.0,0.0,0.0,0.0,0.0,0.0,0.0,0.0,0.0,0.0,0.0,0.0,0.0,0.0,0.0,0.0,0.0,0.0,0.0,0.0,0.0,0.0,0.0,0.0,0.0,0.0,0.0,0.0,0.0,0.0,0.0,0.0,0.0,0.0,0.0,0.0,0.0,0.0,0.0,0.0,0.0,0.0,0.0,0.0,0.0,0.0,0.0,0.0,0.0,0.0,0.0,0.0,0.0,0.0,0.0,0.0,0.0,0.0,0.0,0.0,0.0,0.0,0.0,0.0,0.0,4.6601,4.7617,4.9336,4.7226,4.5469,4.4453,0.0,0.0,0.0,0.0,0.0,0.0,0.0,0.0,0.0,0.0,0.0,0.0,0.0,0.0,0.0,0.0,0.0,0.0,0.0,0.0,0.0,0.0,0.0,0.0,0.0,0.0,0.0,0.0,0.0,0.0,0.0,0.0,0.0,0.0,0.0,0.0,0.0,0.0,0.0,0.0,0.0,0.0,0.0,0.0,0.0,0.0,0.0,0.0,0.0,0.0,0.0,0.0,0.0,0.0,0.0,0.0,0.0,0.0,0.0,0.0,0.0,0.0,0.0,0.0,0.0,0.0,0.0,0.0,0.0,0.0,0.0,0.0,0.0,0.0,0.0,0.0,0.0,0.0,0.0,0.0,0.0,0.0,0.0,0.0,0.0,0.0,0.0,0.0,0.0,0.0,0.0,0.0,0.0,0.0,0.0,0.0,0.0,0.0,0.0,0.0,0.0,0.0,0.0,0.0,0.0,0.0,0.0,0.0,4.957,4.832,4.8711,5.1016,4.7226,4.5391,0.0,0.0,0.0,0.0,0.0,0.0,0.0,0.0,0.0,0.0,0.0,0.0,0.0,0.0,0.0,0.0,0.0,0.0,0.0,0.0,0.0,0.0,0.0,0.0,0.0,0.0,0.0,0.0,0.0,0.0,0.0,0.0,0.0,0.0,0.0,0.0,0.0,0.0,0.0,0.0,0.0,0.0,0.0,0.0,0.0,0.0,0.0,0.0,0.0,0.0,0.0,0.0,0.0,0.0,0.0,0.0,0.0,0.0,0.0,0.0,0.0,0.0,0.0,0.0,0.0,0.0,0.0,0.0,0.0,0.0,0.0,0.0,0.0,0.0,0.0,0.0,0.0,0.0,0.0,0.0,0.0,0.0,0.0,0.0,0.0,0.0,0.0,0.0,0.0,0.0,0.0,0.0,0.0,0.0,0.0,0.0,0.0,0.0,0.0,0.0,0.0,0.0,0.0,0.0,0.0,0.0,0.0,0.0,0.0,4.5117,4.6211,4.7461,4.8828,4.6367,4.5156,0.0,0.0,0.0,0.0,0.0,0.0,0.0,0.0,0.0,0.0,0.0,0.0,0.0,0.0,0.0,0.0,0.0,0.0,0.0,0.0,0.0,0.0,0.0,0.0,0.0,0.0,0.0,0.0,0.0,0.0,0.0,0.0,0.0,0.0,0.0,0.0,0.0,0.0,0.0,0.0,0.0,0.0,0.0,0.0,0.0,0.0,0.0,0.0,0.0,0.0,0.0,0.0,0.0,0.0,0.0,0.0,0.0,0.0,0.0,0.0,0.0,0.0,0.0,0.0,0.0,0.0,0.0,0.0,0.0,0.0,0.0,0.0,0.0,0.0,0.0,0.0,0.0,0.0,0.0,0.0,0.0,0.0,0.0,0.0,0.0,0.0,0.0,0.0,0.0,0.0,0.0,0.0,0.0,0.0,0.0,0.0,0.0,0.0,0.0,0.0,0.0,0.0,0.0,0.0,0.0,0.0,0.0,0.0,0.0,4.4062,0.0,4.7578,4.7539,4.5898,4.4609,0.0,0.0,0.0,0.0,0.0,0.0,0.0,0.0,0.0,0.0,0.0,0.0,0.0,0.0,0.0,0.0,0.0,0.0,0.0,0.0,0.0,0.0,0.0,0.0,0.0,0.0,0.0,0.0,0.0,0.0,0.0,0.0,0.0,0.0,0.0,0.0,0.0,0.0,0.0,0.0,0.0,0.0,0.0,0.0,0.0,0.0,0.0,0.0,0.0,0.0,0.0,0.0,0.0,0.0,0.0,0.0,0.0,0.0,0.0,0.0,0.0,0.0,0.0,0.0,0.0,0.0,0.0,0.0,0.0,0.0,0.0,0.0,0.0,0.0,0.0,0.0,0.0,0.0,0.0,0.0,0.0,0.0,0.0,0.0,0.0,0.0,0.0,0.0,0.0,0.0,0.0,0.0,0.0,0.0,0.0,0.0,0.0,0.0,0.0,0.0,0.0,0.0,0.0,0.0,0.0,0.0,0.0,0.0,4.3359,4.7344,4.9101,4.918,4.7695,4.5976,4.3867,0.0,0.0,0.0,0.0,0.0,0.0,0.0,0.0,0.0,0.0,0.0,0.0,0.0,0.0,0.0,0.0,0.0,0.0,0.0,0.0,0.0,0.0,0.0,0.0,0.0,0.0,0.0,0.0,0.0,0.0,0.0,0.0,0.0,0.0,0.0,0.0,0.0,0.0,0.0,0.0,0.0,0.0,0.0,0.0,0.0,0.0,0.0,0.0,0.0,0.0,0.0,0.0,0.0,0.0,0.0,0.0,0.0,0.0,0.0,0.0,0.0,0.0,0.0,0.0,0.0,0.0,0.0,0.0,0.0,0.0,0.0,0.0,0.0,0.0,0.0,0.0,0.0,0.0,0.0,0.0,0.0,0.0,0.0,0.0,0.0,0.0,0.0,0.0,0.0,0.0,0.0,0.0,0.0,0.0,0.0,0.0,0.0,0.0,0.0,0.0,0.0,0.0,0.0,0.0,0.0,0.0,0.0,0.0,0.0,4.582,4.6914,4.8672,5.082,4.6562,4.5156,0.0,0.0,0.0,0.0,0.0,0.0,0.0,0.0,0.0,0.0,0.0,0.0,0.0,0.0,0.0,0.0,0.0,0.0,0.0,0.0,0.0,0.0,0.0,0.0,0.0,0.0,0.0,0.0,0.0,0.0,0.0,0.0,0.0,0.0,0.0,0.0,0.0,0.0,0.0,0.0,0.0,0.0,0.0,0.0,0.0,0.0,0.0,0.0,0.0,0.0,0.0,0.0,0.0,0.0,0.0,0.0,0.0,0.0,0.0,0.0,0.0,0.0,0.0,0.0,0.0,0.0,0.0,0.0,0.0,0.0,0.0,0.0,0.0,0.0,0.0,0.0,0.0,0.0,0.0,0.0,0.0,0.0,0.0,0.0,0.0,0.0,0.0,0.0,0.0,0.0,0.0,0.0,0.0,0.0,0.0,0.0,0.0,0.0,0.0,0.0,0.0,0.0,0.0,0.0,0.0,0.0,0.0,0.0,0.0,4.9414,4.9844,5.0781,5.2187,4.8555,4.6953,4.7656,0.0,0.0,0.0,0.0,0.0,0.0,0.0,0.0,0.0,0.0,0.0,0.0,0.0,0.0,0.0,0.0,0.0,0.0,0.0,0.0,0.0,0.0,0.0,0.0,0.0,0.0,0.0,0.0,0.0,0.0,0.0,0.0,0.0,0.0,0.0,0.0,0.0,0.0,0.0,0.0,0.0,0.0,0.0,0.0,0.0,0.0,0.0,0.0,0.0,0.0,0.0,0.0,0.0,0.0,0.0,0.0,0.0,0.0,0.0,0.0,0.0,0.0,0.0,0.0,0.0,0.0,0.0,0.0,0.0,0.0,0.0,0.0,0.0,0.0,0.0,0.0,0.0,0.0,0.0,0.0,0.0,0.0,0.0,0.0,0.0,0.0,0.0,0.0,0.0,0.0,0.0,0.0,0.0,0.0,0.0,0.0,0.0,0.0,0.0,0.0,0.0,0.0,0.0,0.0,0.0,0.0,0.0,0.0,5.6875,5.7148,5.5781,5.2539,5.1797,4.9219,0.0,0.0,0.0,0.0,0.0,0.0,0.0,0.0,0.0,0.0,0.0,0.0,0.0,0.0,0.0,0.0,0.0,0.0,0.0,0.0,0.0,0.0,0.0,0.0,0.0,0.0,0.0,0.0,0.0,0.0,0.0,0.0,0.0,0.0,0.0,0.0,0.0,0.0,0.0,0.0,0.0,0.0,0.0,0.0,0.0,0.0,0.0,0.0,0.0,0.0,0.0,0.0,0.0,0.0,0.0,0.0,0.0,0.0,0.0,0.0,0.0,0.0,0.0,0.0,0.0,0.0,0.0,0.0,0.0,0.0,0.0,0.0,0.0,0.0,0.0,0.0,0.0,0.0,0.0,0.0,0.0,0.0,0.0,0.0,0.0,0.0,0.0,0.0,0.0,0.0,0.0,0.0,0.0,0.0,0.0,0.0,0.0,0.0,0.0,0.0,0.0,0.0,0.0,0.0,0.0,0.0,0.0,0.0,0.0,6.0351,6.4062,6.5039,6.2773,5.6055,5.2344,0.0,0.0,0.0,0.0,0.0,0.0,0.0,0.0,0.0,0.0,0.0,0.0,0.0,0.0,0.0,0.0,0.0,0.0,0.0,0.0,0.0,0.0,0.0,0.0,0.0,0.0,0.0,0.0,0.0,0.0,0.0,0.0,0.0,0.0,0.0,0.0,0.0,0.0,0.0,0.0,0.0,0.0,0.0,0.0,0.0,0.0,0.0,0.0,0.0,0.0,0.0,0.0,0.0,0.0,0.0,0.0,0.0,0.0,0.0,0.0,0.0,0.0,0.0,0.0,0.0,0.0,0.0,0.0,0.0,0.0,0.0,0.0,0.0,0.0,0.0,0.0,0.0,0.0,0.0,0.0,0.0,0.0,0.0,0.0,0.0,0.0,0.0,0.0,0.0,0.0,0.0,0.0,0.0,0.0,0.0,0.0,0.0,0.0,0.0,0.0,0.0,0.0,0.0,0.0,0.0,0.0,0.0,0.0,6.0976,6.4414,6.9844,7.2226,7.125,6.3437,5.7578,0.0,0.0,0.0,0.0,0.0,0.0,0.0,0.0,0.0,0.0,0.0,0.0,0.0,0.0,0.0,0.0,0.0,0.0,0.0,0.0,0.0,0.0,0.0,0.0,0.0,0.0,0.0,0.0,0.0,0.0,0.0,0.0,0.0,0.0,0.0,0.0,0.0,0.0,0.0,0.0,0.0,0.0,0.0,0.0,0.0,0.0,0.0,0.0,0.0,0.0,0.0,0.0,0.0,0.0,0.0,0.0,0.0,0.0,0.0,0.0,0.0,0.0,0.0,0.0,0.0,0.0,0.0,0.0,0.0,0.0,0.0,0.0,0.0,0.0,0.0,0.0,0.0,0.0,0.0,0.0,0.0,0.0,0.0,0.0,0.0,0.0,0.0,0.0,0.0,0.0,0.0,0.0,0.0,0.0,0.0,0.0,0.0,0.0,0.0,0.0,0.0,0.0,0.0,0.0,0.0,0.0,0.0,0.0,6.4883,6.8437,7.4336,7.7422,7.7148,7.1211,6.3398,0.0,0.0,0.0,0.0,0.0,0.0,0.0,0.0,0.0,0.0,0.0,0.0,0.0,0.0,0.0,0.0,0.0,0.0,0.0,0.0,0.0,0.0,0.0,0.0,0.0,0.0,0.0,0.0,0.0,0.0,0.0,0.0,0.0,0.0,0.0,0.0,0.0,0.0,0.0,0.0,0.0,0.0,0.0,0.0,0.0,0.0,0.0,0.0,0.0,0.0,0.0,0.0,0.0,0.0,0.0,0.0,0.0,0.0,0.0,0.0,0.0,0.0,0.0,0.0,0.0,0.0,0.0,0.0,0.0,0.0,0.0,0.0,0.0,0.0,0.0,0.0,0.0,0.0,0.0,0.0,0.0,0.0,0.0,0.0,0.0,0.0,0.0,0.0,0.0,0.0,0.0,0.0,0.0,0.0,0.0,0.0,0.0,0.0,0.0,0.0,0.0,0.0,0.0,0.0,0.0,0.0,0.0,0.0,6.6015,7.0156,7.6055,7.8867,7.8203,7.039,6.3828,0.0,0.0,0.0,0.0,0.0,0.0,0.0,0.0,0.0,0.0,0.0,0.0,0.0,0.0,0.0,0.0,0.0,0.0,0.0,0.0,0.0,0.0,0.0,0.0,0.0,0.0,0.0,0.0,0.0,0.0,0.0,0.0,0.0,0.0,0.0,0.0,0.0,0.0,0.0,0.0,0.0,0.0,0.0,0.0,0.0,0.0,0.0,0.0,5.337,0.0,0.0,0.0,0.0,0.0,0.0,0.0,0.0,0.0,0.0,0.0,0.0,0.0,0.0,0.0,0.0,0.0,0.0,0.0,0.0,0.0,0.0,0.0,0.0,0.0,0.0,0.0,0.0,0.0,0.0,0.0,0.0,0.0,0.0,0.0,0.0,0.0,0.0,0.0,0.0,0.0,0.0,0.0,0.0,0.0,0.0,0.0,0.0,0.0,0.0,0.0,0.0,0.0,0.0,0.0,0.0,0.0,0.0,0.0,6.8789,7.3086,7.8242,8.0312,7.8906,7.3047,6.7031,0.0,0.0,0.0,0.0,0.0,0.0,0.0,0.0,0.0,0.0,0.0,0.0,0.0,0.0,0.0,0.0,0.0,0.0,0.0,0.0,0.0,0.0,0.0,0.0,0.0,0.0,0.0,0.0,0.0,0.0,0.0,0.0,0.0,0.0,0.0,0.0,0.0,0.0,0.0,0.0,0.0,0.0,0.0,0.0,0.0,0.0,0.0,0.0,0.0,0.0,0.0,0.0,0.0,0.0,0.0,0.0,0.0,0.0,0.0,0.0,0.0,0.0,0.0,0.0,0.0,0.0,0.0,0.0,0.0,0.0,0.0,0.0,0.0,0.0,0.0,0.0,0.0,0.0,0.0,0.0,0.0,0.0,0.0,0.0,0.0,0.0,0.0,0.0,0.0,0.0,0.0,0.0,0.0,0.0,0.0,0.0,0.0,0.0,0.0,0.0,0.0,0.0,0.0,0.0,0.0,0.0,0.0,6.5351,7.1406,7.6172,8.0078,8.1328,7.9687,7.6523,7.082,6.25,0.0,0.0,0.0,0.0,0.0,0.0,0.0,0.0,0.0,0.0,0.0,0.0,0.0,0.0,0.0,0.0,0.0,0.0,0.0,0.0,0.0,0.0,0.0,0.0,0.0,0.0,0.0,0.0,0.0,0.0,0.0,0.0,0.0,0.0,0.0,0.0,0.0,0.0,4.875,5.2031,0.0,0.0,0.0,0.0,0.0,0.0,0.0,0.0,5.61,0.0,0.0,0.0,0.0,0.0,0.0,0.0,0.0,0.0,0.0,0.0,0.0,0.0,0.0,0.0,0.0,0.0,0.0,0.0,0.0,0.0,0.0,0.0,0.0,0.0,0.0,0.0,0.0,0.0,0.0,0.0,0.0,0.0,0.0,0.0,0.0,0.0,0.0,0.0,0.0,0.0,0.0,0.0,0.0,0.0,0.0,0.0,0.0,0.0,0.0,0.0,0.0,0.0,0.0,0.0,0.0,6.5039,6.6601,7.082,7.789,8.0117,8.0742,7.9687,7.7109,7.1953,6.4258,0.0,0.0,0.0,0.0,0.0,0.0,0.0,0.0,0.0,0.0,0.0,0.0,0.0,0.0,0.0,0.0,0.0,0.0,0.0,0.0,0.0,0.0,0.0,0.0,0.0,0.0,0.0,0.0,0.0,0.0,0.0,0.0,0.0,0.0,0.0,0.0,0.0,0.0,0.0,5.8696,6.0938,0.0,0.0,0.0,0.0,0.0,0.0,0.0,0.0,5.7015,0.0,0.0,0.0,0.0,0.0,0.0,0.0,0.0,0.0,0.0,0.0,0.0,0.0,0.0,0.0,0.0,0.0,0.0,0.0,0.0,0.0,0.0,0.0,0.0,0.0,0.0,0.0,0.0,0.0,0.0,0.0,0.0,0.0,0.0,0.0,0.0,0.0,0.0,0.0,0.0,0.0,0.0,0.0,0.0,0.0,0.0,0.0,0.0,0.0,0.0,0.0,0.0,0.0,0.0,0.0,6.4492,6.8398,7.3125,7.8906,8.0781,8.1015,7.9687,7.5469,7.039,0.0,0.0,0.0,0.0,0.0,0.0,0.0,0.0,0.0,0.0,0.0,0.0,0.0,0.0,0.0,0.0,0.0,0.0,0.0,0.0,0.0,0.0,0.0,0.0,0.0,0.0,0.0,0.0,0.0,0.0,0.0,0.0,0.0,0.0,0.0,0.0,0.0,0.0,0.0,0.0,6.0965,6.2338,6.2866,0.0,0.0,0.0,0.0,0.0,0.0,5.8958,5.8171,0.0,0.0,0.0,0.0,0.0,0.0,0.0,0.0,0.0,0.0,0.0,0.0,0.0,0.0,0.0,0.0,0.0,0.0,0.0,0.0,0.0,0.0,0.0,0.0,0.0,0.0,0.0,0.0,0.0,0.0,0.0,0.0,0.0,0.0,0.0,0.0,0.0,0.0,0.0,0.0,0.0,0.0,0.0,0.0,0.0,0.0,0.0,0.0,0.0,0.0,0.0,0.0,0.0,0.0,0.0,6.3242,6.9687,7.5195,7.9531,8.1054,8.1094,7.9648,7.4219,6.9062,0.0,0.0,0.0,0.0,0.0,0.0,0.0,0.0,0.0,0.0,0.0,0.0,0.0,0.0,0.0,0.0,0.0,0.0,0.0,0.0,0.0,0.0,0.0,0.0,0.0,0.0,0.0,0.0,0.0,0.0,0.0,0.0,0.0,0.0,0.0,0.0,0.0,0.0,0.0,0.0,0.0,6.4257,6.5587,6.4314,0.0,0.0,0.0,0.0,6.2174,6.2101,0.0,0.0,0.0,0.0,0.0,0.0,0.0,0.0,0.0,0.0,0.0,0.0,0.0,0.0,0.0,0.0,0.0,0.0,0.0,0.0,0.0,0.0,0.0,0.0,0.0,0.0,0.0,0.0,0.0,0.0,0.0,0.0,0.0,0.0,0.0,0.0,0.0,0.0,0.0,0.0,0.0,0.0,0.0,0.0,0.0,0.0,0.0,0.0,0.0,0.0,0.0,0.0,0.0,0.0,0.0,0.0,6.4062,6.9414,7.4609,7.9414,7.9883,7.9922,7.9648,7.5351,7.0273,0.0,0.0,0.0,0.0,0.0,0.0,0.0,0.0,0.0,0.0,0.0,0.0,0.0,0.0,0.0,0.0,0.0,0.0,0.0,0.0,0.0,0.0,0.0,0.0,0.0,0.0,0.0,0.0,0.0,0.0,0.0,0.0,0.0,0.0,0.0,0.0,0.0,0.0,0.0,0.0,0.0,7.0646,6.7894,6.8523,6.8658,0.0,0.0,6.6531,6.9592,7.114,0.0,0.0,0.0,0.0,0.0,0.0,0.0,0.0,0.0,0.0,0.0,0.0,0.0,0.0,0.0,0.0,0.0,0.0,0.0,0.0,0.0,0.0,0.0,0.0,0.0,0.0,0.0,0.0,0.0,0.0,0.0,0.0,0.0,0.0,0.0,0.0,0.0,0.0,0.0,0.0,0.0,0.0,0.0,0.0,0.0,0.0,0.0,0.0,0.0,0.0,0.0,0.0,0.0,0.0,0.0,5.8867,6.4297,7.0859,7.6015,7.957,8.0195,8.0195,7.9687,7.3203,6.7969,0.0,0.0,0.0,0.0,0.0,0.0,0.0,0.0,0.0,0.0,0.0,0.0,0.0,0.0,0.0,0.0,0.0,0.0,0.0,0.0,0.0,0.0,0.0,0.0,0.0,0.0,0.0,0.0,0.0,0.0,0.0,0.0,0.0,0.0,0.0,0.0,0.0,0.0,0.0,0.0,0.0,0.0,7.1298,7.1442,0.0,0.0,0.0,7.0203,7.3217,0.0,0.0,0.0,0.0,0.0,0.0,0.0,0.0,0.0,0.0,0.0,0.0,0.0,0.0,0.0,0.0,0.0,0.0,0.0,0.0,0.0,0.0,0.0,0.0,0.0,0.0,0.0,0.0,0.0,0.0,0.0,0.0,0.0,0.0,0.0,0.0,0.0,0.0,0.0,0.0,0.0,0.0,0.0,0.0,0.0,0.0,0.0,0.0,0.0,0.0,0.0,0.0,0.0,0.0,0.0,0.0,0.0,6.4648,7.2265,7.7461,7.9922,8.0664,8.0586,7.9609,7.2422,0.0,0.0,0.0,0.0,0.0,0.0,0.0,0.0,0.0,0.0,0.0,0.0,0.0,0.0,0.0,0.0,0.0,0.0,0.0,0.0,0.0,0.0,0.0,0.0,0.0,0.0,0.0,4.2367,0.0,0.0,0.0,0.0,0.0,0.0,0.0,0.0,0.0,0.0,0.0,0.0,0.0,0.0,7.2404,7.4295,7.4514,7.4947,0.0,0.0,7.4403,7.6822,7.6803,7.4662,0.0,0.0,0.0,0.0,0.0,0.0,0.0,0.0,0.0,0.0,0.0,0.0,0.0,0.0,0.0,0.0,0.0,0.0,0.0,0.0,0.0,0.0,0.0,0.0,0.0,0.0,0.0,0.0,0.0,0.0,0.0,0.0,0.0,0.0,0.0,0.0,0.0,0.0,0.0,0.0,0.0,0.0,0.0,0.0,0.0,0.0,0.0,0.0,0.0,0.0,0.0,0.0,0.0,0.0,6.1211,6.5586,7.3164,7.832,8.0781,8.0976,8.0586,7.9648,7.5273,7.0117,0.0,0.0,0.0,0.0,0.0,0.0,0.0,0.0,0.0,0.0,0.0,0.0,0.0,0.0,0.0,0.0,0.0,0.0,0.0,0.0,0.0,0.0,0.0,0.0,0.0,0.0,0.0,0.0,0.0,0.0,0.0,0.0,0.0,0.0,0.0,0.0,0.0,0.0,0.0,0.0,0.0,7.3449,7.5981,7.8305,8.0569,0.0,8.1177,8.0268,8.1853,8.5156,8.3819,7.2773,0.0,0.0,0.0,0.0,0.0,0.0,0.0,0.0,0.0,0.0,0.0,0.0,0.0,0.0,0.0,0.0,0.0,0.0,0.0,0.0,0.0,0.0,0.0,0.0,0.0,0.0,0.0,0.0,0.0,0.0,0.0,0.0,0.0,0.0,0.0,0.0,0.0,0.0,0.0,0.0,0.0,0.0,0.0,0.0,0.0,0.0,0.0,0.0,0.0,0.0,0.0,0.0,0.0,6.1289,6.5625,7.3242,7.8437,8.0859,8.0976,8.0586,7.9726,7.5039,6.9922,0.0,0.0,0.0,0.0,0.0,0.0,0.0,0.0,0.0,0.0,0.0,0.0,0.0,0.0,0.0,0.0,0.0,0.0,0.0,0.0,0.0,0.0,0.0,0.0,0.0,0.0,0.0,0.0,4.8707,4.9571,5.0487,0.0,0.0,0.0,0.0,0.0,0.0,0.0,0.0,0.0,0.0,7.6399,8.0429,8.2321,0.0,0.0,8.4856,8.4266,8.7059,8.5045,8.1412,7.6088,7.1787,0.0,0.0,0.0,0.0,0.0,0.0,0.0,0.0,0.0,0.0,0.0,0.0,0.0,0.0,0.0,0.0,0.0,0.0,0.0,0.0,0.0,0.0,0.0,0.0,0.0,0.0,0.0,0.0,0.0,0.0,0.0,0.0,0.0,0.0,0.0,0.0,0.0,0.0,0.0,0.0,0.0,0.0,0.0,0.0,0.0,0.0,0.0,0.0,0.0,0.0,0.0,0.0,6.168,6.5976,7.3398,7.8555,8.1328,8.1406,8.0976,8.0,7.5586,7.0857,0.0,0.0,0.0,0.0,0.0,0.0,0.0,0.0,0.0,0.0,0.0,0.0,0.0,0.0,0.0,0.0,0.0,0.0,0.0,0.0,0.0,0.0,0.0,0.0,0.0,0.0,0.0,0.0,5.1137,5.1619,5.206,0.0,0.0,0.0,0.0,0.0,0.0,0.0,0.0,0.0,0.0,7.9144,8.3618,8.5449,8.6966,8.8749,8.6887,8.6059,8.8251,8.4311,8.0015,7.7108,0.0,0.0,0.0,0.0,0.0,0.0,0.0,0.0,0.0,0.0,0.0,0.0,0.0,0.0,0.0,0.0,0.0,0.0,0.0,0.0,0.0,0.0,0.0,0.0,0.0,0.0,0.0,4.875,0.0,0.0,4.7539,0.0,0.0,0.0,0.0,0.0,0.0,0.0,0.0,0.0,0.0,0.0,0.0,0.0,0.0,0.0,0.0,0.0,0.0,0.0,0.0,0.0,0.0,6.2539,6.6875,7.3711,7.8867,8.2148,8.2265,8.1836,8.0898,7.7617,7.3766,6.9347,0.0,0.0,0.0,0.0,0.0,0.0,0.0,0.0,0.0,0.0,0.0,0.0,0.0,0.0,0.0,0.0,0.0,0.0,0.0,0.0,0.0,0.0,0.0,0.0,0.0,0.0,5.2288,5.2338,5.1951,0.0,0.0,0.0,0.0,0.0,0.0,0.0,0.0,0.0,6.9644,7.5872,8.1241,8.4813,8.75,8.9084,8.9224,8.7224,8.5415,8.4664,8.3933,8.1484,0.0,0.0,0.0,0.0,0.0,0.0,0.0,0.0,0.0,0.0,0.0,0.0,0.0,0.0,0.0,0.0,0.0,0.0,0.0,0.0,0.0,0.0,0.0,0.0,0.0,0.0,0.0,5.168,5.1328,0.0,0.0,0.0,0.0,0.0,0.0,0.0,0.0,0.0,0.0,0.0,6.1289,6.1875,0.0,0.0,0.0,0.0,0.0,0.0,0.0,0.0,0.0,0.0,0.0,0.0,6.3398,6.7812,7.3984,7.8867,8.2187,8.2304,8.1875,8.1015,7.8253,7.3623,6.7023,0.0,0.0,0.0,0.0,0.0,0.0,0.0,0.0,0.0,0.0,0.0,0.0,0.0,0.0,0.0,0.0,0.0,0.0,0.0,0.0,0.0,0.0,0.0,0.0,0.0,5.344,0.0,0.0,0.0,0.0,0.0,0.0,0.0,0.0,0.0,0.0,6.3812,6.7888,7.2702,7.7315,8.1383,8.4621,8.7715,8.9889,0.0,0.0,0.0,0.0,0.0,0.0,0.0,0.0,0.0,0.0,0.0,0.0,0.0,0.0,7.7241,6.901,6.681,6.654,6.7396,0.0,0.0,0.0,0.0,0.0,0.0,0.0,0.0,0.0,0.0,0.0,0.0,0.0,0.0,5.5351,5.5234,5.3828,0.0,0.0,0.0,0.0,0.0,0.0,0.0,0.0,6.1836,6.4219,6.6094,6.6953,6.6953,0.0,6.4922,6.1289,0.0,0.0,0.0,0.0,0.0,0.0,0.0,0.0,6.4453,6.8281,7.4414,7.918,8.2148,8.2304,8.2026,8.1437,7.8679,7.3916,6.7009,6.3183,5.9736,0.0,0.0,0.0,0.0,0.0,0.0,0.0,0.0,0.0,0.0,0.0,0.0,0.0,0.0,0.0,0.0,0.0,0.0,0.0,0.0,0.0,0.0,0.0,5.5526,0.0,0.0,0.0,0.0,0.0,0.0,0.0,0.0,0.0,6.4451,6.807,7.2414,7.6957,8.0068,8.2966,8.5884,0.0,0.0,0.0,0.0,0.0,0.0,0.0,8.1386,8.289,8.0986,7.9761,8.1488,8.4356,8.5999,8.4709,0.0,0.0,7.5269,7.3031,7.292,7.3776,7.3787,7.4193,7.5912,7.6841,7.7613,0.0,0.0,0.0,0.0,0.0,0.0,0.0,0.0,5.875,5.9219,0.0,5.7969,0.0,0.0,0.0,0.0,5.6914,6.0078,0.0,0.0,6.8281,7.0351,6.9687,7.0586,7.0586,6.9765,6.9609,6.7344,6.3086,5.7344,0.0,0.0,0.0,0.0,0.0,0.0,6.5664,6.8515,7.5039,7.9726,8.2187,8.2265,8.2264,8.2134,7.8925,7.4709,6.9665,6.6974,6.358,5.9356,5.6664,0.0,0.0,0.0,0.0,0.0,0.0,0.0,0.0,0.0,0.0,0.0,0.0,0.0,0.0,0.0,0.0,0.0,0.0,0.0,0.0,5.576,0.0,0.0,0.0,0.0,0.0,0.0,0.0,0.0,0.0,6.8682,6.8237,7.2856,7.7871,8.2017,0.0,0.0,0.0,0.0,8.9153,8.939,8.8663,8.8179,8.8234,8.7843,8.7324,8.6701,0.0,0.0,8.7979,8.855,8.8755,8.6865,8.8833,8.9342,8.579,8.2346,8.0496,8.1188,8.0194,7.9657,8.1146,8.2505,8.3206,6.6875,0.0,0.0,0.0,0.0,6.2734,6.4023,6.5703,6.664,6.5937,6.4023,6.2695,0.0,0.0,0.0,0.0,0.0,0.0,6.375,6.5976,7.0469,7.3086,7.4101,7.6133,7.6367,7.4961,7.3711,7.1836,6.9297,6.5234,6.0586,5.5586,0.0,0.0,0.0,0.0,6.7422,7.1797,7.6133,7.9609,8.2187,8.2187,8.1869,8.1216,7.9026,7.6538,7.3856,7.1238,6.8111,6.44,6.1795,0.0,0.0,0.0,0.0,0.0,0.0,0.0,0.0,0.0,0.0,0.0,0.0,0.0,0.0,0.0,0.0,0.0,0.0,0.0,5.6702,5.7038,5.7408,0.0,0.0,0.0,0.0,0.0,0.0,0.0,0.0,0.0,7.7026,7.871,8.1114,0.0,0.0,8.6407,8.7658,8.9386,9.0993,9.2256,9.2198,0.0,9.2878,9.0396,8.8924,9.0497,9.2819,9.4486,9.46,9.5362,9.5598,9.4387,9.4879,9.4861,9.3267,9.0282,8.8167,8.8245,8.8364,8.8785,8.9857,9.078,9.1568,7.4922,6.9687,6.6797,6.6289,6.7383,6.789,6.914,7.082,7.1797,7.1055,6.9101,6.789,6.5547,6.2422,6.1406,0.0,0.0,0.0,6.7344,7.0586,7.3476,7.5937,7.7969,7.9844,8.0039,7.8672,7.6953,7.543,7.4023,7.0586,6.668,6.2226,0.0,6.0351,6.1836,6.5977,6.9956,7.3749,7.7463,8.024,8.2077,8.2117,8.1678,8.0772,7.9636,7.8103,7.6048,7.4062,7.1376,6.7987,6.5357,6.1881,0.0,0.0,0.0,0.0,0.0,0.0,0.0,0.0,0.0,0.0,0.0,5.0898,4.9662,0.0,0.0,0.0,5.3651,5.6132,5.961,5.9381,0.0,0.0,0.0,0.0,0.0,0.0,0.0,7.0401,7.5442,8.002,8.3171,8.4538,8.6195,8.8771,8.8948,8.9211,9.0268,0.0,9.2786,9.4468,9.4748,9.5134,9.6296,9.4369,9.3329,9.5215,9.7007,9.8363,9.8908,9.9449,9.9595,9.9161,9.9017,9.8863,9.8363,9.6555,9.4669,9.3514,9.39,9.4715,9.557,9.6394,9.7262,8.207,7.8633,7.3164,7.1445,7.2422,7.2539,7.3476,7.4922,7.5039,7.5,7.4687,7.3125,7.1484,6.9765,6.7422,0.0,6.8867,6.9648,7.2187,7.6133,7.707,7.875,8.0976,8.1875,8.1875,8.1054,7.9453,7.8281,7.7344,7.414,7.207,7.1133,6.7225,6.5467,6.621,6.9923,7.2852,7.4822,7.8756,8.1189,8.2052,8.2089,8.1618,8.0715,8.0504,7.9197,7.6797,7.5562,7.3516,7.0339,6.7582,6.459,6.1259,0.0,0.0,0.0,0.0,0.0,0.0,0.0,0.0,0.0,0.0,0.0,0.0,0.0,0.0,5.3819,5.6737,0.0,6.2145,6.2406,0.0,0.0,0.0,6.6164,6.8649,7.1296,7.3786,7.6053,0.0,0.0,8.7095,8.9914,9.221,9.3796,9.3327,9.3378,9.4975,9.4527,9.4716,9.6427,9.6706,9.7247,9.8636,9.8678,9.8829,9.9641,10.0827,10.109,10.1166,10.1316,10.1358,10.132,10.1434,10.1475,10.1512,10.1244,10.0551,9.7477,9.7363,9.8056,9.887,9.962,10.0357,8.6289,8.4258,8.2812,7.9805,7.6094,7.7344,7.7773,7.7695,7.8906,7.8398,7.6562,7.6133,7.5,7.3359,7.2734,7.3047,7.4101,7.4961,7.625,7.793,7.9414,8.0429,8.1015,8.1875,8.2187,8.1914,8.0937,8.0273,8.0,7.7882,7.6401,7.5585,7.3908,7.1875,6.9647,7.1098,7.3718,7.7374,7.8985,8.0518,8.1892,8.1932,8.1509,8.0659,7.9828,7.8824,7.7541,7.53,7.345,7.1904,6.8864,6.5839,6.3012,5.9449,0.0,0.0,0.0,0.0,0.0,0.0,0.0,0.0,0.0,5.5808,5.3154,0.0,5.732,0.0,5.9665,6.2228,6.4755,6.4979,0.0,0.0,7.0396,7.1114,7.3007,7.6631,7.8978,7.8895,8.3594,8.752,8.9128,9.2684,9.546,9.6454,9.5911,9.5767,9.6737,9.7342,9.7945,9.897,9.9595,10.0245,10.0553,10.0708,10.0709,10.0977,10.117,10.128,10.1279,10.1885,10.2299,10.2351,10.2859,10.3212,10.3212,10.3289,10.3058,10.2174,10.1212,10.0668,10.1517,10.1885,10.2243,8.8672,8.6836,8.7148,8.4726,8.0703,8.164,8.1758,8.1406,8.1914,8.1172,7.9414,7.8281,7.7031,7.582,7.6172,7.6601,7.7109,7.793,7.8789,7.9648,8.0547,8.1211,8.1601,8.207,8.2304,8.2265,8.1406,8.1211,8.1484,7.9778,7.8899,7.8812,7.7888,7.6494,7.4612,7.4669,7.6322,7.9417,8.0115,8.0889,8.1735,8.1735,8.1313,8.0419,7.9082,7.762,7.6011,7.3753,7.1938,7.0703,6.8543,6.6312,6.4087,6.1109,5.8323,0.0,0.0,0.0,0.0,0.0,0.0,0.0,0.0,0.0,0.0,0.0,6.0152,6.168,6.4045,6.6352,6.8503,6.9396,7.1073,7.4162,7.478,7.5957,7.8374,8.1095,8.3167,8.4204,8.7516,9.0403,9.2018,9.4877,9.7152,9.7965,9.8316,9.8572,9.8677,9.9375,10.01,10.0552,10.1015,10.1279,10.1279,10.1279,10.1279,10.1279,10.1279,10.1438,10.1795,10.1935,10.2113,10.254,10.3011,10.3328,10.3369,10.3676,10.3906,10.3752,10.3137,10.2711,10.3058,10.3184,10.3346,9.0078,8.8086,8.875,8.7695,8.5547,8.5429,8.5195,8.4844,8.4101,8.332,8.25,8.0273,7.8906,7.8242,7.8984,7.9336,7.9375,8.0039,8.0781,8.1484,8.1484,8.1914,8.2617,8.2656,8.2617,8.2578,8.1875,8.1836,8.2383,8.0897,8.0401,8.0826,8.003,7.962,7.9606,7.9005,7.9472,8.1003,8.1691,8.1945,8.1775,8.1698,8.1064,7.9773,7.8161,7.6067,7.3454,7.1564,6.9897,6.8467,6.736,6.6171,6.478,6.2463,6.0454,0.0,5.7407,0.0,0.0,0.0,0.0,0.0,0.0,0.0,0.0,6.1493,6.3495,6.6473,6.9045,7.1159,7.2702,7.4383,7.6069,7.7875,7.8824,8.0604,8.3652,8.5035,8.682,8.9741,9.1013,9.2556,9.4602,9.6446,9.7827,9.8672,9.9934,10.0575,10.041,10.0764,10.1201,10.1279,10.1279,10.1279,10.1279,10.1279,10.1279,10.1279,10.1279,10.1557,10.223,10.2021,10.1926,10.262,10.3128,10.3247,10.3094,10.3789,10.4255,10.4328,10.4289,10.4175,10.4062,10.4029,10.4103,9.164,9.0625,9.0742,9.0117,8.8984,8.8281,8.6797,8.4883,8.4726,8.457,8.4375,8.3906,8.3594,8.3476,8.3633,8.3711,8.3711,8.3828,8.4023,8.4179,8.4179,8.4258,8.4414,8.4414,8.4414,8.4414,8.4219,8.3867,8.3359,8.2896,8.2099,8.0918,8.0506,8.0686,8.1343,0.0,0.0,0.0,8.3087,8.3468,8.277,8.2726,8.0955,7.7466,7.6729,0.0,7.173,6.9863,6.8737,6.8353,6.628,0.0,0.0,0.0,0.0,0.0,0.0,0.0,0.0,0.0,0.0,0.0,6.8353,6.7494,6.5196,6.8037,7.0324,7.1018,7.3322,7.5231,7.6254,7.7844,7.9778,8.2113,8.3153,8.4493,8.6495,8.8608,9.032,9.0862,9.2904,9.4411,9.4988,9.6446,9.7828,9.8716,9.9694,10.049,10.1002,10.1161,10.1279,10.1279,10.1279,10.1279,10.1279,10.1279,10.1319,10.1279,10.1279,10.1398,10.1712,10.2715,10.3358,10.3697,10.4748,10.5593,10.5591,10.5823,10.5824,10.5937,10.5901,10.5709,10.5024,10.4888,10.5085,9.2109,9.1328,9.1328,9.082,0.0,8.9531,8.8594,8.7304,8.6094,8.5312,8.4922,8.4883,8.4883,8.4883,8.4883,8.4883,8.4883,8.4883,8.4883,8.4883,8.4883,8.4883,8.4883,8.4883,8.4883,8.4883,8.4883,8.4609,8.4219,8.4059,8.3495,8.2574,8.2447,8.2541,8.2841,8.3115,8.3087,8.284,8.3654,8.3819,8.3352,8.3303,8.1643,7.8335,7.6812,0.0,0.0,0.0,0.0,0.0,0.0,0.0,0.0,6.6306,0.0,6.6412,6.6073,6.6616,6.8238,6.9531,7.0979,7.2697,7.4729,7.4194,7.0078,7.2421,7.4268,7.4737,7.7039,7.868,7.921,8.1412,8.3413,8.4704,8.598,8.7434,8.9079,9.0379,9.1709,9.2942,9.422,9.5144,9.5599,9.7098,9.8263,9.8782,9.9904,10.0805,10.12,10.1279,10.1279,10.1279,10.1279,10.1279,10.1279,10.1279,10.1512,10.1784,10.1949,10.231,10.3064,10.3557,10.4026,10.4422,10.5202,10.575,10.579,10.6094,10.6399,10.6399,10.6399,10.6285,10.5828,10.576,10.5841,9.2187,9.1523,9.1523,9.1094,9.0469,9.0312,9.0078,8.9648,8.7695,0.0,0.0,8.5586,8.5469,8.539,8.5351,8.5351,8.5351,8.5351,8.5351,8.5351,8.5351,8.5351,8.5351,8.5351,8.535,8.5338,8.5272,8.5154,8.4942,8.4824,8.4594,8.4298,8.4208,8.4129,8.403,8.4735,8.4832,8.433,8.4295,8.4197,8.3889,8.3864,8.2581,7.9918,7.7633,7.4908,7.1672,6.9287,6.8019,6.798,6.7862,6.8169,6.9013,6.9341,6.9887,7.0744,7.1111,7.1914,7.3457,7.4967,7.6356,7.7468,8.0168,7.9859,7.5355,7.6475,7.7643,7.8363,8.058,8.2001,8.2015,8.4702,8.6678,8.6976,8.8278,8.979,9.1383,9.18,9.2749,9.4603,9.5102,9.5485,9.6211,9.7558,9.8645,9.8945,10.0042,10.1172,10.1244,10.1279,10.1279,10.1279,10.1279,10.1279,10.1319,10.1515,10.1746,10.2131,10.2573,10.329,10.4196,10.4363,10.4393,10.4941,10.5195,10.5365,10.5409,10.5942,10.636,10.6399,10.6399,10.6399,10.6399,10.6399,10.636,9.2539,9.2422,9.2422,9.2344,9.2187,9.1445,9.0273,8.8945,8.9297,8.8984,8.8164,8.8164,8.7773,8.7109,8.7109,8.7148,8.7109,8.7109,8.7148,8.7148,8.7109,8.7148,8.7148,8.7148,8.7066,8.6974,8.6955,8.648,8.5638,8.5496,8.4988,8.4237,8.3967,8.4186,8.4751,8.5524,8.5883,8.5813,8.5979,8.5668,8.4891,8.4901,8.3326,8.0215,7.8872,7.6886,7.4243,7.244,7.1481,7.148,7.0786,7.0744,7.1636,7.3042,7.4209,7.5117,7.6448,7.7683,7.8675,7.9653,8.1205,8.3403,8.4119,8.3399,8.1362,8.198,8.2579,8.277,8.4229,8.5396,8.5502,8.7156,8.8865,9.0134,9.0663,9.1499,9.3115,9.39,9.4485,9.4989,9.5675,9.6134,9.64,9.7247,9.8169,9.8782,9.9953,10.062,10.1208,10.1279,10.1279,10.1279,10.1279,10.1279,10.1435,10.1979,10.221,10.1554,10.2873,10.3609,10.3482,10.4273,10.4985,10.5091,10.5692,10.6091,10.6168,10.6283,10.6399,10.6399,10.6399,10.6399,10.6399,10.6399,10.6397,9.3047,9.2617,9.2578,9.2851,9.3281,9.289,9.1992,9.0859,9.1211,9.0117,8.8125,8.8047,8.7851,8.75,8.75,8.75,8.75,8.75,8.75,8.75,8.75,8.75,8.75,8.7435,8.7345,8.7291,8.7152,8.6836,8.6351,8.6202,8.5849,8.5327,8.5116,8.5203,8.5557,8.5896,8.609,8.6095,8.621,8.6052,8.5662,8.565,8.447,8.2047,8.105,7.9589,7.7546,7.6286,7.5599,7.5596,7.5252,7.5401,7.6287,7.7029,7.8062,7.9333,8.0139,8.0924,8.1799,8.3086,8.4507,8.6104,8.6259,8.6132,8.583,8.4865,8.4302,8.434,8.5423,8.6315,8.6811,8.878,9.0386,9.1095,9.197,9.3033,9.4182,9.4709,9.5178,9.5675,9.6443,9.6941,9.6942,9.8097,9.8984,9.9553,10.0563,10.1558,10.1962,10.2396,10.2365,10.1552,10.1666,10.1975,10.2053,10.2712,10.3213,10.3292,10.4016,10.4514,10.4555,10.5421,10.5687,10.5804,10.6162,10.6359,10.6399,10.6399,10.6399,10.6399,10.6399,10.6399,10.6399,10.6399,10.6549,9.3789,9.3203,9.2969,9.3164,9.3594,9.3594,9.3086,9.2344,9.2265,9.0703,8.8281,8.8047,8.7851,8.75,8.75,8.75,8.75,8.75,8.75,8.75,8.75,8.7458,8.7467,8.7524,8.7585,8.7527,8.7517,8.7471,8.7338,8.724,8.6949,8.6559,8.6441,8.64,8.6397,8.6399,8.6399,8.64,8.6206,8.609,8.609,8.609,8.5456,8.4226,8.3353,8.2288,8.0998,8.0131,7.9639,7.9637,7.9636,7.9943,8.0631,8.0845,8.1519,8.2746,8.305,8.355,8.4421,8.5846,8.7045,8.7906,8.7965,8.8249,8.8713,8.7208,8.5952,8.5869,8.6576,8.7384,8.8383,9.0178,9.1633,9.2045,9.3162,9.4266,9.5137,9.5432,9.5791,9.6519,9.7284,9.7787,9.8057,9.9139,10.0065,10.0483,10.1667,10.2537,10.2708,10.3341,10.3213,10.2519,10.2478,10.2864,10.294,10.3598,10.4255,10.4873,10.514,10.5412,10.5881,10.6136,10.6359,10.6319,10.6359,10.6399,10.6399,10.6399,10.6399,10.6399,10.6399,10.6399,10.6399,10.6399,10.6547,9.5,9.4844,9.4023,9.3359,9.2773,9.2773,9.2304,9.1523,9.1445,9.0859,8.9765,8.9765,8.8906,8.7617,8.7539,8.7578,8.7578,8.75,8.7539,8.7578,8.75,8.7451,8.7511,8.8115,8.8356,8.8235,8.8911,8.8996,8.8616,8.8702,8.8297,8.7406,8.7287,8.7286,8.7288,8.7287,8.7287,8.7248,8.6515,8.609,8.609,8.609,8.6011,8.5892,8.5099,8.4627,8.4371,8.3585,8.3139,8.3139,8.31,8.3139,8.3293,8.3974,8.4489,8.4674,8.5332,8.613,8.6997,8.7952,8.8771,8.9558,8.9613,8.9703,8.9857,8.9584,8.9108,8.8685,8.9095,8.9798,9.0777,9.1798,9.2985,9.4141,9.4668,9.5213,9.6006,9.6823,9.7325,9.7361,9.8097,9.8674,9.8793,9.9602,10.041,10.1135,10.2094,10.28,10.2942,10.3594,10.4138,10.3753,10.3792,10.3791,10.3867,10.4484,10.4793,10.4446,10.5331,10.5841,10.5805,10.6027,10.6399,10.6399,10.6399,10.6399,10.6399,10.6399,10.6399,10.6399,10.6399,10.6399,10.6399,10.6399,10.6512,9.5039,9.3711,9.3828,9.3398,9.2695,9.3164,9.289,9.2109,9.207,9.1601,9.082,9.0781,9.0078,8.8984,8.8984,8.8984,8.8984,8.8984,8.8984,8.8984,8.8939,8.8896,8.8888,8.8963,8.9008,8.8884,8.9148,8.9102,8.8923,8.8852,8.8646,8.8214,8.8176,8.8175,8.8139,8.8177,8.8176,8.8174,8.7829,8.7649,8.7515,8.6646,8.6606,8.7436,8.6816,8.6648,8.7011,8.6288,8.583,8.579,8.5365,8.5093,8.5094,8.5411,8.5849,8.6361,8.7174,8.7807,8.814,8.8953,8.9792,9.0612,9.0684,9.1051,9.2016,9.1707,9.1459,9.158,9.1079,9.1182,9.2517,9.345,9.4269,9.4942,9.5451,9.5927,9.6244,9.7016,9.7515,9.7595,9.8715,9.9564,9.968,10.0292,10.1101,10.1951,10.2836,10.3458,10.3993,10.4835,10.532,10.5364,10.5364,10.5137,10.483,10.5329,10.5596,10.5596,10.5901,10.6136,10.6064,10.6064,10.6399,10.6399,10.6399,10.6399,10.6399,10.6399,10.6399,10.6399,10.6399,10.6399,10.6399,10.6399,10.6549,9.5976,9.4219,9.4453,9.4101,9.3398,9.3984,9.3906,9.3359,9.332,9.2929,9.2383,9.2109,9.1797,9.1328,9.0469,9.0,9.0,9.0,9.0149,9.0299,9.0292,9.0213,9.017,9.0466,9.0336,9.0104,9.0364,9.044,9.0245,8.9877,8.9745,8.971,8.9521,8.9366,8.9368,8.9176,8.9019,8.902,8.8829,8.8814,8.8803,8.7578,8.7412,8.8505,8.8115,8.8065,8.8641,8.8098,8.7751,8.775,8.7134,8.6786,8.6824,8.6797,8.7108,8.7756,8.8545,8.9149,8.9384,9.016,9.0976,9.1778,9.1885,9.2401,9.3328,9.3366,9.3582,9.4202,9.3486,9.3483,9.3862,9.4623,9.5057,9.5332,9.5966,9.636,9.6661,9.736,9.7982,9.8291,9.956,10.0446,10.0564,10.114,10.1915,10.2506,10.3496,10.4397,10.5063,10.5727,10.6322,10.6399,10.6359,10.6132,10.5636,10.5904,10.636,10.6399,10.6399,10.6399,10.6399,10.6399,10.6399,10.6399,10.6399,10.6399,10.6399,10.6399,10.6399,10.6399,10.6399,10.6517,10.6835,10.6755,10.7132,9.8359,9.7383,9.6679,9.5781,9.5078,9.5078,9.5078,9.4922,9.5,9.4961,9.4726,9.4101,9.4179,9.4531,9.164,9.0078,9.0117,9.0273,9.0678,9.1267,9.1281,9.1093,9.1006,9.2472,9.2678,9.1696,9.2901,9.3602,9.3479,9.272,9.2341,9.2247,9.1479,9.1091,9.1015,9.0358,8.9893,8.9972,8.9403,8.9229,8.975,8.9076,8.8771,8.8966,8.8672,8.869,8.8762,8.8668,8.864,8.8638,8.8522,8.8484,8.8526,8.8564,8.8622,8.8774,8.9472,9.0264,9.1044,9.1876,9.2718,9.3434,9.367,9.3714,9.4177,9.4717,9.5353,9.6093,9.6572,9.6395,9.5352,9.5257,9.5529,9.6126,9.6283,9.6657,9.7374,9.8202,9.91,9.9757,10.0559,10.1131,10.1284,10.2038,10.2471,10.2971,10.4074,10.5091,10.5262,10.5923,10.6319,10.6399,10.6399,10.636,10.6323,10.6323,10.636,10.6399,10.6399,10.6399,10.6399,10.6399,10.6399,10.6399,10.6399,10.6399,10.6399,10.6399,10.6399,10.6399,10.6399,10.6558,10.7191,10.7509,10.7957,9.9336,9.8437,9.707,9.6289,9.5976,9.5469,9.5195,9.5195,9.5195,9.5195,9.5156,9.4883,9.4922,9.5117,9.3906,9.332,9.332,9.3253,9.3426,9.3716,9.36,9.3438,9.3395,9.3794,9.3686,9.3334,9.3692,9.3884,9.3807,9.3418,9.3285,9.3248,9.2981,9.2788,9.275,9.2519,9.2326,9.2288,9.202,9.2042,9.2189,9.2031,9.19,9.1803,9.0292,8.9745,9.0275,8.9779,8.9476,8.9475,8.8982,8.8678,8.8798,8.9723,9.0294,9.0424,9.1562,9.2473,9.2819,9.3599,9.4447,9.5279,9.585,9.6329,9.6868,9.7255,9.757,9.7856,9.8095,9.795,9.7562,9.6956,9.672,9.6994,9.7089,9.7382,9.824,9.9097,9.9757,10.0143,10.083,10.1477,10.202,10.242,10.3013,10.4016,10.4733,10.5288,10.5813,10.624,10.6399,10.6399,10.6399,10.6399,10.6399,10.6399,10.6399,10.6399,10.6399,10.6399,10.6399,10.6399,10.6399,10.6399,10.6399,10.6399,10.6399,10.6399,10.6397,10.6513,10.6513,10.6949,10.7548,10.801,10.864,9.9961,9.9297,9.8203,9.7734,9.7656,9.7109,9.6679,9.6445,9.6445,9.6289,9.6015,9.5742,9.5742,9.5937,9.5742,9.5781,9.5898,9.5386,9.523,9.5474,9.5339,9.5172,9.5066,9.5072,9.4845,9.4472,9.4513,9.4536,9.4542,9.4539,9.4521,9.4556,9.4291,9.414,9.4102,9.3869,9.3673,9.3673,9.3673,9.3651,9.3678,9.3681,9.3674,9.3459,9.2026,9.1405,9.198,9.1437,9.1127,9.1052,9.0594,9.0334,9.0456,9.138,9.1987,9.2159,9.3021,9.401,9.4516,9.5089,9.5889,9.6982,9.7606,9.8212,9.8753,9.9061,9.922,9.9262,9.9522,9.9575,9.9167,9.8651,9.8229,9.801,9.793,9.8287,9.9082,9.9752,10.0179,10.0561,10.1288,10.1978,10.2521,10.3078,10.39,10.4985,10.5308,10.579,10.6245,10.6399,10.6399,10.6399,10.6399,10.6399,10.6399,10.6399,10.6399,10.6399,10.6399,10.6399,10.6399,10.6399,10.6399,10.6399,10.6399,10.6399,10.6399,10.6399,10.6514,10.6705,10.7057,10.7452,10.8039,10.8619,10.9331,10.0351,10.0351,10.0273,10.0117,10.0078,9.9883,9.9648,9.8867,9.8867,9.832,9.75,9.6914,9.6953,9.7304,9.6758,9.6914,9.7226,9.6196,9.5831,9.6204,9.6264,9.6087,9.5879,9.6585,9.6407,9.5506,9.5975,9.6252,9.6205,9.6085,9.6051,9.6016,9.5328,9.5024,9.4988,9.4332,9.3867,9.402,9.4097,9.3986,9.3752,9.4111,9.4206,9.408,9.3873,9.386,9.384,9.3603,9.3366,9.3442,9.3406,9.3605,9.3307,9.353,9.3661,9.3699,9.3832,9.4664,9.605,9.6439,9.7289,9.8374,9.8799,9.8982,9.9211,9.9715,10.0109,10.0197,10.0643,10.0885,10.0211,10.0021,9.9667,9.8986,9.8807,9.9152,9.9864,10.0161,10.0446,10.1248,10.2053,10.2558,10.2985,10.3884,10.4862,10.5281,10.5802,10.6246,10.6359,10.6399,10.6399,10.6399,10.6399,10.6399,10.6399,10.6399,10.6399,10.6399,10.6399,10.6399,10.6399,10.6399,10.6399,10.6399,10.6399,10.6399,10.6474,10.6514,10.6978,10.7249,10.7563,10.8111,10.8857,10.9555,11.019,10.2109,10.2031,10.1445,10.1172,10.1094,10.0547,10.0117,9.9883,9.9883,9.9414,9.8633,9.832,9.8047,9.7695,9.7387,9.7711,9.8447,9.7912,9.7504,9.7264,9.7465,9.7482,9.7502,9.8022,9.8121,9.7672,9.7269,9.7118,9.7037,9.66,9.6284,9.6207,9.6057,9.5903,9.5904,9.5634,9.571,9.6249,9.6327,9.6573,9.7142,9.7183,9.7175,9.7197,9.7206,9.7202,9.7103,9.4986,9.3751,9.379,9.3673,9.3708,9.3822,9.4277,9.4853,9.5463,9.6045,9.676,9.7859,9.8546,9.9004,9.9663,10.0151,10.0474,10.0515,10.0708,10.0907,10.0914,10.117,10.116,10.1001,10.0922,10.0585,9.978,9.9715,10.0009,10.08,10.1434,10.1862,10.221,10.2943,10.3639,10.4178,10.4998,10.5344,10.5841,10.6212,10.6399,10.6436,10.6474,10.6399,10.6399,10.6399,10.663,10.6783,10.6899,10.6899,10.6745,10.6591,10.6399,10.6399,10.6591,10.6553,10.6668,10.663,10.663,10.6668,10.6939,10.7441,10.7827,10.8214,10.8966,10.988,11.0488,11.0885,10.3203,10.2851,10.2304,10.207,10.2031,10.1484,10.1054,10.082,10.0781,10.0273,9.9609,9.9453,9.9219,9.875,9.8598,9.8866,9.932,9.9216,9.8863,9.8482,9.8616,9.866,9.8487,9.8749,9.8895,9.8729,9.8258,9.7992,9.795,9.7496,9.725,9.725,9.7248,9.7248,9.721,9.725,9.7519,9.7943,9.7944,9.8266,9.8672,9.8796,9.8788,9.8763,9.8774,9.8801,9.8607,9.6666,9.5599,9.56,9.5599,9.5592,9.5658,9.616,9.6679,9.7162,9.7715,9.8325,9.9193,9.969,10.0249,10.0565,10.1002,10.1279,10.128,10.1279,10.1279,10.1279,10.1279,10.1279,10.1319,10.1636,10.1517,10.112,10.0727,10.0957,10.1661,10.2244,10.2711,10.3098,10.3791,10.4523,10.4948,10.5484,10.5752,10.6283,10.6399,10.6623,10.6739,10.6894,10.6974,10.7132,10.7518,10.7595,10.7439,10.7439,10.7437,10.7169,10.69,10.6591,10.6399,10.6901,10.7094,10.7594,10.7709,10.7749,10.7826,10.7903,10.829,10.8598,10.8983,10.9765,11.055,11.0776,11.1142,10.375,10.3008,10.2969,10.289,10.2851,10.2773,10.2383,10.1875,10.1797,10.1406,10.0781,10.0625,10.0429,10.0351,9.9992,9.9984,10.0162,9.9925,9.9818,9.9828,9.9928,9.98,9.9355,9.9278,9.9281,9.9138,9.8976,9.8879,9.8869,9.8644,9.8787,9.8588,9.8554,9.8752,9.8521,9.8752,9.8674,9.883,9.8868,9.891,9.9065,9.9065,9.9044,9.9072,9.9108,9.9145,9.9116,9.8846,9.8676,9.8716,9.837,9.8253,9.8605,9.8755,9.858,9.8729,9.8839,9.9317,9.9936,10.0255,10.0525,10.112,10.1357,10.1319,10.1358,10.159,10.1703,10.155,10.1635,10.1597,10.1755,10.2192,10.2584,10.2579,10.2016,10.197,10.2545,10.2782,10.3288,10.3946,10.4641,10.5218,10.5333,10.5981,10.6401,10.6595,10.6673,10.7164,10.75,10.7814,10.8131,10.8327,10.8367,10.8329,10.8134,10.8095,10.8095,10.794,10.7675,10.7408,10.7014,10.7475,10.7785,10.8285,10.8674,10.879,10.883,10.8829,10.9098,10.9522,11.0023,11.0638,11.0946,11.1138,11.1254,10.4648,10.3867,10.3867,10.3476,10.2969,10.289,10.3164,10.3476,10.3515,10.3281,10.3047,10.25,10.1797,10.1172,10.0431,10.0292,10.0689,10.067,10.0754,10.1184,10.1736,10.1465,10.0821,10.0663,10.0631,10.0588,10.0142,9.975,9.9695,9.9332,9.9004,9.8768,9.9082,9.8907,9.8792,9.8946,9.9178,9.9681,9.9757,10.0061,10.0516,10.0553,10.0625,10.0649,10.0566,10.0565,10.0606,10.0623,9.9978,9.887,9.8792,9.8792,9.8908,9.8921,9.9205,9.9669,9.9779,10.0128,10.0803,10.0999,10.1119,10.1319,10.1979,10.1976,10.1397,10.2519,10.2744,10.2593,10.2773,10.3181,10.3222,10.3456,10.3588,10.3563,10.3464,10.3364,10.3556,10.4098,10.4561,10.4832,10.5597,10.5979,10.6326,10.6787,10.733,10.7457,10.7764,10.8214,10.8468,10.8615,10.8855,10.8748,10.8789,10.8829,10.879,10.879,10.879,10.8712,10.8603,10.8575,10.8367,10.8467,10.8622,10.8816,10.9171,10.9367,10.9367,10.9329,10.983,11.0369,11.0751,11.1173,11.1285,11.1439,11.1441,10.5508,10.4726,10.4765,10.4453,10.4023,10.3984,10.4297,10.4687,10.4726,10.4726,10.4531,10.375,10.3086,10.25,10.1888,10.1726,10.2008,10.2202,10.2456,10.2658,10.3051,10.2905,10.2503,10.2415,10.2389,10.2351,10.1913,10.1755,10.1677,10.1144,10.0973,10.1057,10.0929,10.0751,10.0522,10.0405,10.0367,10.0598,10.0636,10.0866,10.1244,10.1279,10.128,10.1279,10.1279,10.1279,10.1279,10.128,10.0781,10.0055,9.9864,9.9825,9.9863,9.9865,10.0101,10.0576,10.0624,10.0962,10.1634,10.1858,10.2045,10.2362,10.2942,10.2867,10.2672,10.3406,10.3592,10.331,10.3653,10.4011,10.4393,10.4705,10.527,10.5901,10.5699,10.5201,10.4541,10.4784,10.5443,10.602,10.6595,10.7094,10.7363,10.7903,10.814,10.8265,10.8499,10.8944,10.9349,10.9424,10.9541,10.9627,10.9786,10.9979,11.0017,11.0017,10.9942,10.9825,10.9713,10.9688,10.9487,10.9464,10.9655,10.9775,10.9861,10.9981,11.0058,11.0211,11.0597,11.1057,11.1362,11.1516,11.1593,11.187,11.1869,10.6367,10.5625,10.5625,10.5586,10.5429,10.5469,10.5429,10.5586,10.5469,10.5508,10.5312,10.4453,10.3945,10.409,10.3414,10.3545,10.3556,10.3763,10.4079,10.4063,10.4096,10.3993,10.4147,10.3697,10.3599,10.3603,10.3845,10.3675,10.3422,10.3553,10.3701,10.3387,10.3514,10.3252,10.2404,10.2442,10.2172,10.1361,10.1399,10.1481,10.1598,10.1597,10.1716,10.1914,10.1901,10.1861,10.1822,10.1746,10.163,10.1592,10.1437,10.1128,10.1165,10.1243,10.1325,10.1405,10.1484,10.1835,10.2538,10.2739,10.2985,10.3579,10.3861,10.4023,10.3985,10.4215,10.4398,10.4342,10.4245,10.4975,10.568,10.6303,10.7105,10.7967,10.7984,10.7057,10.5979,10.5504,10.6102,10.7522,10.7829,10.8213,10.8636,10.8985,10.9022,10.9118,10.9423,10.9903,11.0239,11.0316,11.0586,11.0938,11.1093,11.1321,11.1321,11.1321,11.1206,11.109,11.0938,11.0789,11.0405,11.043,11.0771,11.0927,11.0744,11.0824,11.1053,11.1284,11.1439,11.1632,11.1901,11.1905,11.1909,11.2346,11.2505,10.7226,10.6445,10.6445,10.6093,10.5547,10.5508,10.5859,10.6367,10.5742,10.5843,10.5913,10.4731,10.4356,10.4751,10.4053,10.3764,10.4238,10.4414,10.4373,10.4906,10.4867,10.529,10.5438,10.4791,10.4023,10.4066,10.3951,10.3976,10.4011,10.4172,10.392,10.4044,10.4122,10.3482,10.2903,10.333,10.2826,10.1706,10.1976,10.2295,10.2311,10.2348,10.2623,10.3093,10.3225,10.3251,10.3328,10.3366,10.3328,10.302,10.2133,10.1512,10.1473,10.1437,10.1755,10.2189,10.2346,10.2702,10.3443,10.3654,10.3719,10.4118,10.4772,10.4832,10.4909,10.5559,10.5823,10.5974,10.6454,10.7018,10.777,10.8182,10.8615,10.8966,10.893,10.8604,10.8148,10.7993,10.8136,10.8484,10.8635,10.8712,10.8944,10.9753,10.9914,11.0006,11.0422,11.094,11.1127,11.1203,11.1552,11.1938,11.2018,11.2132,11.2132,11.2132,11.2169,11.2137,11.2063,11.1978,11.1592,11.136,11.1702,11.1623,11.1397,11.159,11.1937,11.1823,11.1902,11.217,11.2479,11.2643,11.2844,11.3089,11.3318,10.7734,10.7304,10.7304,10.707,10.6719,10.6679,10.6679,10.6601,10.622,10.6239,10.6246,10.5073,10.4857,10.5397,10.4918,10.4929,10.554,10.6132,10.6578,10.6889,10.6945,10.7176,10.7362,10.6742,10.6091,10.576,10.5741,10.5844,10.6001,10.5485,10.5371,10.5565,10.5281,10.471,10.3905,10.4256,10.3793,10.2902,10.2942,10.3228,10.3218,10.3202,10.3333,10.3788,10.3882,10.3876,10.3829,10.3867,10.3867,10.3675,10.3058,10.2519,10.2523,10.2501,10.2785,10.3062,10.3211,10.3629,10.4276,10.4867,10.5293,10.5649,10.6423,10.6749,10.6908,10.7364,10.7518,10.7641,10.8002,10.8575,10.9426,10.9967,11.0045,11.0214,11.0459,11.0502,11.009,10.9426,10.9099,10.9331,10.9524,10.979,11.0174,11.0714,11.0907,11.1032,11.1473,11.1954,11.1996,11.2111,11.2468,11.2742,11.2825,11.2867,11.2867,11.2904,11.2981,11.303,11.3083,11.3071,11.2906,11.2713,11.2595,11.2362,11.2169,11.2515,11.2747,11.2595,11.2596,11.3058,11.3408,11.3612,11.3732,11.3808,11.4109,10.8008,10.8008,10.8008,10.8008,10.8008,10.7929,10.7539,10.6953,10.6684,10.6521,10.6409,10.5524,10.552,10.6065,10.6229,10.6482,10.7163,10.7984,10.8417,10.8451,10.8444,10.8522,10.8597,10.8598,10.8493,10.8088,10.773,10.8051,10.8058,10.7613,10.7078,10.7571,10.7178,10.6326,10.5677,10.564,10.5332,10.4442,10.4565,10.4746,10.4589,10.4528,10.442,10.4478,10.4507,10.4521,10.4552,10.4482,10.4443,10.4446,10.4483,10.4521,10.4531,10.4016,10.4006,10.4041,10.4242,10.4836,10.5615,10.6324,10.7083,10.7905,10.839,10.8865,10.8943,10.8944,10.9097,10.9338,10.962,11.0097,11.0731,11.1433,11.1824,11.1972,11.2493,11.2497,11.185,11.0512,11.0444,11.0216,11.0446,11.0673,11.1325,11.1941,11.1979,11.2136,11.2578,11.2887,11.2889,11.2945,11.3264,11.3356,11.3364,11.3405,11.3367,11.3521,11.3636,11.3797,11.3895,11.3886,11.3868,11.3541,11.3228,11.3092,11.3055,11.3325,11.3519,11.3404,11.3597,11.4021,11.4294,11.4455,11.4492,11.4486,11.5061,10.8008,10.8008,10.8008,10.8008,10.8008,10.8008,10.7942,10.7595,10.695,10.6524,10.6324,10.6011,10.6336,10.6933,10.7421,10.7903,10.8411,10.9033,10.9097,10.9098,10.9136,10.9136,10.9292,10.9715,10.9845,10.9623,10.9193,10.897,10.8975,10.8618,10.8371,10.8594,10.8445,10.7905,10.7521,10.7752,10.7251,10.6251,10.6494,10.6797,10.6675,10.6306,10.5966,10.5967,10.5992,10.6003,10.5972,10.6017,10.6324,10.6982,10.7057,10.7368,10.7139,10.5455,10.47,10.5094,10.5687,10.6317,10.7051,10.7936,10.8446,10.87,10.9068,10.9443,10.9833,11.0141,11.0521,11.1063,11.1656,11.2327,11.3263,11.3333,11.3493,11.3617,11.3687,11.3692,11.3445,11.3037,11.2288,11.1636,11.1557,11.1478,11.2093,11.2748,11.3019,11.3139,11.3498,11.3728,11.3779,11.3797,11.3908,11.3924,11.3865,11.3867,11.3865,11.4059,11.4214,11.4405,11.4455,11.4342,11.4282,11.4019,11.3821,11.4007,11.3942,11.3982,11.4098,11.429,11.4675,11.5252,11.5293,11.5373,11.5843,11.6271,11.6696,10.8242,10.8633,10.8672,10.8945,10.9297,10.9281,10.8732,10.7962,10.78,10.743,10.7047,10.7133,10.7607,10.8155,10.8431,10.8948,10.9513,11.0111,11.0208,11.0251,11.0248,11.0248,11.0211,11.0673,11.0795,11.0761,11.0447,11.018,11.0119,10.9245,10.927,10.9377,10.9167,10.8675,10.8444,10.8558,10.8481,10.7907,10.8111,10.8321,10.8311,10.784,10.7736,10.7654,10.7669,10.7711,10.7711,10.7672,10.7866,10.8213,10.829,10.8522,10.8291,10.7758,10.6653,10.7063,10.7443,10.7835,10.8391,10.9068,10.9558,10.9662,11.0261,11.0972,11.1482,11.1946,11.2291,11.2715,11.2991,11.3537,11.3864,11.4416,11.4437,11.4257,11.4688,11.4768,11.4402,11.4503,11.3898,11.3058,11.3096,11.2981,11.2593,11.321,11.3828,11.4181,11.446,11.4566,11.4665,11.4805,11.4906,11.5272,11.5406,11.5713,11.5673,11.5636,11.5561,11.5559,11.5454,11.5341,11.529,11.5343,11.5345,11.5404,11.5217,11.5061,11.5447,11.5907,11.6175,11.6483,11.6909,11.7299,11.7701,11.8134,11.8363,10.875,10.9531,10.9375,10.9801,11.0498,11.0301,10.9513,10.8612,10.8879,10.8626,10.7969,10.8509,10.9029,10.9426,10.9656,11.0005,11.0559,11.1314,11.163,11.1633,11.163,11.1707,11.1707,11.1552,11.1438,11.1325,11.1324,11.1512,11.1089,11.0209,11.0006,11.018,10.9704,10.9406,10.952,10.9672,10.9404,10.9406,10.9406,10.9406,10.9216,10.916,10.9048,10.8893,10.889,10.8814,10.8711,10.8675,10.8867,10.9061,10.9178,10.9254,10.9404,10.9564,10.966,10.9611,10.9381,10.9252,10.9643,11.0289,11.092,11.1257,11.2268,11.2779,11.3092,11.3485,11.4216,11.4448,11.4529,11.4602,11.4816,11.5168,11.5286,11.5327,11.5816,11.6249,11.5842,11.5655,11.5441,11.4984,11.4831,11.4522,11.4135,11.3982,11.464,11.5139,11.5378,11.5452,11.5591,11.5957,11.6221,11.6856,11.7292,11.7752,11.7829,11.7674,11.7558,11.7406,11.7235,11.7059,11.7044,11.7024,11.699,11.6873,11.6795,11.6755,11.7139,11.737,11.7561,11.7944,11.864,11.8875,11.8655,11.8937,11.9288,10.9648,11.039,10.9648,10.9772,11.0399,10.9848,10.964,10.9862,10.9831,10.9686,10.9358,10.9944,11.027,11.0439,11.0966,11.1247,11.1585,11.2012,11.24,11.2402,11.2362,11.2284,11.2323,11.1784,11.1552,11.1512,11.1512,11.1512,11.1433,11.1117,11.1115,11.1162,11.1086,11.1092,11.0824,11.0785,11.1208,11.113,11.1092,11.0736,11.0184,11.0034,10.9672,10.9233,10.9074,10.913,10.9207,10.9252,10.9446,11.0099,11.0102,11.0447,11.1138,11.1921,11.2198,11.1848,11.1136,11.0416,11.1158,11.1857,11.2515,11.2929,11.3672,11.3837,11.418,11.4679,11.5374,11.6185,11.6146,11.6106,11.6058,11.6304,11.6699,11.681,11.6913,11.7602,11.7665,11.7004,11.679,11.6832,11.6716,11.6178,11.5715,11.5525,11.5451,11.5911,11.6296,11.6332,11.6401,11.6694,11.7534,11.817,11.8447,11.8908,11.9254,11.9214,11.9022,11.8945,11.8618,11.8413,11.8239,11.8141,11.8489,11.837,11.8292,11.81,11.8177,11.8406,11.8791,11.9138,11.9486,11.9371,11.9064,11.9502,12.0132,11.0892,11.1206,11.0814,11.113,11.1723,11.1251,11.0894,11.0806,11.1105,11.088,11.0508,11.1061,11.1261,11.1271,11.1831,11.2152,11.2271,11.2549,11.2672,11.2556,11.2324,11.2092,11.1899,11.1707,11.1512,11.1512,11.1512,11.1512,11.1512,11.1552,11.1512,11.1512,11.1512,11.1437,11.1629,11.1552,11.1475,11.1475,11.1435,11.1314,11.1037,11.0918,11.0758,11.04,11.0361,11.0378,11.0355,11.0363,11.0789,11.1442,11.1637,11.2023,11.2724,11.3203,11.341,11.3376,11.2835,11.2611,11.2925,11.3249,11.3655,11.4033,11.4464,11.4937,11.5329,11.5759,11.6106,11.6414,11.6967,11.7202,11.7397,11.7719,11.8076,11.8265,11.7991,11.8409,11.8863,11.8675,11.8332,11.8486,11.8487,11.791,11.7487,11.7526,11.7186,11.6927,11.7119,11.7044,11.7031,11.7091,11.8205,11.9482,11.964,11.9755,12.0103,12.0257,11.9871,11.9678,11.9137,11.9002,11.8955,11.902,11.9365,11.9516,11.9319,11.9205,11.9173,11.9408,11.9717,11.9988,12.018,12.0141,12.0104,12.0452,12.1002,11.1996,11.1956,11.176,11.2106,11.2693,11.2296,11.1827,11.1568,11.194,11.1757,11.1405,11.1806,11.2008,11.2055,11.2553,11.2876,11.2679,11.2893,11.2824,11.2556,11.217,11.1938,11.1861,11.1744,11.1512,11.1512,11.1512,11.1671,11.1828,11.1821,11.1775,11.1551,11.1823,11.186,11.1899,11.217,11.2362,11.2365,11.23,11.2266,11.2186,11.2188,11.218,11.2134,11.2133,11.2133,11.2095,11.2133,11.2518,11.2787,11.2944,11.3214,11.372,11.4093,11.4295,11.4382,11.4269,11.4545,11.4492,11.4515,11.4474,11.4821,11.5368,11.6241,11.6636,11.6913,11.7159,11.736,11.7759,11.8064,11.8241,11.8705,11.9016,11.9111,11.9084,11.9355,11.955,11.9443,11.9448,11.9487,11.9526,11.9603,11.9372,11.9564,11.9151,11.8322,11.7981,11.7827,11.7852,11.7946,11.8908,12.0257,12.0178,12.0295,12.0758,12.0912,12.0681,12.0451,11.9909,11.9794,11.9908,11.9976,12.0161,12.0235,12.0238,12.0362,12.0372,12.0489,12.0643,12.0758,12.0914,12.1223,12.1415,12.1608,12.1569,11.2782,11.2585,11.1917,11.1966,11.2403,11.1605,11.1682,11.2078,11.2075,11.2089,11.2125,11.2444,11.2719,11.2854,11.3364,11.346,11.2793,11.3549,11.3288,11.2904,11.2632,11.2362,11.2169,11.1821,11.1629,11.1632,11.1831,11.2226,11.2453,11.2654,11.2194,11.1704,11.2398,11.2552,11.2786,11.3135,11.3404,11.345,11.3431,11.3527,11.3528,11.3564,11.3589,11.3637,11.3749,11.379,11.3793,11.3599,11.3677,11.3868,11.3907,11.4063,11.4453,11.4897,11.5169,11.5274,11.584,11.6072,11.6034,11.5598,11.5662,11.6282,11.6978,11.7513,11.7674,11.8445,11.8775,11.8655,11.8772,11.8935,11.9004,11.916,11.9781,11.9938,12.0084,12.0202,12.0361,12.0329,12.0334,12.0412,12.0451,12.0489,12.0529,12.0568,12.0096,11.9224,11.8691,11.8537,11.904,11.9258,11.9912,12.0643,12.0526,12.0758,12.1338,12.1338,12.1145,12.1106,12.0837,12.0914,12.1145,12.1133,12.0855,12.0976,12.1022,12.1297,12.1455,12.1223,12.1183,12.1415,12.1608,12.1608,12.1608,12.1608,12.1608,11.2781,11.2664,11.235,11.231,11.2508,11.2057,11.1969,11.2163,11.2592,11.3062,11.3385,11.3594,11.3604,11.3769,11.4313,11.4313,11.3621,11.3783,11.3404,11.275,11.2287,11.2015,11.1899,11.2247,11.2247,11.2331,11.2695,11.3099,11.3488,11.3505,11.3398,11.325,11.3431,11.3441,11.3713,11.3905,11.4022,11.4062,11.4034,11.4004,11.4004,11.3979,11.3999,11.3985,11.3979,11.3997,11.394,11.3981,11.4293,11.4642,11.4757,11.5028,11.5337,11.5811,11.6008,11.6126,11.6857,11.7243,11.7158,11.6641,11.6477,11.7234,11.8011,11.86,11.8597,11.8982,11.9106,11.9205,11.9609,11.9848,11.9845,12.0302,12.0862,12.0936,12.0975,12.1053,12.1057,12.0988,12.0989,12.0952,12.1106,12.126,12.13,12.134,12.071,12.0047,11.9628,11.9365,11.9871,12.026,12.0721,12.1069,12.0952,12.0991,12.1492,12.1608,12.1608,12.1608,12.1608,12.1608,12.1608,12.1569,12.1331,12.1569,12.1608,12.1531,12.1532,12.1569,12.1608,12.1608,12.1608,12.1608,12.1608,12.1608,12.1608,11.2703,11.2664,11.2625,11.2561,11.2549,11.2639,11.2576,11.2586,11.3296,11.3872,11.4291,11.4459,11.4509,11.4641,11.5227,11.4931,11.4209,11.3904,11.3402,11.2825,11.2246,11.2053,11.2362,11.2748,11.3097,11.3259,11.3623,11.4027,11.4379,11.4386,11.4562,11.4684,11.4736,11.4714,11.4448,11.4639,11.4717,11.4754,11.475,11.4747,11.4789,11.4808,11.4829,11.4868,11.4908,11.492,11.4942,11.5025,11.5177,11.5488,11.572,11.5954,11.6378,11.6727,11.6886,11.7163,11.7636,11.8143,11.8003,11.7803,11.7548,11.8216,11.8933,11.9366,11.9485,11.9677,12.0106,12.0067,12.0465,12.0692,12.0657,12.1094,12.1331,12.1331,12.1331,12.1371,12.1411,12.1377,12.1415,12.1454,12.1569,12.1569,12.1569,12.1532,12.1334,12.0862,12.0674,12.0446,12.0637,12.0911,12.1028,12.1298,12.1415,12.1492,12.1608,12.1608,12.1608,12.1608,12.1608,12.1608,12.1608,12.1608,12.1608,12.1608,12.1608,12.1608,12.1608,12.1608,12.1608,12.1608,12.1608,12.1608,12.1608,12.1608,12.1608,11.2791,11.2624,11.2698,11.2612,11.2579,11.322,11.3422,11.3348,11.4137,11.4507,11.4596,11.5055,11.528,11.5428,11.6028,11.5443,11.444,11.4135,11.3674,11.3016,11.2825,11.3174,11.356,11.383,11.3985,11.3982,11.4341,11.4818,11.5252,11.5246,11.5621,11.5974,11.5945,11.5837,11.5414,11.6028,11.6374,11.6414,11.6371,11.6333,11.6339,11.6374,11.6451,11.6238,11.6434,11.6443,11.6485,11.6451,11.6604,11.672,11.6722,11.6837,11.6911,11.7517,11.7756,11.7868,11.8618,11.9051,11.9097,11.9043,11.9075,11.9171,11.9813,12.0253,12.0449,12.0874,12.122,12.0952,12.1303,12.1418,12.1529,12.1569,12.1569,12.1608,12.1608,12.1608,12.1608,12.1608,12.1608,12.1608,12.1608,12.1608,12.1609,12.1648,12.1725,12.1606,12.1608,12.1566,12.1559,12.16,12.1717,12.1642,12.1799,12.1608,12.1608,12.1608,12.1608,12.1608,12.1608,12.1608,12.1608,12.1608,12.1608,12.1608,12.1608,12.1608,12.1608,12.1608,12.1608,12.1608,12.1608,12.1608,12.1608,12.1608,12.1608,11.3084,11.351,11.3336,11.3501,11.3863,11.3637,11.3709,11.4082,11.4742,11.5329,11.5723,11.602,11.6079,11.623,11.6187,11.5866,11.5007,11.483,11.4408,11.3636,11.356,11.3676,11.41,11.4642,11.4835,11.5026,11.5297,11.5608,11.6079,11.602,11.6135,11.645,11.6604,11.6376,11.6222,11.649,11.6681,11.7252,11.7369,11.7376,11.7437,11.7836,11.7903,11.7392,11.7821,11.806,11.8023,11.7987,11.7989,11.8027,11.7989,11.8026,11.8073,11.8563,11.8652,11.8818,11.9466,12.0181,12.0543,12.0713,12.0436,12.0388,12.0544,12.1026,12.1222,12.1375,12.1569,12.1608,12.1608,12.1608,12.1569,12.1608,12.1609,12.1608,12.1608,12.1608,12.1608,12.1608,12.1608,12.1608,12.1608,12.1646,12.1686,12.226,12.2414,12.2532,12.2572,12.2513,12.2462,12.2476,12.2484,12.2254,12.2142,12.1799,12.1608,12.1608,12.1608,12.1608,12.1608,12.1608,12.1608,12.1608,12.1608,12.1608,12.1608,12.1608,12.1608,12.1608,12.1608,12.1608,12.1608,12.1608,12.1608,12.1608,12.1608,11.3432,11.3806,11.3974,11.4423,11.4894,11.4487,11.4609,11.5163,11.5556,11.6029,11.6417,11.6454,11.6451,11.6451,11.6411,11.6054,11.5343,11.5286,11.5182,11.4448,11.4449,11.4719,11.5066,11.5374,11.5645,11.5875,11.6105,11.6453,11.6415,11.6453,11.6679,11.6947,11.6947,11.7256,11.7258,11.7372,11.7407,11.802,11.8254,11.8258,11.8397,11.8604,11.8751,11.8543,11.8681,11.9043,11.9091,11.9136,11.914,11.9178,11.9178,11.914,11.9156,11.9364,11.9456,11.9733,12.0288,12.0978,12.1371,12.1489,12.1097,12.0896,12.1371,12.1569,12.1608,12.1569,12.1569,12.1608,12.1608,12.1608,12.1608,12.1609,12.1843,12.1843,12.1918,12.192,12.1723,12.1762,12.1722,12.1683,12.1683,12.1762,12.2068,12.2759,12.3295,12.3454,12.3574,12.351,12.3411,12.3352,12.3252,12.2905,12.2562,12.2217,12.1837,12.1608,12.1608,12.1608,12.1686,12.1841,12.1608,12.1608,12.1608,12.1608,12.1646,12.1683,12.1608,12.1608,12.1645,12.1646,12.1608,12.1608,12.1608,12.1608,12.1608,11.3829,11.3707,11.4599,11.5186,11.5521,11.5634,11.609,11.6679,11.6546,11.6451,11.649,11.6567,11.6604,11.6528,11.6528,11.6169,11.558,11.5482,11.5411,11.5375,11.5337,11.5722,11.6068,11.6297,11.626,11.6374,11.6529,11.6608,11.6568,11.7028,11.737,11.7674,11.783,11.8254,11.8447,11.8484,11.8523,11.8946,11.9137,11.9098,11.9188,11.9336,11.9385,11.9342,11.9441,11.9573,11.9626,11.9599,11.9486,11.9448,11.9368,11.9292,11.9493,11.9928,12.0207,12.0552,12.115,12.1417,12.1569,12.1569,12.1569,12.1371,12.1491,12.1608,12.1608,12.1608,12.1608,12.1608,12.1608,12.1608,12.1608,12.1961,12.2275,12.2389,12.2463,12.2306,12.2069,12.1952,12.1913,12.1873,12.1873,12.2063,12.2676,12.3329,12.4181,12.4381,12.4573,12.4786,12.4655,12.4203,12.4021,12.3558,12.3136,12.2636,12.2331,12.2257,12.2299,12.2528,12.2306,12.2309,12.1997,12.1954,12.2294,12.2371,12.1951,12.1836,12.1988,12.1913,12.1759,12.1722,12.1646,12.1608,12.1608,12.1608,12.1608,11.4102,11.4638,11.5123,11.5792,11.6376,11.6341,11.6414,11.6578,11.6509,11.649,11.6529,11.7141,11.7023,11.6568,11.7138,11.6826,11.6406,11.6178,11.6179,11.6105,11.6029,11.626,11.6414,11.649,11.649,11.6528,11.6569,11.6884,11.7468,11.7846,11.8291,11.8712,11.8831,11.9294,11.9603,11.9717,11.9832,11.9909,12.0023,11.9979,12.013,12.0428,12.0324,12.0189,12.0459,12.0589,12.0636,12.068,12.0683,12.076,12.0797,12.0837,12.0952,12.111,12.123,12.1232,12.1494,12.1569,12.1608,12.1608,12.1608,12.1608,12.1608,12.1608,12.1608,12.1608,12.1608,12.1608,12.1727,12.1807,12.2006,12.2319,12.2657,12.2876,12.3101,12.3243,12.3049,12.3062,12.2984,12.2602,12.2564,12.287,12.3442,12.4292,12.5067,12.5268,12.5496,12.5749,12.5743,12.5289,12.4792,12.429,12.3944,12.3482,12.3481,12.3407,12.3447,12.345,12.3188,12.3044,12.3132,12.3161,12.3295,12.3172,12.2907,12.2716,12.2599,12.2524,12.2448,12.1876,12.1685,12.1646,12.1608,12.1649,12.1648,11.4387,11.4874,11.5701,11.6296,11.662,11.6551,11.649,11.649,11.649,11.649,11.6604,11.7406,11.7319,11.6728,11.7278,11.7289,11.6488,11.6411,11.6411,11.6413,11.649,11.6451,11.649,11.6528,11.649,11.6569,11.6887,11.7323,11.8013,11.8635,11.9114,11.96,11.9834,12.0335,12.0758,12.114,12.1331,12.1217,12.1063,12.0865,12.106,12.1371,12.1133,12.1093,12.1491,12.1529,12.1609,12.1609,12.1608,12.1608,12.1608,12.1569,12.1569,12.1569,12.1569,12.1532,12.1571,12.1608,12.1608,12.1608,12.1608,12.1608,12.1608,12.1608,12.1608,12.1608,12.1608,12.1609,12.1926,12.2204,12.2402,12.2674,12.3034,12.3394,12.384,12.4287,12.4379,12.4435,12.4056,12.3599,12.3638,12.3867,12.4484,12.5335,12.5915,12.6035,12.6113,12.6298,12.6329,12.6103,12.5564,12.5023,12.4753,12.4446,12.4444,12.4327,12.4176,12.4024,12.3796,12.3771,12.4098,12.4092,12.3912,12.3904,12.3941,12.3712,12.3444,12.3367,12.3215,12.2679,12.2379,12.2657,12.2466,12.1927,12.1847,11.4623,11.4646,11.6132,11.6616,11.6494,11.6491,11.649,11.6528,11.6604,11.6646,11.6834,11.7521,11.7614,11.7333,11.7813,11.7565,11.6917,11.6648,11.649,11.649,11.649,11.649,11.6529,11.6608,11.684,11.7001,11.7397,11.8102,11.8309,11.9168,12.012,12.0525,12.1029,12.1531,12.1989,12.2253,12.2482,12.2636,12.2296,12.1989,12.1844,12.1807,12.1688,12.1846,12.1767,12.1649,12.1727,12.1688,12.1608,12.1608,12.1608,12.1608,12.1608,12.1608,12.1608,12.1608,12.1608,12.1608,12.1608,12.1608,12.1608,12.1608,12.1683,12.1836,12.1951,12.1685,12.1609,12.2006,12.2362,12.2766,12.3034,12.346,12.3907,12.4278,12.4689,12.5053,12.52,12.5111,12.4753,12.4409,12.4484,12.4715,12.4949,12.5721,12.626,12.6534,12.661,12.6684,12.6684,12.6607,12.626,12.5718,12.5564,12.5332,12.5101,12.4984,12.4715,12.4524,12.4486,12.4642,12.5042,12.4805,12.437,12.4676,12.5023,12.4599,12.4292,12.4253,12.4098,12.3713,12.3568,12.3855,12.3513,12.2775,12.2318,11.4385,11.4479,11.5934,11.6529,11.649,11.649,11.649,11.6567,11.7253,11.7446,11.7634,11.8328,11.8633,11.8392,11.8511,11.8184,11.7474,11.6727,11.6529,11.6567,11.6605,11.6796,11.6758,11.7295,11.7457,11.7792,11.8304,11.9101,11.9643,12.0472,12.1318,12.2059,12.218,12.222,12.3179,12.3367,12.3327,12.375,12.3445,12.3312,12.3451,12.2515,12.2006,12.2519,12.2676,12.2198,12.2118,12.1923,12.1726,12.1608,12.1608,12.1608,12.1608,12.1608,12.1608,12.1608,12.1608,12.1608,12.1608,12.1606,12.1643,12.1873,12.2102,12.2447,12.2408,12.1914,12.1886,12.2401,12.2939,12.3337,12.3781,12.4284,12.4827,12.5203,12.5657,12.5862,12.6105,12.5832,12.5524,12.5487,12.5486,12.5603,12.5797,12.6106,12.6492,12.6684,12.6684,12.6723,12.6763,12.6724,12.6646,12.6298,12.6414,12.6181,12.5912,12.5718,12.5487,12.5641,12.5758,12.5873,12.5949,12.5718,12.5487,12.5912,12.6144,12.5604,12.5218,12.5104,12.491,12.4638,12.4523,12.4693,12.4459,12.3798,12.3237,11.428,11.45,11.5894,11.649,11.649,11.649,11.649,11.6605,11.7025,11.7677,11.8446,11.9181,11.9453,11.9177,11.9094,11.8653,11.779,11.6886,11.6914,11.6988,11.7064,11.7447,11.7714,11.8098,11.8296,11.8627,11.9278,12.003,12.0861,12.125,12.1911,12.2791,12.2678,12.3102,12.4138,12.3984,12.4138,12.4636,12.4406,12.4542,12.4805,12.3858,12.3093,12.3534,12.3397,12.292,12.2547,12.235,12.2031,12.1722,12.1608,12.1608,12.1608,12.1608,12.1608,12.1608,12.1608,12.1608,12.1608,12.1643,12.1791,12.2209,12.2522,12.2867,12.3407,12.303,12.3013,12.3527,12.4102,12.4542,12.4821,12.5238,12.6029,12.6572,12.7291,12.7809,12.7992,12.7968,12.7677,12.7485,12.7406,12.7215,12.7409,12.7563,12.7837,12.7352,12.7272,12.7232,12.7154,12.6915,12.6838,12.6723,12.6723,12.6723,12.6414,12.6375,12.6375,12.6606,12.6723,12.6567,12.6337,12.6529,12.6684,12.6646,12.6569,12.6414,12.6106,12.5875,12.5876,12.5721,12.5566,12.5413,12.51,12.4864,12.4489,11.4391,11.4772,11.5974,11.649,11.649,11.649,11.649,11.6528,11.6681,11.7604,11.8946,11.9724,11.9723,11.96,11.9094,11.8544,11.7861,11.6962,11.7107,11.752,11.7671,11.8021,11.8561,11.9138,11.9335,11.9678,12.0253,12.0995,12.1769,12.2031,12.2404,12.3135,12.3675,12.4215,12.4561,12.491,12.5335,12.5373,12.5335,12.549,12.5375,12.514,12.4512,12.4276,12.4132,12.3728,12.3259,12.2809,12.245,12.2065,12.1799,12.1913,12.1917,12.1958,12.1926,12.1926,12.1688,12.1648,12.1645,12.183,12.2238,12.2654,12.2973,12.3481,12.4099,12.4381,12.4364,12.4638,12.5214,12.5474,12.5714,12.6208,12.7001,12.7737,12.8531,12.9249,12.9402,12.9519,12.9328,12.9097,12.8905,12.8674,12.8714,12.8906,12.8685,12.824,12.8014,12.7975,12.7817,12.738,12.7103,12.6874,12.6723,12.6723,12.6723,12.6723,12.6723,12.6723,12.6723,12.6723,12.6723,12.6723,12.6723,12.6723,12.6646,12.6607,12.6607,12.6454,12.653,12.6494,12.63,12.6027,12.6026,12.5829,12.5781,11.4872,11.6094,11.641,11.649,11.649,11.649,11.649,11.6643,11.7256,11.8174,11.8866,11.9285,11.9826,12.0992,11.9601,11.8851,11.8493,11.7353,11.7219,11.7671,11.8134,11.8561,11.9178,11.9949,12.0529,12.0834,12.118,12.181,12.2271,12.2555,12.3402,12.4699,12.4064,12.4755,12.595,12.6067,12.576,12.5952,12.6183,12.63,12.5913,12.5604,12.5336,12.5054,12.4836,12.4266,12.3744,12.3215,12.2485,12.2063,12.2256,12.2561,12.2643,12.2655,12.2628,12.2522,12.2244,12.2006,12.2117,12.2441,12.2923,12.3263,12.3777,12.4715,12.5256,12.5684,12.5736,12.5776,12.6082,12.5972,12.6224,12.6886,12.7632,12.8149,12.8823,12.9279,12.9583,12.9591,12.952,12.9443,12.9405,12.9253,12.9177,12.9293,12.9331,12.9036,12.896,12.8845,12.8391,12.7919,12.7446,12.7257,12.7029,12.6723,12.6723,12.6723,12.6723,12.6723,12.6723,12.6723,12.6723,12.6723,12.6723,12.6723,12.6723,12.6684,12.6723,12.6723,12.6684,12.6607,12.6646,12.6606,12.6683,12.6763,12.6723]},{"header":{"parameterUnit":"m.s-1","parameterCategory":1,"la1":31.0,"la2":29.5877,"lo1":-88.7671,"lo2":-86.6584,"dy":0.0162,"dx":0.0185,"nx":115,"ny":88,"refTime":"2024-02-04T06:00:00:Z","depth":0,"parameterNumber":3,"parameterNumberName":"V-component_of_WINDS"},"data":[0.0,0.0,0.0,0.0,0.0,0.0,0.0,0.0,0.0,0.0,0.0,0.0,0.0,0.0,0.0,0.0,0.0,0.0,0.0,0.0,0.0,0.0,0.0,0.0,0.0,0.0,0.0,0.0,0.0,0.0,0.0,0.0,0.0,0.0,0.0,0.0,0.0,0.0,0.0,0.0,0.0,0.0,0.0,0.0,0.0,0.0,0.0,0.0,0.0,0.0,0.0,0.0,0.0,0.0,0.0,0.0,0.0,0.0,0.0,0.0,0.0,0.0,0.0,0.0,0.0,0.0,0.0,0.0,0.0,0.0,0.0,0.0,0.0,0.0,0.0,0.0,0.0,0.0,0.0,0.0,0.0,0.0,0.0,0.0,0.0,0.0,0.0,0.0,0.0,0.0,0.0,0.0,0.0,0.0,0.0,0.0,0.0,0.0,0.0,0.0,0.0,0.0,0.0,0.0,0.0,0.0,0.0,0.0,0.0,0.0,0.0,0.0,0.0,0.0,0.0,0.0,0.0,0.0,0.0,0.0,0.0,0.0,0.0,0.0,0.0,0.0,0.0,0.0,0.0,0.0,0.0,0.0,0.0,0.0,0.0,0.0,0.0,0.0,0.0,0.0,0.0,0.0,0.0,0.0,0.0,0.0,0.0,0.0,0.0,0.0,0.0,0.0,0.0,0.0,0.0,0.0,0.0,0.0,0.0,0.0,0.0,0.0,0.0,0.0,0.0,0.0,0.0,0.0,0.0,0.0,0.0,0.0,0.0,0.0,0.0,0.0,0.0,0.0,0.0,0.0,0.0,0.0,0.0,0.0,0.0,0.0,0.0,0.0,0.0,0.0,0.0,0.0,0.0,0.0,0.0,0.0,0.0,0.0,0.0,0.0,0.0,0.0,0.0,0.0,0.0,0.0,0.0,0.0,0.0,0.0,0.0,0.0,0.0,0.0,0.0,0.0,0.0,0.0,0.0,0.0,0.0,0.0,0.0,0.0,0.0,0.0,0.0,0.0,0.0,0.0,0.0,0.0,0.0,0.0,0.0,0.0,0.0,0.0,0.0,0.0,0.0,0.0,0.0,0.0,0.0,0.0,0.0,0.0,0.0,0.0,0.0,0.0,0.0,0.0,0.0,0.0,0.0,0.0,0.0,0.0,0.0,0.0,0.0,0.0,0.0,0.0,0.0,0.0,0.0,0.0,0.0,0.0,0.0,0.0,0.0,0.0,0.0,0.0,0.0,0.0,0.0,0.0,0.0,0.0,0.0,0.0,0.0,0.0,0.0,0.0,0.0,0.0,0.0,0.0,0.0,0.0,0.0,0.0,0.0,0.0,0.0,0.0,0.0,0.0,0.0,0.0,0.0,0.0,0.0,0.0,0.0,0.0,0.0,0.0,0.0,0.0,0.0,0.0,0.0,0.0,0.0,0.0,0.0,0.0,0.0,0.0,0.0,0.0,0.0,0.0,0.0,0.0,0.0,0.0,0.0,0.0,0.0,0.0,0.0,0.0,0.0,0.0,0.0,0.0,0.0,0.0,0.0,0.0,0.0,0.0,0.0,0.0,0.0,0.0,0.0,0.0,0.0,0.0,0.0,0.0,0.0,0.0,0.0,0.0,0.0,0.0,0.0,0.0,0.0,0.0,0.0,0.0,0.0,0.0,0.0,0.0,0.0,0.0,0.0,0.0,0.0,0.0,0.0,0.0,0.0,0.0,0.0,0.0,0.0,0.0,0.0,0.0,0.0,0.0,0.0,0.0,0.0,0.0,0.0,0.0,0.0,0.0,0.0,0.0,0.0,0.0,0.0,0.0,0.0,0.0,0.0,0.0,0.0,0.0,0.0,0.0,0.0,0.0,0.0,0.0,0.0,0.0,0.0,0.0,0.0,0.0,0.0,0.0,0.0,0.0,0.0,0.0,0.0,0.0,0.0,0.0,0.0,0.0,0.0,0.0,0.0,0.0,0.0,0.0,0.0,0.0,0.0,0.0,0.0,0.0,0.0,0.0,0.0,0.0,0.0,0.0,0.0,0.0,0.0,0.0,0.0,0.0,0.0,0.0,0.0,0.0,0.0,0.0,0.0,0.0,0.0,0.0,0.0,0.0,0.0,0.0,0.0,0.0,0.0,0.0,0.0,0.0,0.0,0.0,0.0,0.0,0.0,0.0,0.0,0.0,0.0,0.0,0.0,0.0,0.0,0.0,0.0,0.0,0.0,0.0,0.0,0.0,0.0,0.0,0.0,0.0,0.0,0.0,0.0,0.0,0.0,0.0,0.0,0.0,0.0,0.0,0.0,0.0,0.0,0.0,0.0,0.0,0.0,0.0,0.0,0.0,0.0,0.0,0.0,0.0,0.0,0.0,0.0,0.0,0.0,0.0,0.0,0.0,0.0,0.0,0.0,0.0,0.0,0.0,0.0,0.0,0.0,0.0,0.0,0.0,0.0,0.0,0.0,0.0,0.0,0.0,0.0,0.0,0.0,0.0,0.0,0.0,0.0,0.0,0.0,0.0,0.0,0.0,0.0,0.0,0.0,0.0,0.0,0.0,0.0,0.0,0.0,0.0,0.0,0.0,0.0,0.0,0.0,0.0,0.0,0.0,0.0,0.0,0.0,0.0,0.0,0.0,0.0,0.0,0.0,0.0,0.0,0.0,0.0,0.0,0.0,0.0,0.0,0.0,0.0,0.0,0.0,0.0,0.0,0.0,0.0,0.0,0.0,0.0,0.0,0.0,0.0,0.0,0.0,0.0,0.0,0.0,0.0,0.0,0.0,0.0,0.0,0.0,0.0,0.0,0.0,0.0,0.0,0.0,0.0,0.0,0.0,0.0,0.0,0.0,0.0,0.0,0.0,0.0,0.0,0.0,0.0,0.0,0.0,0.0,0.0,0.0,0.0,0.0,0.0,0.0,0.0,0.0,0.0,0.0,0.0,0.0,0.0,0.0,0.0,0.0,0.0,0.0,0.0,0.0,0.0,0.0,0.0,0.0,0.0,0.0,0.0,0.0,0.0,0.0,0.0,0.0,0.0,0.0,0.0,0.0,0.0,0.0,0.0,0.0,0.0,0.0,0.0,0.0,0.0,0.0,0.0,0.0,0.0,0.0,0.0,0.0,0.0,0.0,0.0,0.0,0.0,0.0,0.0,0.0,0.0,0.0,0.0,0.0,0.0,0.0,0.0,0.0,0.0,0.0,0.0,0.0,0.0,0.0,0.0,0.0,0.0,0.0,0.0,0.0,0.0,0.0,0.0,0.0,0.0,0.0,0.0,0.0,0.0,0.0,0.0,0.0,0.0,0.0,0.0,0.0,0.0,0.0,0.0,0.0,0.0,0.0,0.0,0.0,0.0,0.0,0.0,0.0,0.0,0.0,0.0,0.0,0.0,0.0,0.0,0.0,0.0,0.0,0.0,0.0,0.0,0.0,0.0,0.0,0.0,0.0,0.0,0.0,0.0,0.0,0.0,0.0,0.0,0.0,0.0,0.0,0.0,0.0,0.0,0.0,0.0,0.0,0.0,0.0,0.0,0.0,0.0,0.0,0.0,0.0,0.0,0.0,0.0,0.0,0.0,0.0,0.0,0.0,0.0,0.0,0.0,0.0,0.0,0.0,0.0,0.0,0.0,0.0,0.0,0.0,0.0,0.0,0.0,0.0,0.0,0.0,0.0,0.0,0.0,0.0,0.0,0.0,0.0,0.0,0.0,0.0,0.0,0.0,0.0,0.0,0.0,0.0,0.0,0.0,0.0,0.0,0.0,0.0,0.0,0.0,0.0,0.0,0.0,0.0,0.0,0.0,0.0,0.0,0.0,0.0,0.0,0.0,0.0,0.0,0.0,0.0,0.0,0.0,0.0,0.0,0.0,0.0,0.0,0.0,0.0,0.0,0.0,0.0,0.0,0.0,0.0,0.0,0.0,0.0,0.0,0.0,0.0,0.0,0.0,0.0,0.0,0.0,0.0,0.0,0.0,0.0,0.0,0.0,0.0,0.0,0.0,0.0,0.0,0.0,0.0,0.0,0.0,0.0,0.0,0.0,0.0,0.0,0.0,0.0,0.0,0.0,0.0,0.0,0.0,0.0,0.0,0.0,0.0,0.0,0.0,0.0,0.0,0.0,0.0,0.0,0.0,0.0,0.0,0.0,0.0,0.0,0.0,0.0,0.0,0.0,0.0,0.0,0.0,0.0,0.0,0.0,0.0,0.0,0.0,0.0,0.0,0.0,0.0,0.0,0.0,0.0,0.0,0.0,0.0,0.0,0.0,0.0,0.0,0.0,0.0,0.0,0.0,0.0,0.0,0.0,0.0,0.0,0.0,0.0,0.0,0.0,0.0,0.0,0.0,0.0,0.0,0.0,0.0,0.0,0.0,0.0,0.0,0.0,0.0,0.0,0.0,0.0,0.0,0.0,0.0,0.0,0.0,0.0,0.0,0.0,0.0,0.0,0.0,0.0,0.0,0.0,0.0,0.0,0.0,0.0,0.0,0.0,0.0,0.0,0.0,0.0,0.0,0.0,0.0,0.0,0.0,0.0,0.0,0.0,0.0,0.0,0.0,0.0,0.0,0.0,0.0,0.0,0.0,0.0,0.0,0.0,0.0,0.0,0.0,0.0,0.0,0.0,0.0,0.0,0.0,0.0,0.0,0.0,0.0,0.0,0.0,0.0,0.0,0.0,0.0,0.0,0.0,0.0,0.0,0.0,0.0,0.0,0.0,0.0,0.0,0.0,0.0,0.0,0.0,0.0,0.0,0.0,0.0,0.0,0.0,0.0,0.0,0.0,0.0,0.0,0.0,0.0,0.0,0.0,0.0,0.0,0.0,0.0,0.0,0.0,0.0,0.0,0.0,0.0,0.0,0.0,0.0,0.0,0.0,0.0,0.0,0.0,0.0,0.0,0.0,0.0,0.0,0.0,0.0,0.0,0.0,0.0,0.0,0.0,0.0,0.0,0.0,0.0,0.0,0.0,0.0,0.0,0.0,0.0,0.0,0.0,0.0,0.0,0.0,0.0,0.0,0.0,0.0,0.0,0.0,0.0,0.0,0.0,0.0,0.0,0.0,0.0,0.0,0.0,0.0,0.0,0.0,0.0,0.0,0.0,0.0,0.0,0.0,0.0,0.0,0.0,0.0,0.0,0.0,0.0,0.0,0.0,0.0,0.0,0.0,0.0,0.0,0.0,0.0,0.0,0.0,0.0,0.0,0.0,0.0,0.0,0.0,0.0,0.0,0.0,0.0,0.0,0.0,0.0,0.0,0.0,0.0,0.0,0.0,0.0,0.0,0.0,0.0,0.0,0.0,0.0,0.0,0.0,0.0,0.0,0.0,0.0,0.0,0.0,0.0,0.0,0.0,0.0,0.0,0.0,0.0,0.0,0.0,0.0,0.0,0.0,0.0,0.0,0.0,0.0,0.0,0.0,0.0,0.0,0.0,0.0,0.0,0.0,0.0,0.0,0.0,0.0,0.0,0.0,0.0,0.0,0.0,0.0,0.0,0.0,0.0,0.0,0.0,0.0,0.0,0.0,0.0,0.0,0.0,0.0,0.0,0.0,0.0,0.0,0.0,0.0,0.0,0.0,0.0,0.0,0.0,0.0,0.0,0.0,0.0,0.0,0.0,0.0,0.0,0.0,0.0,0.0,0.0,0.0,0.0,0.0,0.0,0.0,0.0,0.0,0.0,0.0,0.0,0.0,0.0,0.0,0.0,0.0,0.0,0.0,0.0,0.0,0.0,0.0,0.0,0.0,0.0,0.0,0.0,0.0,0.0,0.0,0.0,0.0,0.0,0.0,0.0,0.0,0.0,0.0,0.0,0.0,0.0,0.0,0.0,0.0,0.0,0.0,0.0,0.0,0.0,0.0,0.0,0.0,0.0,0.0,0.0,0.0,0.0,0.0,0.0,0.0,0.0,0.0,0.0,0.0,0.0,0.0,0.0,0.0,0.0,0.0,0.0,0.0,0.0,0.0,0.0,0.0,0.0,0.0,0.0,0.0,0.0,0.0,0.0,0.0,0.0,0.0,0.0,0.0,0.0,0.0,0.0,0.0,0.0,0.0,0.0,0.0,0.0,0.0,0.0,0.0,0.0,0.0,0.0,0.0,0.0,0.0,0.0,0.0,0.0,0.0,0.0,0.0,0.0,0.0,0.0,0.0,0.0,0.0,0.0,0.0,0.0,0.0,0.0,0.0,0.0,0.0,0.0,0.0,0.0,0.0,0.0,0.0,0.0,0.0,0.0,0.0,0.0,0.0,0.0,0.0,0.0,0.0,0.0,0.0,0.0,0.0,0.0,0.0,0.0,0.0,0.0,0.0,0.0,0.0,0.0,0.0,0.0,0.0,0.0,0.0,0.0,0.0,0.0,0.0,0.0,0.0,0.0,0.0,0.0,0.0,0.0,0.0,0.0,0.0,0.0,0.0,0.0,0.0,0.0,0.0,0.0,0.0,0.0,0.0,0.0,0.0,0.0,0.0,0.0,0.0,0.0,0.0,0.0,0.0,0.0,0.0,0.0,0.0,0.0,0.0,0.0,0.0,0.0,0.0,0.0,0.0,0.0,0.0,0.0,0.0,0.0,0.0,0.0,0.0,0.0,0.0,0.0,0.0,0.0,0.0,0.0,0.0,0.0,0.0,0.0,0.0,0.0,0.0,0.0,0.0,0.0,0.0,0.0,0.0,0.0,0.0,0.0,0.0,0.0,0.0,0.0,0.0,0.0,0.0,0.0,0.0,0.0,0.0,0.0,0.0,0.0,0.0,0.0,0.0,0.0,0.0,0.0,0.0,0.0,0.0,0.0,0.0,0.0,0.0,0.0,0.0,0.0,0.0,0.0,0.0,0.0,0.0,0.0,0.0,0.0,0.0,0.0,0.0,0.0,0.0,0.0,0.0,0.0,0.0,0.0,0.0,0.0,0.0,0.0,0.0,0.0,0.0,0.0,0.0,0.0,0.0,0.0,0.0,0.0,0.0,0.0,0.0,0.0,0.0,0.0,0.0,0.0,0.0,0.0,0.0,0.0,0.0,0.0,0.0,0.0,0.0,0.0,0.0,0.0,0.0,0.0,0.0,0.0,0.0,0.0,0.0,0.0,0.0,0.0,0.0,0.0,0.0,0.0,0.0,0.0,0.0,0.0,0.0,0.0,0.0,0.0,0.0,0.0,0.0,0.0,0.0,0.0,0.0,0.0,0.0,0.0,0.0,0.0,0.0,0.0,0.0,0.0,0.0,0.0,0.0,0.0,0.0,0.0,0.0,0.0,0.0,0.0,0.0,0.0,0.0,0.0,0.0,0.0,0.0,0.0,0.0,0.0,0.0,0.0,0.0,0.0,0.0,0.0,0.0,0.0,0.0,0.0,0.0,0.0,0.0,0.0,0.0,0.0,0.0,0.0,0.0,0.0,0.0,0.0,0.0,0.0,0.0,0.0,0.0,0.0,0.0,0.0,0.0,0.0,0.0,0.0,0.0,0.0,0.0,0.0,0.0,0.0,0.0,0.0,0.0,0.0,0.0,0.0,0.0,0.0,0.0,0.0,0.0,0.0,0.0,0.0,0.0,0.0,0.0,0.0,0.0,0.0,0.0,0.0,0.0,0.0,0.0,0.0,0.0,0.0,0.0,0.0,0.0,0.0,0.0,0.0,0.0,0.0,0.0,0.0,0.0,0.0,0.0,0.0,0.0,0.0,0.0,0.0,0.0,0.0,0.0,0.0,0.0,0.0,0.0,0.0,0.0,0.0,0.0,0.0,0.0,0.0,0.0,0.0,0.0,0.0,0.0,0.0,0.0,0.0,0.0,0.0,0.0,0.0,0.0,0.0,0.0,0.0,0.0,0.0,0.0,0.0,0.0,0.0,0.0,0.0,0.0,0.0,0.0,0.0,0.0,0.0,0.0,0.0,0.0,0.0,0.0,0.0,0.0,0.0,0.0,0.0,0.0,0.0,0.0,0.0,0.0,0.0,0.0,0.0,0.0,0.0,0.0,0.0,0.0,0.0,0.0,0.0,0.0,0.0,0.0,0.0,0.0,0.0,0.0,0.0,0.0,0.0,0.0,0.0,0.0,0.0,0.0,0.0,0.0,0.0,0.0,0.0,0.0,0.0,0.0,0.0,0.0,0.0,0.0,0.0,0.0,0.0,0.0,0.0,0.0,0.0,0.0,0.0,0.0,0.0,0.0,0.0,0.0,0.0,0.0,0.0,0.0,0.0,0.0,0.0,0.0,0.0,0.0,0.0,0.0,0.0,0.0,0.0,0.0,0.0,0.0,0.0,0.0,0.0,0.0,0.0,0.0,0.0,0.0,0.0,0.0,0.0,0.0,0.0,0.0,0.0,0.0,0.0,0.0,0.0,0.0,0.0,0.0,0.0,0.0,0.0,0.0,0.0,0.0,0.0,0.0,0.0,0.0,0.0,0.0,0.0,0.0,0.0,0.0,0.0,0.0,0.0,0.0,0.0,0.0,0.0,0.0,0.0,0.0,0.0,0.0,0.0,0.0,0.0,0.0,0.0,0.0,0.0,0.0,0.0,0.0,0.0,0.0,0.0,0.0,0.0,0.0,0.0,0.0,0.0,0.0,0.0,0.0,0.0,0.0,0.0,0.0,0.0,0.0,0.0,0.0,0.0,0.0,0.0,0.0,0.0,0.0,0.0,0.0,0.0,0.0,0.0,0.0,0.0,0.0,0.0,0.0,0.0,0.0,0.0,0.0,0.0,0.0,0.0,0.0,0.0,0.0,0.0,0.0,0.0,0.0,0.0,0.0,0.0,0.0,0.0,0.0,0.0,0.0,0.0,0.0,0.0,0.0,0.0,0.0,0.0,0.0,0.0,0.0,0.0,0.0,0.0,0.0,0.0,0.0,0.0,0.0,0.0,0.0,0.0,0.0,0.0,0.0,0.0,0.0,0.0,0.0,0.0,0.0,0.0,0.0,0.0,0.0,0.0,0.0,0.0,0.0,0.0,0.0,0.0,0.0,0.0,0.0,0.0,0.0,0.0,0.0,0.0,0.0,0.0,0.0,0.0,0.0,0.0,0.0,0.0,0.0,0.0,0.0,0.0,0.0,0.0,0.0,0.0,0.0,0.0,0.0,0.0,0.0,0.0,0.0,0.0,0.0,0.0,0.0,0.0,0.0,0.0,0.0,0.0,0.0,0.0,0.0,0.0,0.0,0.0,0.0,0.0,0.0,0.0,0.0,0.0,0.0,0.0,0.0,0.0,0.0,0.0,0.0,0.0,0.0,0.0,0.0,0.0,0.0,0.0,0.0,0.0,0.0,0.0,0.0,0.0,0.0,0.0,0.0,0.0,0.0,0.0,0.0,0.0,0.0,0.0,0.0,0.0,0.0,0.0,0.0,0.0,0.0,0.0,0.0,0.0,0.0,0.0,0.0,0.0,0.0,0.0,0.0,0.0,0.0,0.0,0.0,0.0,0.0,0.0,0.0,0.0,0.0,0.0,0.0,0.0,0.0,0.0,0.0,0.0,0.0,0.0,0.0,0.0,0.0,0.0,0.0,0.0,0.0,0.0,0.0,0.0,0.0,0.0,0.0,0.0,0.0,0.0,0.0,0.0,0.0,0.0,0.0,0.0,0.0,0.0,0.0,0.0,0.0,0.0,0.0,0.0,0.0,0.0,0.0,0.0,0.0,0.0,0.0,0.0,0.0,0.0,0.0,0.0,0.0,0.0,0.0,0.0,0.0,0.0,0.0,0.0,0.0,0.0,0.0,0.0,0.0,0.0,0.0,0.0,0.0,0.0,0.0,0.0,0.0,0.0,0.0,0.0,0.0,0.0,0.0,0.0,0.0,0.0,0.0,0.0,0.0,0.0,0.0,0.0,0.0,0.0,0.0,0.0,0.0,0.0,0.0,0.0,0.0,0.0,0.0,0.0,0.0,0.0,0.0,0.0,0.0,0.0,0.0,0.0,0.0,0.0,0.0,0.0,0.0,0.0,0.0,0.0,0.0,0.0,0.0,0.0,0.0,0.0,0.0,0.0,0.0,0.0,0.0,0.0,0.0,0.0,0.0,0.0,0.0,0.0,0.0,0.0,0.0,0.0,0.0,0.0,0.0,0.0,0.0,0.0,0.0,0.0,0.0,0.0,0.0,0.0,0.0,0.0,0.0,0.0,0.0,0.0,0.0,0.0,0.0,0.0,0.0,0.0,0.0,0.0,0.0,0.0,0.0,0.0,0.0,0.0,0.0,0.0,0.0,0.0,0.0,0.0,0.0,0.0,0.0,0.0,0.0,0.0,0.0,0.0,0.0,0.0,0.0,0.0,0.0,0.0,0.0,0.0,0.0,0.0,0.0,0.0,0.0,0.0,0.0,0.0,0.0,0.0,0.0,0.0,0.0,0.0,0.0,0.0,0.0,0.0,0.0,0.0,0.0,0.0,0.0,0.0,0.0,0.0,0.0,0.0,0.0,0.0,0.0,0.0,0.0,0.0,0.0,0.0,0.0,0.0,0.0,0.0,0.0,0.0,0.0,0.0,0.0,0.0,0.0,0.0,0.0,0.0,0.0,0.0,0.0,0.0,0.0,0.0,0.0,0.0,0.0,0.0,0.0,0.0,0.0,0.0,0.0,0.0,0.0,0.0,0.0,0.0,0.0,0.0,0.0,0.0,0.0,0.0,0.0,0.0,0.0,0.0,0.0,0.0,0.0,0.0,0.0,0.0,0.0,0.0,0.0,0.0,0.0,0.0,0.0,0.0,0.0,0.0,0.0,0.0,0.0,0.0,0.0,0.0,0.0,0.0,0.0,0.0,0.0,0.0,0.0,0.0,0.0,0.0,0.0,0.0,0.0,0.0,0.0,0.0,0.0,0.0,0.0,0.0,0.0,0.0,0.0,0.0,0.0,0.0,0.0,0.0,0.0,0.0,0.0,0.0,0.0,0.0,0.0,0.0,0.0,0.0,0.0,0.0,0.0,0.0,0.0,0.0,0.0,0.0,0.0,0.0,0.0,0.0,0.0,0.0,0.0,0.0,0.0,0.0,0.0,0.0,0.0,0.0,0.0,0.0,0.0,0.0,0.0,0.0,0.0,0.0,0.0,0.0,0.0,0.0,0.0,0.0,0.0,0.0,0.0,0.0,0.0,0.0,0.0,0.0,0.0,0.0,0.0,0.0,0.0,0.0,0.0,0.0,0.0,0.0,0.0,0.0,0.0,0.0,0.0,0.0,0.0,0.0,0.0,0.0,0.0,0.0,0.0,0.0,0.0,0.0,0.0,0.0,0.0,0.0,0.0,0.0,0.0,0.0,0.0,0.0,0.0,0.0,0.0,0.0,0.0,0.0,0.0,0.0,0.0,0.0,0.0,0.0,0.0,0.0,0.0,0.0,0.0,0.0,0.0,0.0,0.0,0.0,0.0,0.0,0.0,0.0,0.0,0.0,0.0,0.0,0.0,0.0,0.0,0.0,0.0,0.0,0.0,0.0,0.0,0.0,0.0,0.0,0.0,0.0,0.0,0.0,0.0,0.0,0.0,0.0,0.0,0.0,0.0,0.0,0.0,0.0,0.0,0.0,0.0,0.0,0.0,0.0,0.0,0.0,0.0,0.0,0.0,0.0,0.0,0.0,0.0,0.0,0.0,0.0,0.0,0.0,0.0,0.0,0.0,0.0,0.0,0.0,0.0,0.0,0.0,0.0,0.0,0.0,0.0,0.0,0.0,0.0,0.0,0.0,0.0,0.0,0.0,0.0,0.0,0.0,0.0,0.0,0.0,0.0,0.0,0.0,0.0,0.0,0.0,0.0,0.0,0.0,0.0,0.0,0.0,0.0,0.0,0.0,0.0,0.0,0.0,0.0,0.0,0.0,0.0,0.0,0.0,0.0,0.0,0.0,0.0,0.0,0.0,0.0,0.0,0.0,0.0,0.0,0.0,0.0,0.0,0.0,0.0,0.0,0.0,0.0,0.0,0.0,0.0,0.0,0.0,0.0,0.0,0.0,0.0,0.0,0.0,0.0,0.0,0.0,0.0,0.0,0.0,0.0,0.0,0.0,0.0,0.0,0.0,0.0,0.0,0.0,0.0,0.0,0.0,0.0,0.0,0.0,0.0,0.0,0.0,0.0,0.0,0.0,0.0,0.0,0.0,0.0,0.0,0.0,0.0,0.0,0.0,0.0,0.0,0.0,0.0,0.0,0.0,0.0,0.0,0.0,0.0,0.0,0.0,0.0,0.0,0.0,0.0,0.0,0.0,0.0,0.0,0.0,0.0,0.0,0.0,0.0,0.0,0.0,0.0,0.0,0.0,0.0,0.0,0.0,0.0,0.0,0.0,0.0,0.0,0.0,0.0,0.0,0.0,0.0,0.0,0.0,0.0,0.0,0.0,0.0,0.0,0.0,0.0,0.0,0.0,0.0,0.0,0.0,0.0,0.0,0.0,0.0,0.0,0.0,0.0,0.0,0.0,0.0,0.0,0.0,0.0,0.0,0.0,0.0,0.0,0.0,0.0,0.0,0.0,0.0,0.0,0.0,0.0,0.0,0.0,0.0,0.0,0.0,0.0,0.0,0.0,0.0,0.0,0.0,0.0,0.0,0.0,0.0,0.0,0.0,0.0,0.0,0.0,0.0,0.0,0.0,0.0,0.0,0.0,0.0,0.0,0.0,0.0,0.0,0.0,0.0,0.0,0.0,0.0,0.3374,0.0,0.0,0.0,0.0,0.0,0.0,0.0,0.0,0.0,0.0,0.0,0.0,0.0,0.0,0.0,0.0,0.0,0.0,0.0,0.0,0.0,0.0,0.0,0.0,0.0,0.0,0.0,0.0,0.0,0.0,0.0,0.0,0.0,0.0,0.0,0.0,0.0,0.0,0.0,0.0,0.0,0.0,0.0,0.0,0.0,0.0,0.0,0.0,0.0,0.0,0.0,0.0,0.0,0.0,0.0,0.0,0.0,0.0,0.0,0.0,0.0,0.0,0.0,0.0,0.0,0.0,0.0,0.0,0.0,0.0,0.0,0.0,0.0,0.0,0.0,0.0,0.0,0.0,0.0,0.0,0.0,0.0,0.0,0.0,0.0,0.0,0.0,0.0,0.0,0.0,0.0,0.0,0.0,0.0,0.0,0.0,0.0,0.0,0.0,0.0,0.0,0.0,0.0,0.0,0.0,0.0,0.0,0.0,0.0,0.0,0.0,0.0,0.0,0.0,0.0,0.0,0.0,0.0,0.0,0.0,0.0,0.0,0.0,0.0,0.0,0.0,0.0,0.0,0.0,0.0,0.0,0.0,0.0,0.0,0.0,0.0,0.0,0.0,0.0,0.0,0.0,0.0,0.0,0.0,0.0,0.0,0.0,0.0,0.0,0.0,0.0,0.0,0.0,0.0,0.0,0.0,0.0,0.0,0.0,0.0,0.0,0.0,0.0,0.0,0.0,0.0,0.0,0.0,0.0,0.0,0.0,0.0,0.0,0.0,0.0,0.0,0.0,0.0,0.0,0.0,0.0,0.0,0.0,0.0,0.0,0.0,0.0,0.0,0.0,0.0,0.0,0.0,0.0,0.0,0.0,0.0,0.0,0.0,0.0,0.0,0.0,0.0,0.0,0.0,0.0,0.0,0.0,0.0,0.0,0.0,0.0,0.0,0.0,0.0,0.0,0.0,0.0,0.0,0.0,0.0,0.0,0.0227,0.0,0.0,0.0,0.0,0.0,0.0,0.0,0.0,0.3527,0.0,0.0,0.0,0.0,0.0,0.0,0.0,0.0,0.0,0.0,0.0,0.0,0.0,0.0,0.0,0.0,0.0,0.0,0.0,0.0,0.0,0.0,0.0,0.0,0.0,0.0,0.0,0.0,0.0,0.0,0.0,0.0,0.0,0.0,0.0,0.0,0.0,0.0,0.0,0.0,0.0,0.0,0.0,0.0,0.0,0.0,0.0,0.0,0.0,0.0,0.0,0.0,0.0,0.0,0.0,0.0,0.0,0.0,0.0,0.0,0.0,0.0,0.0,0.0,0.0,0.0,0.0,0.0,0.0,0.0,0.0,0.0,0.0,0.0,0.0,0.0,0.0,0.0,0.0,0.0,0.0,0.0,0.0,0.0,0.0,0.0,0.0,0.0,0.0,0.0,0.0,0.0,0.0,0.0,0.0,0.0,0.0,0.0,0.0,0.0,0.0,0.0,0.0,0.0,0.0,0.1297,0.2161,0.0,0.0,0.0,0.0,0.0,0.0,0.0,0.0,0.444,0.0,0.0,0.0,0.0,0.0,0.0,0.0,0.0,0.0,0.0,0.0,0.0,0.0,0.0,0.0,0.0,0.0,0.0,0.0,0.0,0.0,0.0,0.0,0.0,0.0,0.0,0.0,0.0,0.0,0.0,0.0,0.0,0.0,0.0,0.0,0.0,0.0,0.0,0.0,0.0,0.0,0.0,0.0,0.0,0.0,0.0,0.0,0.0,0.0,0.0,0.0,0.0,0.0,0.0,0.0,0.0,0.0,0.0,0.0,0.0,0.0,0.0,0.0,0.0,0.0,0.0,0.0,0.0,0.0,0.0,0.0,0.0,0.0,0.0,0.0,0.0,0.0,0.0,0.0,0.0,0.0,0.0,0.0,0.0,0.0,0.0,0.0,0.0,0.0,0.0,0.0,0.0,0.0,0.0,0.0,0.0,0.0,0.0,0.0,0.0,0.0,0.0,0.0,0.0,0.502,0.8319,0.7232,0.0,0.0,0.0,0.0,0.0,0.0,0.5122,0.4682,0.0,0.0,0.0,0.0,0.0,0.0,0.0,0.0,0.0,0.0,0.0,0.0,0.0,0.0,0.0,0.0,0.0,0.0,0.0,0.0,0.0,0.0,0.0,0.0,0.0,0.0,0.0,0.0,0.0,0.0,0.0,0.0,0.0,0.0,0.0,0.0,0.0,0.0,0.0,0.0,0.0,0.0,0.0,0.0,0.0,0.0,0.0,0.0,0.0,0.0,0.0,0.0,0.0,0.0,0.0,0.0,0.0,0.0,0.0,0.0,0.0,0.0,0.0,0.0,0.0,0.0,0.0,0.0,0.0,0.0,0.0,0.0,0.0,0.0,0.0,0.0,0.0,0.0,0.0,0.0,0.0,0.0,0.0,0.0,0.0,0.0,0.0,0.0,0.0,0.0,0.0,0.0,0.0,0.0,0.0,0.0,0.0,0.0,0.0,0.0,0.0,0.0,0.0,0.0,0.0,1.3137,1.2235,0.7292,0.0,0.0,0.0,0.0,0.5978,0.5924,0.0,0.0,0.0,0.0,0.0,0.0,0.0,0.0,0.0,0.0,0.0,0.0,0.0,0.0,0.0,0.0,0.0,0.0,0.0,0.0,0.0,0.0,0.0,0.0,0.0,0.0,0.0,0.0,0.0,0.0,0.0,0.0,0.0,0.0,0.0,0.0,0.0,0.0,0.0,0.0,0.0,0.0,0.0,0.0,0.0,0.0,0.0,0.0,0.0,0.0,0.0,0.0,0.0,0.0,0.0,0.0,0.0,0.0,0.0,0.0,0.0,0.0,0.0,0.0,0.0,0.0,0.0,0.0,0.0,0.0,0.0,0.0,0.0,0.0,0.0,0.0,0.0,0.0,0.0,0.0,0.0,0.0,0.0,0.0,0.0,0.0,0.0,0.0,0.0,0.0,0.0,0.0,0.0,0.0,0.0,0.0,0.0,0.0,0.0,0.0,0.0,0.0,0.0,0.0,0.0,0.0,1.1416,1.3674,0.9221,0.5837,0.0,0.0,0.7847,0.8242,0.9395,0.0,0.0,0.0,0.0,0.0,0.0,0.0,0.0,0.0,0.0,0.0,0.0,0.0,0.0,0.0,0.0,0.0,0.0,0.0,0.0,0.0,0.0,0.0,0.0,0.0,0.0,0.0,0.0,0.0,0.0,0.0,0.0,0.0,0.0,0.0,0.0,0.0,0.0,0.0,0.0,0.0,0.0,0.0,0.0,0.0,0.0,0.0,0.0,0.0,0.0,0.0,0.0,0.0,0.0,0.0,0.0,0.0,0.0,0.0,0.0,0.0,0.0,0.0,0.0,0.0,0.0,0.0,0.0,0.0,0.0,0.0,0.0,0.0,0.0,0.0,0.0,0.0,0.0,0.0,0.0,0.0,0.0,0.0,0.0,0.0,0.0,0.0,0.0,0.0,0.0,0.0,0.0,0.0,0.0,0.0,0.0,0.0,0.0,0.0,0.0,0.0,0.0,0.0,0.0,0.0,0.0,0.0,1.398,1.0612,0.0,0.0,0.0,0.8396,0.817,0.0,0.0,0.0,0.0,0.0,0.0,0.0,0.0,0.0,0.0,0.0,0.0,0.0,0.0,0.0,0.0,0.0,0.0,0.0,0.0,0.0,0.0,0.0,0.0,0.0,0.0,0.0,0.0,0.0,0.0,0.0,0.0,0.0,0.0,0.0,0.0,0.0,0.0,0.0,0.0,0.0,0.0,0.0,0.0,0.0,0.0,0.0,0.0,0.0,0.0,0.0,0.0,0.0,0.0,0.0,0.0,0.0,0.0,0.0,0.0,0.0,0.0,0.0,0.0,0.0,0.0,0.0,0.0,0.0,0.0,0.0,0.0,0.0,0.0,0.0,0.0,0.0,0.0,0.0,0.0,0.0,0.0,0.0,0.0,0.0,0.0,0.0,0.0,0.0,0.0,0.0,0.0,0.1141,0.0,0.0,0.0,0.0,0.0,0.0,0.0,0.0,0.0,0.0,0.0,0.0,0.0,0.0,0.9959,1.4326,1.1719,0.9503,0.0,0.0,0.9125,0.897,1.0655,1.1002,0.0,0.0,0.0,0.0,0.0,0.0,0.0,0.0,0.0,0.0,0.0,0.0,0.0,0.0,0.0,0.0,0.0,0.0,0.0,0.0,0.0,0.0,0.0,0.0,0.0,0.0,0.0,0.0,0.0,0.0,0.0,0.0,0.0,0.0,0.0,0.0,0.0,0.0,0.0,0.0,0.0,0.0,0.0,0.0,0.0,0.0,0.0,0.0,0.0,0.0,0.0,0.0,0.0,0.0,0.0,0.0,0.0,0.0,0.0,0.0,0.0,0.0,0.0,0.0,0.0,0.0,0.0,0.0,0.0,0.0,0.0,0.0,0.0,0.0,0.0,0.0,0.0,0.0,0.0,0.0,0.0,0.0,0.0,0.0,0.0,0.0,0.0,0.0,0.0,0.0,0.0,0.0,0.0,0.0,0.0,0.0,0.0,0.0,0.0,0.0,0.0,0.0,0.0,0.0,0.0,1.17,1.507,1.2501,1.0797,0.0,1.1251,1.0684,1.2045,1.3934,1.412,1.0693,0.0,0.0,0.0,0.0,0.0,0.0,0.0,0.0,0.0,0.0,0.0,0.0,0.0,0.0,0.0,0.0,0.0,0.0,0.0,0.0,0.0,0.0,0.0,0.0,0.0,0.0,0.0,0.0,0.0,0.0,0.0,0.0,0.0,0.0,0.0,0.0,0.0,0.0,0.0,0.0,0.0,0.0,0.0,0.0,0.0,0.0,0.0,0.0,0.0,0.0,0.0,0.0,0.0,0.0,0.0,0.0,0.0,0.0,0.0,0.0,0.0,0.0,0.0,0.0,0.0,0.0,0.0,0.0,0.0,0.0,0.0,0.0,0.0,0.0,0.0,0.0,0.0,0.0,0.0,0.0,0.0,0.0,0.0,0.0,0.0,0.0,0.0,0.0,0.0,0.0,0.0,0.2053,0.3395,0.5808,0.0,0.0,0.0,0.0,0.0,0.0,0.0,0.0,0.0,0.0,0.9534,1.5321,1.4753,0.0,0.0,1.2564,1.2007,1.177,1.3393,1.359,1.0408,1.0139,0.0,0.0,0.0,0.0,0.0,0.0,0.0,0.0,0.0,0.0,0.0,0.0,0.0,0.0,0.0,0.0,0.0,0.0,0.0,0.0,0.0,0.0,0.0,0.0,0.0,0.0,0.0,0.0,0.0,0.0,0.0,0.0,0.0,0.0,0.0,0.0,0.0,0.0,0.0,0.0,0.0,0.0,0.0,0.0,0.0,0.0,0.0,0.0,0.0,0.0,0.0,0.0,0.0,0.0,0.0,0.0,0.0,0.0,0.0,0.0,0.0,0.0536,0.0,0.0,0.0,0.0,0.0,0.0,0.0,0.0,0.0,0.0,0.0,0.0,0.0,0.0,0.0,0.0,0.0,0.0,0.0,0.0,0.0,0.0,0.0,0.0,0.0,0.0,0.0,0.0,0.2739,0.2494,0.4162,0.0,0.0,0.0,0.0,0.0,0.0,0.0,0.0,0.0,0.0,0.9937,1.4368,1.5013,1.4486,1.2942,1.2163,1.1587,1.1092,1.2512,1.2695,0.9847,0.0,0.0,0.0,0.0,0.0,0.0,0.0,0.0,0.0,0.0,0.0,0.0,0.0,0.0,0.0,0.0,0.0,0.0,0.0,0.0,0.0,0.0,0.0,0.0,0.0,0.0,0.0,0.0,0.0,0.0,0.0,0.0,0.0,0.0,0.0,0.0,0.0,0.0,0.0,0.0,0.0,0.0,0.0,0.0,0.0,0.0,0.0,0.0,0.0,0.0,0.0,0.0,0.0,0.0,0.0,0.0,0.0,0.0,0.0,0.0,0.0,0.0,0.1841,0.5572,0.0,0.0,0.0,0.0,0.0,0.0,0.0,0.0,0.0,0.0,0.0,0.0,0.0,0.0,0.0,0.0,0.0,0.0,0.0,0.0,0.0,0.0,0.0,0.0,0.0,0.0,0.8941,0.5014,0.2062,0.0,0.0,0.0,0.0,0.0,0.0,0.0,0.0,0.0,0.3383,0.9962,1.4131,1.2044,1.2571,1.2805,1.1493,0.9805,0.9095,1.0501,1.1849,1.1866,0.0,0.0,0.0,0.0,0.0,0.0,0.0,0.0,0.0,0.0,0.0,0.0,0.0,0.0,0.0,0.0,0.0,0.0,0.0,0.0,0.0,0.0,0.0,0.0,0.0,0.0,0.0,0.0,0.0,0.0,0.0,0.0,0.0,0.0,0.0,0.0,0.0,0.0,0.0,0.0,0.0,0.0,0.0,0.0,0.0,0.0,0.0,0.0,0.0,0.0,0.0,0.0,0.0,0.0,0.0,0.0,0.0,0.0,0.0,0.0,0.0,0.0,0.3235,0.5491,0.6564,0.0,0.0,0.0,0.0,0.0,0.0,0.0,0.0,0.0,0.0,0.0,0.0,0.0,0.0,0.0,0.0,0.0,0.0,0.0,0.0,0.0,0.0,0.0,0.0,0.0,0.4052,0.0,0.0,0.0,0.0,0.0,0.0,0.0,0.0,0.0,0.0,0.413,0.465,0.6226,1.149,1.4894,1.406,1.2718,1.2414,0.0,0.0,0.0,0.0,0.0,0.0,0.0,0.0,0.0,0.0,0.0,0.0,0.0,0.0,1.1721,0.8497,0.7811,0.777,0.7846,0.0,0.0,0.0,0.0,0.0,0.0,0.0,0.0,0.0,0.0,0.0,0.0,0.0,0.0,0.0,0.0,0.0,0.0,0.0,0.0,0.0,0.0,0.0,0.0,0.0,0.0,0.0,0.0,0.0,0.0,0.0,0.0,0.0,0.0,0.0,0.0,0.0,0.0,0.0,0.0,0.0,0.0,0.0,0.0,0.0,0.0,0.0,0.0912,0.2783,0.5987,0.7509,0.7085,0.6493,0.6023,0.0,0.0,0.0,0.0,0.0,0.0,0.0,0.0,0.0,0.0,0.0,0.0,0.0,0.0,0.0,0.0,0.0,0.0,0.0,0.0,0.0,0.0,0.0,0.6089,0.0,0.0,0.0,0.0,0.0,0.0,0.0,0.0,0.0,0.637,0.5843,0.5928,0.6892,1.1559,1.4921,1.5017,0.0,0.0,0.0,0.0,0.0,0.0,0.0,1.3272,1.2504,1.3297,1.3974,1.3848,1.4685,1.5267,1.4936,0.0,0.0,1.0903,1.0269,1.0223,1.0307,1.1043,1.1238,0.9957,1.0949,1.2374,0.0,0.0,0.0,0.0,0.0,0.0,0.0,0.0,0.0,0.0,0.0,0.0,0.0,0.0,0.0,0.0,0.0,0.0,0.0,0.0,0.0,0.0,0.0,0.0,0.0,0.0,0.0,0.0,0.0,0.0,0.0,0.0,0.0,0.0,0.0,0.0,0.0,0.0,0.0,0.0,0.0,0.0,0.257,0.7762,0.8067,0.7816,0.7226,0.6255,0.5624,0.5491,0.5324,0.0,0.0,0.0,0.0,0.0,0.0,0.0,0.0,0.0,0.0,0.0,0.0,0.0,0.0,0.0,0.0,0.0,0.0,0.0,0.0,0.798,0.0,0.0,0.0,0.0,0.0,0.0,0.0,0.0,0.0,0.9782,0.8695,0.9531,0.9077,0.5864,0.0,0.0,0.0,0.0,1.3927,1.1725,1.1255,1.1346,1.1531,1.2651,1.3483,1.3423,0.0,0.0,1.5513,1.6518,1.6907,1.553,1.4685,1.4232,1.4874,1.4387,1.4081,1.4207,1.3994,1.4118,1.4668,1.4159,1.4461,0.0,0.0,0.0,0.0,0.0,0.0,0.0,0.0,0.0,0.0,0.0,0.0,0.0,0.0,0.0,0.0,0.0,0.0,0.0,0.0,0.0,0.0,0.0,0.0,0.0,0.0,0.0,0.0,0.0,0.0,0.0,0.0,0.0,0.0,0.0,0.0,0.0,0.0,0.0,0.0,0.0,0.0,0.2714,0.8312,0.8224,0.7976,0.7717,0.7208,0.706,0.7231,0.6977,0.0,0.0,0.0,0.0,0.0,0.0,0.0,0.0,0.0,0.0,0.0,0.0,0.0,0.0,0.0,0.0,0.0,0.0,0.0,0.8814,0.9901,1.0276,0.0,0.0,0.0,0.0,0.0,0.0,0.0,0.0,0.0,1.2582,1.2692,1.249,0.0,0.0,1.6082,1.5752,1.5855,1.5738,1.5057,1.4925,0.0,1.5126,1.5051,1.5087,1.5391,1.5949,1.6395,1.6654,1.7271,1.7502,1.6736,1.6416,1.6293,1.6341,1.5945,1.5571,1.5579,1.5575,1.5661,1.5882,1.5822,1.6075,0.0,0.0,0.0,0.0,0.0,0.0,0.0,0.0,0.0,0.0,0.0,0.0,0.0,0.0,0.0,0.0,0.0,0.0,0.0,0.0,0.0,0.0,0.0,0.0,0.0,0.0,0.0,0.0,0.0,0.0,0.0,0.0,0.0,0.0,0.0,0.2268,0.3408,0.3416,0.3419,0.3405,0.3421,0.3406,0.5074,0.8428,0.9117,0.9114,0.8518,0.8689,0.8779,0.8804,0.8727,0.877,0.0,0.0,0.0,0.0,0.0,0.0,0.0,0.0,0.0,0.0,0.0,0.5996,0.509,0.0,0.0,0.0,0.6328,0.7858,1.0151,1.078,0.0,0.0,0.0,0.0,0.0,0.0,0.0,1.2399,1.3276,1.4082,1.4659,1.4781,1.4823,1.4824,1.5865,1.6597,1.6469,0.0,1.6811,1.6724,1.6713,1.6775,1.6932,1.6613,1.6437,1.6762,1.6948,1.713,1.7412,1.7717,1.7792,1.7554,1.7473,1.7446,1.7358,1.7039,1.6713,1.6515,1.657,1.6674,1.6778,1.6827,1.7075,0.0,0.0,0.0,0.0,0.0,0.0,0.0,0.0,0.0,0.0,0.0,0.0,0.0,0.0,0.0,0.0,0.0,0.0,0.0,0.0,0.0,0.0,0.0,0.0,0.0,0.0,0.0,0.0,0.0,0.0,0.0,0.0029,0.0445,0.0437,0.0325,0.5709,0.8608,0.8582,0.8549,0.8578,0.8584,0.8605,0.8606,0.8595,1.0392,1.074,0.9499,1.0221,1.047,1.0057,1.0279,1.0198,0.9754,0.0,0.0,0.0,0.0,0.0,0.0,0.0,0.0,0.0,0.0,0.0,0.0,0.0,0.0,0.7758,0.8844,0.0,0.9904,1.0947,0.0,0.0,0.0,1.2758,1.3072,1.2943,1.2995,1.341,0.0,0.0,1.5351,1.6006,1.6259,1.5795,1.5991,1.6386,1.7,1.728,1.7334,1.7091,1.7079,1.7161,1.7385,1.7372,1.7412,1.7534,1.7779,1.786,1.7881,1.7929,1.7915,1.7908,1.7935,1.7928,1.7942,1.7888,1.7772,1.7208,1.7181,1.7297,1.7406,1.7426,1.7519,0.0,0.0,0.0,0.0,0.0,0.0,0.0,0.0,0.0,0.0,0.0,0.0,0.0,0.0,0.0,0.0,0.0,0.0,0.0,0.0,0.0,0.0,0.0,0.0,0.0,0.0,0.0,0.0,0.0,0.4422,0.4317,0.0417,0.4126,0.4106,0.0385,0.5722,0.8608,0.8607,0.8607,0.8607,0.8607,0.8606,0.8516,0.8383,1.0133,1.058,0.9532,1.0117,1.0379,1.015,0.9889,0.9789,0.9923,0.9196,0.0,0.0,0.0,0.0,0.0,0.0,0.0,0.0,0.0,0.7034,0.621,0.0,0.8104,0.0,0.9583,1.0601,1.1122,1.143,0.0,0.0,1.2868,1.3904,1.399,1.3949,1.392,1.3939,1.4734,1.5414,1.5741,1.6271,1.6725,1.6933,1.6865,1.7007,1.7575,1.7739,1.7698,1.7514,1.7568,1.7704,1.7758,1.7779,1.7772,1.7826,1.786,1.7908,1.7915,1.808,1.8204,1.8134,1.818,1.8199,1.8199,1.8213,1.8172,1.8016,1.7846,1.7779,1.7914,1.7851,1.7849,0.0,0.0,0.0,0.0,0.0,0.0,0.0,0.0,0.0,0.0,0.0,0.0,0.0,0.0,0.0,0.0,0.0,0.0,0.0,0.0,0.0,0.0,0.0,0.0,0.0,0.0,0.0,0.0,0.0,0.3243,0.4437,0.385,0.5559,0.5333,0.3344,0.5109,0.6059,0.6065,0.7946,0.8809,0.8608,0.8608,0.8883,0.9485,1.0115,1.045,1.0397,1.1007,1.1248,1.1055,1.0712,1.0563,1.0621,1.0192,0.9801,0.0,0.0,0.0,0.0,0.0,0.0,0.0,0.0,0.0,0.0,0.0,0.9502,0.9334,1.0148,1.1048,1.1911,1.2246,1.2412,1.2421,1.3649,1.4582,1.4835,1.4727,1.4682,1.4877,1.5438,1.5934,1.6225,1.6656,1.7028,1.7363,1.7398,1.752,1.7823,1.7914,1.7854,1.7765,1.784,1.7915,1.7915,1.7915,1.7915,1.7915,1.7915,1.7915,1.7913,1.8017,1.8134,1.8189,1.8214,1.8219,1.8212,1.8266,1.8314,1.8287,1.8179,1.8118,1.8172,1.8136,1.8114,0.0,0.0,0.0,0.0,0.0,0.0,0.0,0.0,0.0,0.0,0.0,0.0,0.0,0.0,0.0,0.0,0.0,0.0,0.0,0.0,0.0,0.0,0.0,0.0,0.0,0.0,0.0,0.0,0.0,0.0364,0.3296,0.8289,0.6244,0.5971,0.7528,0.5254,0.3942,0.3835,0.7461,0.9212,0.8967,0.8959,0.9684,1.1134,1.0529,1.0558,1.1418,1.2091,1.233,1.2116,1.1873,1.1644,1.1432,1.1515,1.1209,0.0,0.9595,0.0,0.0,0.0,0.0,0.0,0.0,0.0,0.0,1.073,1.0844,1.0547,1.0786,1.1425,1.262,1.321,1.3547,1.3649,1.4337,1.5024,1.551,1.5329,1.5333,1.5868,1.6074,1.632,1.6641,1.6979,1.7249,1.7405,1.767,1.7861,1.7896,1.7909,1.7908,1.7915,1.7915,1.7915,1.7915,1.7915,1.7915,1.7915,1.7915,1.7914,1.7918,1.7982,1.8073,1.8181,1.8228,1.8227,1.8193,1.8301,1.8361,1.8396,1.8389,1.8362,1.8327,1.8292,1.832,0.0,0.0,0.0,0.0,0.0,0.0,0.0,0.0,0.0,0.0,0.0,0.0,0.0,0.0,0.0,0.0,0.0,0.0,0.0,0.0,0.0,0.0,0.0,0.0,0.0,0.0,0.0,0.0,0.0,0.2363,0.5224,0.8533,0.9067,0.9885,1.0901,0.0,0.0,0.0,0.9191,0.9977,1.0839,1.0874,1.1428,1.2551,1.2212,0.0,1.1316,1.1843,1.2164,1.2091,1.1696,0.0,0.0,0.0,0.0,0.0,0.0,0.0,0.0,0.0,0.0,0.0,1.2529,1.156,1.0117,1.1395,1.2158,1.1805,1.1998,1.2658,1.3837,1.4049,1.4331,1.4808,1.5201,1.5475,1.5598,1.5767,1.5958,1.6034,1.6375,1.6601,1.6702,1.6979,1.7243,1.7379,1.7684,1.7889,1.7909,1.7909,1.7915,1.7915,1.7915,1.7915,1.7915,1.7915,1.7915,1.7915,1.7915,1.7915,1.7935,1.8321,1.8494,1.8372,1.8485,1.8641,1.8656,1.8689,1.8682,1.8717,1.8696,1.8662,1.8496,1.8369,1.8374,0.0,0.0,0.0,0.0,0.0,0.0,0.0,0.0,0.0,0.0,0.0,0.0,0.0,0.0,0.0,0.0,0.0,0.0,0.0,0.0,0.0,0.0,0.0,0.0,0.0,0.0,0.0,0.0,0.0,0.4509,0.789,1.0213,1.0591,1.1371,1.2566,1.3094,1.251,1.09,1.1002,1.0332,0.8916,1.0044,1.1582,1.3279,1.2682,0.0,0.0,0.0,0.0,0.0,0.0,0.0,0.0,1.1552,0.0,1.1393,1.1521,1.1592,1.161,1.2158,1.2935,1.3951,1.3924,1.3155,1.1501,1.2409,1.296,1.2769,1.2978,1.358,1.4614,1.4733,1.486,1.5186,1.5596,1.5897,1.602,1.607,1.6177,1.6382,1.656,1.6716,1.6836,1.7107,1.725,1.723,1.7616,1.7902,1.7915,1.7915,1.7915,1.7915,1.7915,1.7915,1.7915,1.7915,1.7942,1.7976,1.7941,1.7918,1.7912,1.8267,1.8533,1.8537,1.8609,1.8654,1.8654,1.873,1.8798,1.8798,1.8798,1.8771,1.866,1.8596,1.8588,0.0,0.0,0.0,0.0,0.0,0.0,0.0,0.0,0.0,0.0,0.0,0.0,0.0,0.0,0.0,0.0,0.0,0.0,0.0,0.0,0.0,0.0,0.0,0.0,0.0564,0.153,0.0517,0.0563,0.179,0.7054,1.0428,1.1783,1.1571,1.2134,1.3562,1.456,1.422,1.265,1.2621,1.1067,0.787,0.9271,1.1365,1.3985,1.298,1.2462,1.2613,1.2193,1.196,1.1958,1.1952,1.201,1.2169,1.1881,1.17,1.1784,1.2419,1.2812,1.2834,1.3271,1.3936,1.479,1.4587,1.4098,1.3319,1.349,1.3614,1.3581,1.3829,1.4321,1.5125,1.5197,1.5241,1.5348,1.5839,1.6256,1.6448,1.6335,1.6354,1.6635,1.6729,1.681,1.6965,1.7195,1.7331,1.7203,1.7507,1.7846,1.7888,1.7915,1.7915,1.7915,1.7915,1.7915,1.7915,1.7928,1.7969,1.803,1.8,1.7981,1.8014,1.8197,1.8473,1.874,1.8652,1.8586,1.8564,1.8688,1.8792,1.8798,1.8798,1.8798,1.8798,1.8798,1.8792,0.0,0.0,0.0,0.0,0.0,0.0,0.0,0.0,0.0,0.0,0.0,0.0,0.0,0.0,0.0,0.0,0.0,0.0,0.0,0.0,0.0,0.0,0.0,0.0,0.2755,0.7131,0.2544,0.2725,0.7622,1.045,1.1921,1.2208,1.2701,1.3575,1.4694,1.5038,1.5023,1.4739,1.3492,1.3203,1.3861,1.1696,1.196,1.4765,1.4068,1.3411,1.3102,1.2758,1.2569,1.2574,1.2462,1.2474,1.2591,1.2254,1.2138,1.2397,1.3421,1.4058,1.4061,1.414,1.4559,1.5352,1.5128,1.4717,1.4346,1.4438,1.4416,1.4228,1.4503,1.486,1.516,1.5227,1.5432,1.5887,1.626,1.6462,1.6524,1.657,1.6627,1.6696,1.6857,1.6951,1.7018,1.7161,1.7331,1.7453,1.7561,1.7601,1.7867,1.7915,1.7915,1.7915,1.7915,1.7915,1.7929,1.7996,1.8037,1.7928,1.8096,1.8196,1.8247,1.8481,1.8718,1.8789,1.8755,1.8744,1.8758,1.8778,1.8798,1.8798,1.8798,1.8798,1.8798,1.8798,1.8806,0.0,0.0,0.0,0.0,0.0,0.0,0.0,0.0,0.0,0.0,0.0,0.0,0.0,0.0,0.0,0.0,0.0,0.0,0.0,0.0,0.0,0.0,0.0,0.3376,0.6377,0.8808,0.6339,0.6376,0.9165,1.2265,1.3813,1.3861,1.4178,1.4599,1.5074,1.5176,1.5198,1.5175,1.4505,1.4503,1.5153,1.3817,1.3775,1.5166,1.4759,1.4274,1.3717,1.3441,1.3288,1.3303,1.3232,1.3285,1.3435,1.3041,1.3019,1.347,1.4305,1.4793,1.4786,1.4913,1.518,1.5564,1.5367,1.5187,1.5098,1.4952,1.477,1.4551,1.4702,1.505,1.5606,1.5692,1.5804,1.6062,1.6495,1.6764,1.6772,1.6706,1.6749,1.6857,1.6999,1.71,1.7093,1.729,1.7433,1.7582,1.7704,1.7907,1.8093,1.8106,1.8057,1.7942,1.7969,1.8017,1.8023,1.8111,1.8192,1.8199,1.8136,1.8238,1.8458,1.8722,1.8784,1.8797,1.8794,1.8799,1.8798,1.8798,1.8798,1.8798,1.8798,1.8798,1.8798,1.8798,1.8847,0.0,0.0,0.0,0.0,0.0,0.0,0.0,0.0,0.0,0.0,0.0,0.0,0.0,0.0,0.0,0.0,0.0,0.0,0.0,0.0,0.0,0.0686,0.2398,0.7105,0.9381,0.955,0.9283,0.9344,1.018,1.3519,1.5276,1.5238,1.5236,1.5241,1.5258,1.5247,1.5247,1.5241,1.5219,1.5198,1.5198,1.5198,1.5194,1.5195,1.5196,1.4938,1.4385,1.4129,1.3992,1.4003,1.4008,1.4068,1.4217,1.3897,1.3899,1.4369,1.4895,1.5202,1.5212,1.5457,1.563,1.5698,1.5591,1.5554,1.5624,1.5383,1.5083,1.4876,1.4913,1.5285,1.5914,1.6085,1.6157,1.6295,1.6709,1.6967,1.6983,1.6881,1.687,1.7019,1.7174,1.7249,1.729,1.7453,1.7602,1.7704,1.7962,1.8203,1.8356,1.8367,1.8192,1.8084,1.8091,1.8152,1.8166,1.826,1.8361,1.8455,1.8288,1.832,1.8588,1.8715,1.8799,1.8799,1.8799,1.8798,1.8798,1.8798,1.8798,1.8798,1.8798,1.8798,1.8798,1.8798,1.8855,0.0,0.0,0.0,0.0,0.0,0.0,0.0,0.0,0.0,0.0,0.0,0.0,0.0,0.0,0.0,0.0,0.0,0.0,0.0,0.0,0.0,0.2911,0.7728,0.9194,1.0219,1.0901,0.9835,1.0121,1.1623,1.4278,1.5507,1.5387,1.5385,1.5391,1.5379,1.5385,1.5385,1.5384,1.5267,1.5198,1.5198,1.5198,1.5196,1.5199,1.5197,1.5172,1.5049,1.4785,1.4613,1.4613,1.4612,1.4613,1.464,1.46,1.4607,1.468,1.4998,1.5199,1.523,1.544,1.574,1.5999,1.5915,1.5855,1.5882,1.5853,1.5631,1.5326,1.5478,1.5764,1.6064,1.6122,1.6363,1.6778,1.6939,1.6996,1.7003,1.7093,1.7168,1.7188,1.729,1.7392,1.7392,1.7528,1.767,1.7833,1.8016,1.8285,1.86,1.8507,1.8348,1.828,1.8287,1.8294,1.8307,1.8409,1.8456,1.8402,1.8558,1.8588,1.8567,1.8658,1.8798,1.8798,1.8798,1.8798,1.8798,1.8798,1.8798,1.8798,1.8798,1.8798,1.8798,1.8798,1.8833,0.0,0.0,0.0,0.0,0.0,0.0,0.0,0.0,0.0,0.0,0.0,0.0,0.0,0.0,0.0,0.0,0.0,0.0,0.0,0.0,0.3865,0.71,0.9318,1.0413,1.0695,1.0416,1.0835,1.0891,1.1066,1.4079,1.5774,1.553,1.5517,1.5523,1.5504,1.5511,1.5517,1.5529,1.5462,1.5356,1.5216,1.5199,1.5198,1.5215,1.5357,1.5412,1.5379,1.5203,1.5098,1.5103,1.504,1.5004,1.4998,1.5,1.4993,1.5009,1.5126,1.5359,1.5721,1.5835,1.6022,1.6322,1.6143,1.6087,1.6238,1.619,1.6017,1.5781,1.5695,1.579,1.6092,1.6425,1.6728,1.6961,1.6998,1.7002,1.7004,1.712,1.7215,1.7215,1.7385,1.7521,1.7534,1.7663,1.7798,1.7927,1.8082,1.8381,1.8717,1.8669,1.8615,1.8593,1.8593,1.8531,1.847,1.8565,1.8627,1.8627,1.8696,1.8715,1.8672,1.8672,1.8798,1.8798,1.8798,1.8798,1.8798,1.8798,1.8798,1.8798,1.8798,1.8798,1.8798,1.8798,1.8847,0.0,0.0,0.0,0.0,0.0,0.0,0.0,0.0,0.0,0.0,0.0,0.0,0.0,0.0,0.0,0.0,0.0,0.0,0.11,0.3067,0.7757,0.978,0.9819,1.0676,1.0773,1.0403,1.1809,1.2132,1.1512,1.4348,1.6064,1.5818,1.5766,1.5745,1.5733,1.5693,1.5684,1.5678,1.5638,1.5498,1.5334,1.5307,1.5352,1.545,1.5636,1.5695,1.558,1.5509,1.5454,1.546,1.5352,1.5303,1.5309,1.5238,1.5274,1.5424,1.5451,1.5625,1.6088,1.6183,1.6285,1.646,1.6305,1.6299,1.6443,1.645,1.635,1.6207,1.5992,1.6004,1.6339,1.6745,1.6982,1.6997,1.7002,1.7018,1.7112,1.7195,1.727,1.7317,1.7541,1.769,1.7697,1.7805,1.7906,1.793,1.8162,1.8452,1.8725,1.8784,1.8785,1.8798,1.8799,1.8736,1.8626,1.8681,1.8792,1.8798,1.8798,1.8798,1.8798,1.8798,1.8798,1.8798,1.8798,1.8798,1.8798,1.8798,1.8798,1.8798,1.8798,1.8804,1.88,1.8801,1.8913,0.0,0.0,0.0,0.0,0.0,0.0,0.0,0.0,0.0,0.0,0.0,0.0,0.0,0.0,0.0,0.0,0.0,0.0,0.3396,0.8261,0.972,1.0001,0.9716,0.9968,1.0591,1.1246,1.2585,1.4035,1.58,1.629,1.6418,1.6272,1.613,1.6081,1.6061,1.5964,1.5901,1.5903,1.5758,1.5621,1.5586,1.5588,1.574,1.5981,1.6072,1.5975,1.5795,1.5653,1.5586,1.5598,1.5578,1.5571,1.556,1.5342,1.5464,1.5947,1.6041,1.6049,1.6124,1.6355,1.6525,1.6514,1.653,1.6505,1.6579,1.6661,1.6653,1.6505,1.6486,1.6591,1.6887,1.6977,1.7006,1.6997,1.7004,1.7132,1.7341,1.7371,1.7453,1.7548,1.7724,1.7853,1.7888,1.7884,1.7903,1.799,1.8263,1.8567,1.8723,1.8796,1.8799,1.8798,1.8798,1.8792,1.8778,1.8778,1.8792,1.8798,1.8798,1.8798,1.8798,1.8798,1.8798,1.8798,1.8798,1.8798,1.8798,1.8798,1.8798,1.8798,1.8798,1.8796,1.8803,1.8798,1.896,0.0,0.0,0.0,0.0,0.0,0.0,0.0,0.0,0.0,0.0,0.0,0.0,0.0,0.0,0.0,0.0,0.0,0.4454,0.5605,0.4591,0.8041,1.082,1.2127,1.2095,1.138,1.1034,1.3696,1.5744,1.6653,1.6827,1.6685,1.6449,1.6388,1.6355,1.6348,1.6307,1.6279,1.6266,1.6213,1.6087,1.5925,1.5924,1.5991,1.6091,1.6111,1.6064,1.5988,1.5875,1.5796,1.5802,1.5671,1.5593,1.5589,1.5512,1.5649,1.604,1.6113,1.6117,1.6177,1.6702,1.7065,1.7075,1.6988,1.6972,1.706,1.7115,1.7129,1.7083,1.7076,1.7223,1.7402,1.7239,1.7,1.7021,1.716,1.7294,1.7378,1.7467,1.7548,1.7609,1.7765,1.7915,1.7989,1.7966,1.7976,1.8136,1.8349,1.8573,1.8747,1.88,1.8798,1.8798,1.8798,1.8798,1.8798,1.8798,1.8798,1.8798,1.8798,1.8798,1.8798,1.8798,1.8798,1.8798,1.8798,1.8798,1.8798,1.8798,1.8806,1.8826,1.8826,1.8828,1.8805,1.8886,1.9133,0.0,0.0,0.0,0.0,0.0,0.0,0.0,0.0,0.0,0.0,0.0,0.0,0.0,0.0,0.0,0.0,0.0,0.481,0.5525,0.3725,0.6863,1.0062,1.2608,1.2853,1.2191,1.1711,1.4791,1.6789,1.6976,1.6996,1.6873,1.6679,1.6606,1.656,1.6553,1.6525,1.6511,1.6511,1.6511,1.6408,1.6255,1.6236,1.628,1.6374,1.6401,1.6323,1.6212,1.6142,1.61,1.608,1.5974,1.5877,1.5861,1.5792,1.5948,1.6321,1.6383,1.6398,1.6453,1.7028,1.7434,1.7537,1.7375,1.7311,1.7392,1.7446,1.7446,1.7433,1.7534,1.7684,1.7744,1.752,1.7217,1.711,1.7337,1.7559,1.7554,1.7575,1.7629,1.771,1.7867,1.8003,1.807,1.806,1.8123,1.8268,1.8458,1.8654,1.8771,1.8798,1.8798,1.8798,1.8798,1.8798,1.8798,1.8798,1.8798,1.8798,1.8798,1.8798,1.8798,1.8798,1.8798,1.8798,1.8798,1.8798,1.8798,1.8798,1.8819,1.886,1.8892,1.8901,1.8944,1.903,1.9263,0.0,0.0,0.0,0.0,0.0,0.0,0.0,0.0,0.0,0.0,0.0,0.0,0.0,0.0,0.0,0.0,0.0,0.1699,0.4511,0.8747,0.7074,0.8307,1.2104,1.2434,1.2893,1.3429,1.5792,1.6958,1.6997,1.7003,1.697,1.6944,1.6796,1.6722,1.6702,1.66,1.6538,1.6565,1.6579,1.6533,1.6511,1.6502,1.6638,1.69,1.6949,1.6801,1.6461,1.6459,1.645,1.647,1.645,1.6446,1.6335,1.6196,1.635,1.6812,1.6954,1.6965,1.6977,1.7242,1.7593,1.774,1.7581,1.7446,1.7494,1.7561,1.7575,1.7527,1.7697,1.7902,1.7895,1.7847,1.7609,1.7197,1.754,1.7825,1.784,1.7732,1.769,1.7867,1.8023,1.8084,1.8137,1.8215,1.8291,1.8386,1.8581,1.8764,1.8799,1.8798,1.8798,1.8798,1.8798,1.8798,1.8798,1.8798,1.8798,1.8798,1.8798,1.8798,1.8798,1.8798,1.8798,1.8798,1.8798,1.8798,1.8819,1.8819,1.8886,1.8926,1.8944,1.8987,1.9026,1.9117,1.9344,0.0,0.0,0.0,0.0,0.0,0.0,0.0,0.0,0.0,0.0,0.0,0.0,0.0,0.0,0.4698,0.71,0.7215,0.5138,0.6104,0.9573,0.9922,1.1214,1.354,1.4322,1.4979,1.5818,1.6577,1.6995,1.7001,1.7006,1.6998,1.6984,1.6937,1.691,1.6904,1.6863,1.6883,1.6971,1.6978,1.6933,1.6856,1.6849,1.6896,1.6995,1.7167,1.7194,1.7081,1.6715,1.6518,1.6524,1.6511,1.6536,1.6563,1.6458,1.6565,1.6933,1.7003,1.7,1.7063,1.7446,1.777,1.7854,1.7786,1.7759,1.7752,1.7779,1.7778,1.7737,1.786,1.7915,1.7916,1.7916,1.78,1.7643,1.7786,1.7916,1.793,1.7935,1.7983,1.8037,1.8152,1.8253,1.8347,1.8418,1.8479,1.8588,1.8735,1.8798,1.8812,1.8819,1.8798,1.8798,1.8798,1.8839,1.8866,1.8887,1.8887,1.886,1.8832,1.8798,1.8798,1.8832,1.8826,1.8846,1.8839,1.8839,1.8846,1.8886,1.896,1.902,1.9074,1.9084,1.9074,1.9226,1.9451,0.0,0.0,0.0,0.0,0.0,0.0,0.0,0.0,0.0,0.0,0.0,0.0,0.0,0.0,0.7293,1.0419,1.059,0.8837,0.9275,1.1064,1.1938,1.3434,1.5166,1.6013,1.657,1.7076,1.7277,1.721,1.6996,1.7102,1.7148,1.7148,1.7154,1.7154,1.7148,1.7148,1.7195,1.7263,1.7256,1.723,1.7177,1.715,1.7197,1.7338,1.75,1.7574,1.7547,1.7086,1.6836,1.683,1.6836,1.6876,1.6948,1.68,1.6782,1.6968,1.7209,1.7344,1.7372,1.7704,1.7909,1.7916,1.7909,1.7915,1.7908,1.7915,1.7915,1.7915,1.7915,1.7915,1.7915,1.7914,1.7914,1.7916,1.7895,1.7943,1.7997,1.8064,1.8118,1.8172,1.8294,1.8415,1.8476,1.8585,1.864,1.8778,1.8798,1.8875,1.8896,1.8916,1.8908,1.8913,1.8973,1.8987,1.8975,1.8975,1.8982,1.8927,1.8879,1.8832,1.8798,1.8872,1.8906,1.8994,1.9015,1.9014,1.9028,1.9041,1.9094,1.9149,1.9217,1.9277,1.9322,1.9393,1.9566,0.0,0.0,0.0,0.0,0.0,0.0,0.0,0.0,0.0,0.0,0.0,0.0,0.0,0.0,0.6965,1.0247,1.1156,1.1848,1.2401,1.2942,1.3385,1.4304,1.5938,1.6878,1.7324,1.746,1.7703,1.7581,1.7183,1.7338,1.7426,1.7432,1.7399,1.7399,1.7358,1.7399,1.7392,1.7406,1.7419,1.7406,1.7426,1.7426,1.7541,1.7831,1.7852,1.7866,1.7805,1.754,1.7379,1.7379,1.7318,1.7304,1.7331,1.7156,1.7022,1.7076,1.7581,1.7792,1.7881,1.7875,1.7916,1.7916,1.7922,1.7915,1.7915,1.7949,1.7983,1.7956,1.7921,1.7914,1.7914,1.7911,1.7937,1.7965,1.801,1.8045,1.8161,1.8167,1.822,1.8314,1.8422,1.8523,1.8543,1.8695,1.8784,1.8811,1.8817,1.8956,1.9076,1.9094,1.9097,1.9109,1.9108,1.9101,1.9082,1.9075,1.9075,1.9056,1.8986,1.8924,1.8907,1.8996,1.9036,1.9124,1.917,1.9183,1.9182,1.9189,1.9237,1.9304,1.9392,1.9501,1.9555,1.9589,1.9609,0.0,0.0,0.0,0.0,0.0,0.0,0.0,0.0,0.0,0.0,0.0,0.0,0.0,0.0,0.4831,0.9085,1.2363,1.2828,1.3691,1.5101,1.5368,1.6099,1.7126,1.7587,1.7765,1.7786,1.7841,1.7813,1.7677,1.771,1.777,1.7756,1.7554,1.7419,1.7399,1.7426,1.746,1.7527,1.7548,1.7622,1.7745,1.7758,1.78,1.7889,1.7909,1.7916,1.7909,1.7813,1.7643,1.7406,1.7399,1.7399,1.7412,1.7338,1.7304,1.7371,1.765,1.7916,1.7916,1.793,1.7922,1.7915,1.7996,1.801,1.7922,1.8084,1.8153,1.8112,1.7992,1.7925,1.7918,1.7937,1.8091,1.8458,1.8345,1.824,1.8274,1.8348,1.8422,1.8463,1.862,1.8702,1.8763,1.8844,1.8918,1.8872,1.8926,1.9074,1.921,1.9274,1.9263,1.9198,1.919,1.9189,1.9183,1.9183,1.9183,1.9176,1.9119,1.9053,1.9108,1.9217,1.9237,1.9264,1.9273,1.9284,1.9284,1.9278,1.9358,1.9453,1.9536,1.9618,1.9654,1.9681,1.9673,0.0,0.0,0.0,0.0,0.0,0.0,0.0,0.0,0.0,0.0,0.0,0.0,0.0,0.0,0.5395,1.0103,1.4031,1.4051,1.477,1.6059,1.6812,1.7451,1.7944,1.7994,1.7917,1.7911,1.792,1.7914,1.7907,1.8005,1.8074,1.8047,1.7875,1.7758,1.7711,1.7697,1.769,1.7731,1.7738,1.7785,1.7888,1.7915,1.7908,1.7915,1.7915,1.7915,1.7915,1.7908,1.7813,1.7657,1.7616,1.7616,1.7623,1.7609,1.7622,1.7628,1.7806,1.7916,1.7928,1.8003,1.8072,1.8071,1.8159,1.8131,1.8111,1.8226,1.8295,1.8318,1.8175,1.8165,1.8253,1.8278,1.8451,1.8696,1.8719,1.8616,1.8536,1.8506,1.8593,1.8694,1.8811,1.8906,1.8954,1.9041,1.9045,1.9014,1.9032,1.921,1.9389,1.941,1.9423,1.9384,1.9381,1.9415,1.9422,1.9422,1.9401,1.9388,1.9345,1.9264,1.9282,1.9409,1.9451,1.9449,1.941,1.94,1.9414,1.9449,1.9509,1.9598,1.9667,1.9695,1.9708,1.971,1.9718,0.0,0.0,0.0,0.0,0.0,0.0,0.0,0.0,0.0,0.0,0.0,0.0,0.0,0.1519,0.7834,1.2169,1.4806,1.5283,1.607,1.6919,1.7675,1.8271,1.8298,1.8146,1.8027,1.8006,1.7982,1.8048,1.8134,1.8288,1.8351,1.8332,1.8289,1.8199,1.8057,1.807,1.8023,1.7901,1.7908,1.7894,1.7907,1.7914,1.7914,1.7913,1.7989,1.7989,1.7983,1.7969,1.7949,1.7942,1.7922,1.7874,1.7888,1.7895,1.7881,1.7873,1.788,1.7913,1.7972,1.8181,1.8362,1.8366,1.8343,1.8327,1.8313,1.8361,1.8445,1.8538,1.8418,1.8547,1.8827,1.8893,1.884,1.8901,1.9033,1.9111,1.8926,1.87,1.8679,1.8951,1.9013,1.9081,1.9156,1.9202,1.9216,1.9125,1.9194,1.9394,1.9516,1.9529,1.9569,1.96,1.962,1.9676,1.9676,1.9676,1.9655,1.9635,1.96,1.9543,1.9475,1.9557,1.9649,1.9661,1.9574,1.9572,1.9621,1.9661,1.9681,1.9715,1.9763,1.974,1.9717,1.9715,1.9711,0.0,0.0,0.0,0.0,0.0,0.0,0.0,0.0,0.0,0.3429,0.6181,0.2671,0.3487,0.828,0.9983,1.231,1.5005,1.5947,1.6713,1.8034,1.8262,1.8565,1.8621,1.847,1.8327,1.8306,1.8505,1.859,1.8618,1.8603,1.8682,1.8653,1.844,1.8247,1.8152,1.8205,1.8138,1.7969,1.801,1.8001,1.7911,1.7924,1.7944,1.7975,1.8129,1.8206,1.8219,1.8226,1.8219,1.8165,1.8023,1.7942,1.7942,1.7922,1.7914,1.7925,1.7938,1.7943,1.8014,1.8394,1.8697,1.8681,1.8577,1.8463,1.8476,1.8613,1.8689,1.8731,1.8711,1.8885,1.9344,1.9479,1.9274,1.9084,1.9291,1.9562,1.945,1.9202,1.9067,1.9121,1.9163,1.9176,1.921,1.9345,1.9334,1.9258,1.9377,1.9585,1.9649,1.9671,1.9717,1.9777,1.9775,1.9803,1.9803,1.9803,1.9818,1.9773,1.9744,1.9776,1.9716,1.9683,1.9767,1.9761,1.9697,1.9723,1.9785,1.9757,1.9755,1.981,1.9857,1.983,1.981,1.9774,1.9822,0.0,0.0,0.0,0.0,0.0,0.0,0.0,0.0,0.3825,0.7225,0.9609,0.6484,0.7383,1.0686,1.1136,1.3087,1.6333,1.7337,1.7992,1.872,1.885,1.889,1.8961,1.8874,1.8744,1.8596,1.8704,1.8797,1.8803,1.8807,1.878,1.88,1.8616,1.8478,1.8321,1.8354,1.828,1.8159,1.8159,1.8108,1.7939,1.8031,1.8191,1.8308,1.8449,1.8484,1.8301,1.8307,1.8307,1.8273,1.8172,1.8084,1.8056,1.7958,1.7922,1.7926,1.8206,1.8309,1.8467,1.8712,1.8988,1.9,1.8885,1.8838,1.8836,1.8946,1.8973,1.895,1.893,1.9053,1.9626,1.9707,1.9489,1.9434,1.9617,1.9819,1.9683,1.9402,1.9229,1.9263,1.9297,1.9359,1.9434,1.9522,1.9548,1.9516,1.9491,1.9685,1.9898,1.9918,1.9918,1.9943,1.9918,1.9909,1.9909,1.9924,1.9937,1.9883,1.9805,1.9874,1.9908,1.9882,1.9877,1.9844,1.9818,1.9879,1.9912,1.9877,1.987,1.9951,1.9989,1.9953,1.995,1.9971,2.0064,0.0,0.0,0.0,0.0,0.0,0.0,0.0,0.0,0.8118,1.0433,1.1155,1.0975,1.0233,1.106,1.2419,1.5313,1.8046,1.9033,1.9048,1.9085,1.9122,1.9128,1.9156,1.9149,1.9069,1.8892,1.8897,1.8878,1.8833,1.8884,1.8994,1.89,1.8876,1.8763,1.8619,1.8605,1.8551,1.8423,1.8401,1.8271,1.8038,1.8159,1.8324,1.8665,1.8729,1.865,1.8472,1.8423,1.8416,1.8402,1.8416,1.8423,1.8366,1.8136,1.7966,1.7994,1.8432,1.8662,1.8742,1.8995,1.919,1.9254,1.9204,1.9211,1.9217,1.921,1.9244,1.9225,1.9198,1.9196,1.9649,1.9719,1.9749,1.9807,2.0002,1.9979,1.9824,1.9541,1.9474,1.9419,1.9467,1.953,1.9653,1.9762,1.9769,1.978,1.9748,1.9794,2.0009,2.0138,2.0131,2.0059,2.0013,2.0004,1.9998,2.0025,2.0045,2.0033,1.9923,1.9977,2.0078,2.0132,2.0108,1.9981,1.9966,2.0006,2.0032,2.0012,2.0038,2.0113,2.0137,2.0125,2.014,2.0171,2.0288,0.0,0.0,0.0,0.0,0.0,0.0,0.3755,0.8977,1.046,1.1181,1.1219,1.1201,1.1103,1.211,1.5912,1.8352,1.9306,1.9379,1.9244,1.9237,1.9244,1.9244,1.9263,1.9338,1.9276,1.9183,1.9146,1.9061,1.9032,1.9259,1.9307,1.9171,1.9114,1.9027,1.8959,1.9,1.8911,1.8735,1.871,1.8561,1.8353,1.8192,1.8327,1.8774,1.8853,1.8795,1.8745,1.8716,1.877,1.8864,1.8892,1.8924,1.8876,1.8528,1.8307,1.8324,1.8561,1.8814,1.8921,1.9078,1.9335,1.9465,1.9408,1.9305,1.9343,1.9398,1.9488,1.9568,1.9578,1.9593,1.9685,1.9737,1.9956,2.0154,2.0206,2.0175,2.0227,2.0067,1.9815,1.9692,1.9686,1.9688,1.9797,1.9904,1.9944,1.9941,1.9925,1.9973,2.0134,2.0257,2.0301,2.0208,2.0094,2.0086,2.0094,2.012,2.0139,2.0181,2.0125,2.0089,2.0207,2.0345,2.0342,2.0191,2.0107,2.0106,2.0127,2.016,2.0228,2.033,2.0321,2.0319,2.0353,2.0396,2.0462,0.0,0.0,0.0,0.0,0.0,0.4532,0.7968,1.0946,1.1375,1.1891,1.2152,1.1726,1.206,1.4036,1.731,1.941,1.958,1.9563,1.9464,1.9448,1.9463,1.9463,1.9449,1.953,1.9513,1.9476,1.9459,1.9397,1.9293,1.9524,1.9605,1.9455,1.9295,1.9162,1.9122,1.9149,1.9136,1.9019,1.8987,1.8917,1.8748,1.8492,1.8633,1.8876,1.9015,1.9007,1.9007,1.9001,1.9027,1.9081,1.9094,1.9128,1.9087,1.8963,1.8708,1.863,1.8726,1.8976,1.9196,1.9408,1.9549,1.9637,1.9613,1.963,1.9665,1.9731,1.98,1.9867,1.9876,1.9932,2.0101,1.9893,2.0001,2.0347,2.0376,2.0374,2.0422,2.0303,2.0131,1.9951,1.9958,1.9937,1.9885,1.9986,2.0079,2.0101,2.0094,2.0169,2.0283,2.0389,2.0487,2.0439,2.0357,2.0412,2.0413,2.0398,2.0376,2.0384,2.0309,2.0273,2.0337,2.0484,2.0476,2.0365,2.03,2.0288,2.0348,2.0438,2.0493,2.0547,2.0606,2.0642,2.0613,2.0631,2.0679,0.0,0.0,0.0,0.0906,0.3293,0.8953,1.1518,1.149,1.1932,1.2774,1.3646,1.2768,1.3349,1.5699,1.8058,1.9714,1.972,1.9714,1.9723,1.9707,1.9723,1.9736,1.9736,1.9717,1.9689,1.9653,1.9661,1.9717,1.9643,1.9681,1.9707,1.9621,1.9398,1.9291,1.9319,1.9354,1.9299,1.9291,1.9291,1.9291,1.9242,1.911,1.9067,1.9277,1.9292,1.9271,1.9184,1.9162,1.9196,1.9223,1.9236,1.9249,1.9299,1.9296,1.9197,1.9027,1.8979,1.9264,1.9518,1.968,1.9699,1.9813,1.993,1.9957,1.9981,2.0002,2.0131,2.0164,2.0154,2.0191,2.0326,2.0129,2.0134,2.0352,2.0503,2.0522,2.0581,2.0515,2.038,2.0275,2.024,2.0193,2.0141,2.0106,2.0198,2.0294,2.0288,2.0317,2.0431,2.0601,2.0681,2.0679,2.0682,2.0771,2.0785,2.0766,2.0745,2.071,2.0556,2.0427,2.0515,2.0626,2.0596,2.0583,2.0578,2.0579,2.0647,2.0687,2.0729,2.0805,2.0911,2.0927,2.0822,2.0796,2.0833,0.0,0.0,0.0,0.3968,0.9651,1.1318,1.1803,1.1926,1.3227,1.3764,1.3867,1.4513,1.5022,1.6336,1.8515,1.9647,1.9754,1.9806,1.9859,1.9843,1.9844,1.9838,1.9845,1.975,1.9717,1.9717,1.9717,1.9717,1.9719,1.971,1.9718,1.9679,1.9658,1.9628,1.9572,1.9566,1.964,1.9634,1.9628,1.9619,1.9599,1.9549,1.9577,1.9591,1.9593,1.9504,1.9294,1.9264,1.9291,1.9406,1.9391,1.9459,1.9589,1.9648,1.965,1.9612,1.9604,1.9632,1.9702,1.9786,1.9879,2.0008,2.0067,2.0032,2.0109,2.0205,2.0311,2.0437,2.0431,2.0432,2.048,2.0434,2.0446,2.049,2.0582,2.072,2.0814,2.0738,2.0602,2.0592,2.0572,2.0477,2.0404,2.0354,2.0325,2.0414,2.0482,2.0504,2.0557,2.0699,2.0881,2.0878,2.0877,2.0967,2.1028,2.1029,2.0995,2.0982,2.0807,2.0621,2.0707,2.0815,2.0868,2.0864,2.0858,2.0824,2.0838,2.0887,2.0954,2.1007,2.106,2.104,2.0978,2.0971,2.0997,0.6684,0.6672,0.6679,0.7261,0.8808,1.18,1.3225,1.3299,1.375,1.429,1.4717,1.5292,1.638,1.7857,1.9483,1.991,1.9915,1.9909,1.9891,1.987,1.9837,1.9804,1.977,1.9736,1.9717,1.9717,1.9717,1.9717,1.9717,1.9717,1.9717,1.9717,1.9717,1.9696,1.973,1.9717,1.9703,1.9703,1.9704,1.9714,1.9712,1.9714,1.9717,1.9723,1.9723,1.9626,1.9528,1.9483,1.9543,1.9666,1.9685,1.9745,1.9821,1.9802,1.975,1.9943,2.0086,2.0007,1.9801,1.9993,2.016,2.0267,2.0296,2.0315,2.0344,2.0379,2.0432,2.0486,2.0501,2.0518,2.0535,2.0509,2.0505,2.0562,2.0764,2.087,2.0992,2.0934,2.0857,2.0884,2.0876,2.0774,2.07,2.0706,2.0605,2.0502,2.0536,2.0515,2.0586,2.0696,2.0901,2.1085,2.1087,2.1108,2.1161,2.1188,2.1128,2.1094,2.1015,2.0883,2.0925,2.1003,2.1072,2.1116,2.1106,2.1078,2.1038,2.1055,2.1101,2.114,2.1174,2.1167,2.1152,2.1205,2.1234,1.181,1.1813,1.1816,1.0293,0.8421,1.2663,1.4273,1.4139,1.431,1.4814,1.5657,1.6437,1.7952,1.9333,1.9886,2.0078,2.0074,1.9985,1.9926,1.987,1.981,1.9777,1.9763,1.9751,1.9717,1.9717,1.9717,1.9714,1.9726,1.9764,1.9803,1.9724,1.9757,1.9771,1.977,1.981,1.9844,1.9829,1.9746,1.9717,1.9718,1.9711,1.9757,1.9788,1.9796,1.9796,1.9789,1.9796,1.9864,1.9911,1.9923,1.9963,2.002,1.9925,1.9904,2.0088,2.0277,2.0286,2.014,2.0232,2.0467,2.0521,2.057,2.057,2.0574,2.0582,2.0535,2.052,2.0507,2.0577,2.0699,2.0764,2.0802,2.0936,2.109,2.1129,2.1147,2.1078,2.1053,2.1052,2.1059,2.1072,2.1032,2.1066,2.0934,2.0689,2.0596,2.0569,2.0656,2.0797,2.0967,2.1188,2.1182,2.1194,2.1268,2.1295,2.1254,2.1213,2.1135,2.1114,2.1143,2.1206,2.1281,2.1311,2.1294,2.1265,2.1208,2.122,2.1247,2.1268,2.1286,2.1332,2.1366,2.14,2.1393,1.1807,1.181,1.1809,1.2448,1.3436,1.4159,1.4177,1.4157,1.5082,1.5558,1.614,1.7943,1.8926,1.9756,2.0013,2.0142,2.0103,2.0086,1.9992,1.9924,1.9892,1.9844,1.9818,1.9764,1.973,1.9715,1.9711,1.9717,1.9781,1.9991,1.9901,1.9751,1.9866,1.9893,1.9919,1.9965,2.0012,1.9972,1.9857,1.9763,1.9755,1.9777,1.9861,2.0037,2.0081,2.0072,2.0057,2.0031,2.0036,2.0078,2.0085,2.0096,2.0133,2.009,2.0121,2.0204,2.0369,2.0401,2.0395,2.0391,2.0476,2.0561,2.0659,2.0779,2.0766,2.0893,2.0818,2.0597,2.0609,2.0813,2.1092,2.133,2.1188,2.1199,2.1267,2.1271,2.1274,2.1226,2.1201,2.1207,2.1213,2.122,2.1219,2.1225,2.1201,2.0972,2.0845,2.0818,2.089,2.1003,2.1118,2.1247,2.1235,2.1268,2.1353,2.1353,2.1327,2.132,2.1273,2.1286,2.1327,2.1393,2.1395,2.1382,2.1348,2.1362,2.1365,2.1332,2.1334,2.1366,2.14,2.14,2.14,2.14,2.14,1.1815,1.181,1.1808,1.2176,1.2873,1.3689,1.4392,1.5016,1.5628,1.6212,1.6708,1.7159,1.8359,1.9741,2.0253,2.0253,2.013,2.0111,2.0012,1.9897,1.9823,1.9791,1.977,1.9824,1.9824,1.9799,1.976,1.9712,1.9756,2.011,2.0266,2.0208,2.0081,2.0027,2.0059,2.0093,2.0105,2.0104,2.0035,1.9982,1.9982,2.0122,2.0237,2.0315,2.0346,2.0245,2.0123,2.0114,2.0145,2.019,2.0211,2.025,2.0296,2.0307,2.0317,2.0321,2.0449,2.0508,2.0543,2.0551,2.0579,2.0787,2.0875,2.0912,2.0929,2.0996,2.0968,2.0852,2.0813,2.1031,2.1275,2.1382,2.1354,2.1384,2.1391,2.1396,2.1371,2.1316,2.1308,2.1293,2.132,2.1347,2.1346,2.1344,2.1318,2.1252,2.1153,2.1072,2.1128,2.1171,2.1252,2.1305,2.1293,2.13,2.138,2.14,2.14,2.14,2.14,2.14,2.14,2.1393,2.1394,2.1393,2.14,2.1386,2.1378,2.1393,2.14,2.14,2.14,2.14,2.14,2.14,2.14,1.1807,1.181,1.1806,1.204,1.2512,1.3433,1.4571,1.5674,1.5954,1.6614,1.7511,1.7186,1.8144,1.9965,2.0471,2.0346,2.017,2.01,2.002,1.9918,1.9831,1.9797,1.9844,1.9904,1.995,1.9931,1.9891,1.985,1.9879,2.029,2.0418,2.0399,2.0328,2.0227,2.0164,2.0206,2.0212,2.0226,2.025,2.0265,2.0256,2.0373,2.0474,2.048,2.048,2.0409,2.0284,2.0266,2.0301,2.0339,2.0372,2.0397,2.0463,2.0508,2.0511,2.0511,2.0527,2.0575,2.0699,2.0706,2.0801,2.1061,2.1046,2.1064,2.1068,2.1102,2.1144,2.1137,2.1131,2.1196,2.1394,2.1386,2.1394,2.1394,2.1394,2.1392,2.1391,2.1359,2.1366,2.1373,2.1393,2.1393,2.1393,2.1378,2.1377,2.1354,2.1295,2.1238,2.128,2.1303,2.1315,2.1354,2.1366,2.138,2.14,2.14,2.14,2.14,2.14,2.14,2.14,2.14,2.14,2.14,2.14,2.14,2.14,2.14,2.14,2.14,2.14,2.14,2.14,2.14,2.14,1.1723,1.1814,1.1861,1.2652,1.3605,1.3839,1.4736,1.6143,1.6422,1.7129,1.8342,1.9165,1.9712,2.0231,2.0426,2.0372,2.0211,2.0141,2.0052,1.996,1.9918,1.9964,2.0024,2.0071,2.0091,2.0106,2.0097,2.0092,2.0103,2.0362,2.0485,2.0506,2.0444,2.0384,2.031,2.0426,2.0487,2.0486,2.0503,2.0496,2.0465,2.0487,2.0501,2.0586,2.0596,2.0548,2.0531,2.0501,2.0536,2.0548,2.054,2.056,2.059,2.0531,2.0524,2.056,2.0582,2.0825,2.1243,2.1099,2.1139,2.1273,2.1227,2.1212,2.1222,2.1288,2.1349,2.1293,2.1329,2.135,2.1395,2.1393,2.1393,2.14,2.14,2.14,2.14,2.14,2.14,2.14,2.14,2.14,2.1392,2.1398,2.1412,2.1408,2.14,2.141,2.1451,2.1441,2.1453,2.1432,2.1442,2.14,2.14,2.14,2.14,2.14,2.14,2.14,2.14,2.14,2.14,2.14,2.14,2.14,2.14,2.14,2.14,2.14,2.14,2.14,2.14,2.14,2.14,1.0329,0.8498,1.285,1.4423,1.4051,1.3969,1.5246,1.7328,1.8414,1.9186,1.9666,2.0245,2.0362,2.0405,2.0422,2.0447,2.0368,2.0248,2.0165,2.0045,2.0024,2.0044,2.0111,2.019,2.0216,2.0258,2.0298,2.0336,2.0362,2.0474,2.0494,2.0509,2.0536,2.0479,2.0452,2.0508,2.0549,2.0683,2.0695,2.0655,2.0534,2.0521,2.0591,2.079,2.0833,2.0825,2.0811,2.0788,2.078,2.0786,2.078,2.0795,2.0753,2.0672,2.0613,2.08,2.0948,2.1166,2.1365,2.1302,2.1295,2.1346,2.1357,2.1323,2.1341,2.1368,2.1393,2.14,2.14,2.14,2.1393,2.14,2.1392,2.14,2.14,2.14,2.14,2.14,2.14,2.14,2.14,2.1407,2.1405,2.1523,2.155,2.1554,2.1553,2.1663,2.1731,2.1648,2.1606,2.1557,2.152,2.1442,2.14,2.14,2.14,2.14,2.14,2.14,2.14,2.14,2.14,2.14,2.14,2.14,2.14,2.14,2.14,2.14,2.14,2.14,2.14,2.14,2.14,0.8499,1.0152,1.442,1.6073,1.5517,1.5025,1.6155,1.8256,1.9718,2.0418,2.047,2.0485,2.0501,2.0501,2.0502,2.0504,2.0484,2.036,2.0277,2.0164,2.0156,2.0204,2.0257,2.0311,2.0351,2.0391,2.044,2.0493,2.0478,2.0493,2.0557,2.0613,2.0613,2.0659,2.0651,2.0679,2.0702,2.0827,2.0851,2.0827,2.071,2.0663,2.073,2.1011,2.1127,2.1099,2.1049,2.1024,2.0999,2.1006,2.1006,2.0999,2.091,2.0854,2.0778,2.1011,2.1235,2.1374,2.1392,2.1396,2.137,2.1385,2.1392,2.1393,2.14,2.1393,2.1393,2.14,2.14,2.14,2.14,2.1392,2.1416,2.1416,2.1438,2.1429,2.142,2.1427,2.1429,2.1422,2.1422,2.1427,2.149,2.162,2.1731,2.1725,2.172,2.1856,2.1969,2.1854,2.175,2.1689,2.1611,2.1542,2.1449,2.14,2.14,2.14,2.1405,2.1424,2.14,2.14,2.14,2.14,2.1407,2.1422,2.14,2.14,2.1415,2.1407,2.14,2.14,2.14,2.14,2.14,0.6651,1.5554,1.6504,1.7343,1.799,1.6984,1.7374,1.8676,1.9953,2.0501,2.0508,2.0521,2.0536,2.0514,2.0514,2.0525,2.0494,2.0371,2.0326,2.0303,2.0296,2.0364,2.0425,2.0474,2.0459,2.0487,2.0506,2.0512,2.0513,2.0602,2.0687,2.0766,2.0777,2.0851,2.0877,2.0892,2.0899,2.0973,2.1015,2.1009,2.0949,2.0782,2.0958,2.1203,2.1313,2.1244,2.1169,2.1097,2.106,2.1053,2.1056,2.1034,2.1019,2.1029,2.1018,2.1087,2.1294,2.1358,2.1393,2.1393,2.1393,2.1392,2.1388,2.14,2.14,2.14,2.14,2.14,2.14,2.14,2.14,2.1419,2.144,2.1469,2.1499,2.1488,2.1481,2.1469,2.1471,2.1472,2.1472,2.1515,2.164,2.1763,2.1879,2.187,2.1904,2.2047,2.2112,2.1979,2.1886,2.1813,2.173,2.1641,2.157,2.154,2.153,2.1579,2.1488,2.1472,2.1443,2.1461,2.1555,2.1569,2.1478,2.1457,2.1493,2.1471,2.1444,2.1429,2.1407,2.14,2.14,2.14,2.14,1.1568,1.6502,1.8507,1.902,1.8587,1.9053,1.9563,1.9999,2.0396,2.0508,2.0506,2.0639,2.0634,2.0513,2.0655,2.0624,2.0534,2.0477,2.0469,2.044,2.0418,2.0459,2.0486,2.0508,2.0508,2.0514,2.0505,2.0519,2.0581,2.0688,2.0866,2.0949,2.0953,2.1026,2.1072,2.1101,2.1121,2.1135,2.1163,2.1189,2.1233,2.1116,2.1259,2.1345,2.1393,2.1331,2.1288,2.1262,2.1246,2.1259,2.1274,2.1273,2.1293,2.1295,2.1291,2.1283,2.1371,2.1393,2.14,2.14,2.14,2.14,2.14,2.14,2.14,2.14,2.14,2.14,2.1395,2.1392,2.1393,2.1413,2.1524,2.1632,2.1706,2.18,2.1775,2.1699,2.1694,2.1609,2.1603,2.1665,2.1792,2.1925,2.2026,2.2009,2.2067,2.2208,2.2243,2.2118,2.2013,2.1933,2.1872,2.1791,2.1799,2.1769,2.1767,2.175,2.1661,2.1575,2.153,2.1587,2.1731,2.1753,2.168,2.1638,2.1626,2.1604,2.1582,2.1456,2.1414,2.1407,2.14,2.139,2.1398,1.4267,1.8082,1.98,2.0024,1.9516,2.0158,2.0508,2.0508,2.0508,2.0508,2.0536,2.071,2.0752,2.073,2.0762,2.0698,2.0515,2.0502,2.0502,2.0494,2.0508,2.0501,2.0508,2.0514,2.0508,2.0505,2.0504,2.0506,2.0643,2.0935,2.1145,2.1089,2.1113,2.1193,2.1268,2.1352,2.1394,2.1365,2.1338,2.1337,2.1355,2.1392,2.1393,2.1395,2.1388,2.1395,2.1392,2.1392,2.14,2.14,2.14,2.1393,2.1393,2.1393,2.1393,2.1378,2.1385,2.14,2.14,2.14,2.14,2.14,2.14,2.14,2.14,2.14,2.14,2.1392,2.1396,2.1393,2.1394,2.1424,2.1634,2.1844,2.2011,2.2177,2.2106,2.2011,2.1909,2.1803,2.1809,2.1859,2.1959,2.2082,2.2167,2.2161,2.2166,2.2243,2.2293,2.2226,2.2132,2.2054,2.2006,2.1952,2.196,2.1948,2.1904,2.1869,2.1811,2.1728,2.1673,2.1706,2.1832,2.1874,2.1889,2.184,2.1784,2.177,2.1735,2.1623,2.1527,2.1524,2.1482,2.1388,2.1391,1.5186,2.0392,2.051,2.0464,2.0484,2.05,2.0508,2.0514,2.0536,2.0519,2.0576,2.073,2.0879,2.0895,2.0873,2.0705,2.0558,2.0511,2.0508,2.0508,2.0508,2.0508,2.0506,2.0512,2.0545,2.0532,2.0535,2.0584,2.0761,2.1063,2.129,2.1243,2.1307,2.1386,2.1484,2.1565,2.1614,2.1641,2.1547,2.1484,2.1407,2.1392,2.1397,2.1399,2.1394,2.139,2.1395,2.1397,2.14,2.14,2.14,2.14,2.14,2.14,2.14,2.14,2.14,2.14,2.14,2.14,2.14,2.14,2.1422,2.1457,2.1478,2.1414,2.1392,2.1393,2.1395,2.1578,2.1634,2.1691,2.1857,2.2001,2.2144,2.2332,2.2393,2.2228,2.2006,2.1937,2.1959,2.1999,2.2023,2.2142,2.2236,2.2258,2.2271,2.2302,2.2302,2.2289,2.2236,2.2159,2.2132,2.2099,2.2059,2.2047,2.1999,2.1957,2.195,2.196,2.1943,2.1936,2.193,2.1993,2.2054,2.1979,2.1925,2.1918,2.1899,2.1831,2.1754,2.17,2.1614,2.1528,2.1422,1.5202,2.0435,2.0508,2.0506,2.0508,2.0508,2.0508,2.0521,2.0675,2.0709,2.0767,2.0881,2.0951,2.0967,2.0963,2.0797,2.0549,2.0508,2.0506,2.0521,2.0528,2.057,2.0563,2.0666,2.0645,2.0546,2.0561,2.0766,2.1071,2.1319,2.1468,2.1539,2.1527,2.1525,2.1711,2.177,2.1772,2.1847,2.1775,2.1631,2.1516,2.143,2.1393,2.1405,2.1416,2.1427,2.143,2.1413,2.1404,2.14,2.14,2.14,2.14,2.14,2.14,2.14,2.14,2.14,2.14,2.1408,2.1423,2.1472,2.1521,2.1591,2.1584,2.1462,2.1398,2.1402,2.1496,2.1713,2.1896,2.1967,2.2037,2.2156,2.228,2.2467,2.2661,2.2409,2.2133,2.2118,2.2127,2.2138,2.2164,2.2209,2.2268,2.2302,2.2302,2.2309,2.2307,2.23,2.2295,2.2243,2.2263,2.2231,2.2184,2.2159,2.2118,2.2145,2.2157,2.2177,2.2199,2.2159,2.2118,2.2184,2.2216,2.213,2.2071,2.2042,2.2016,2.1986,2.1965,2.1899,2.1876,2.1803,2.1609,1.6252,2.0318,2.0509,2.0508,2.0508,2.0508,2.0508,2.0528,2.0618,2.075,2.0885,2.099,2.1021,2.1014,2.1033,2.0838,2.0554,2.0511,2.0574,2.0604,2.0625,2.0701,2.0764,2.0832,2.0834,2.0759,2.0889,2.1122,2.1362,2.1405,2.1479,2.166,2.1631,2.1698,2.1898,2.187,2.1898,2.1994,2.1954,2.1855,2.1708,2.1683,2.1523,2.1496,2.1602,2.1605,2.1471,2.1462,2.1474,2.1429,2.14,2.14,2.14,2.14,2.14,2.14,2.14,2.14,2.14,2.1423,2.1484,2.1592,2.1613,2.1682,2.1769,2.1659,2.1526,2.1538,2.1647,2.1855,2.2071,2.218,2.2196,2.2265,2.2463,2.2671,2.2757,2.2672,2.2522,2.2488,2.2483,2.244,2.2466,2.2493,2.2514,2.2339,2.2343,2.2345,2.234,2.2343,2.2329,2.2309,2.2309,2.2309,2.2263,2.2257,2.2257,2.2297,2.2309,2.2291,2.225,2.2284,2.2302,2.2295,2.2282,2.2263,2.2209,2.2169,2.216,2.2142,2.2123,2.2087,2.2067,2.2052,2.1933,1.7886,2.035,2.0506,2.0508,2.0508,2.0508,2.0508,2.0514,2.0549,2.0712,2.0973,2.106,2.1068,2.1089,2.1033,2.0778,2.06,2.0525,2.0608,2.0738,2.0782,2.0819,2.0906,2.1007,2.1017,2.1094,2.1212,2.1275,2.1386,2.1474,2.1609,2.1738,2.1825,2.1911,2.1972,2.2016,2.2082,2.2089,2.2082,2.2101,2.2081,2.2065,2.1797,2.1791,2.1931,2.1973,2.1708,2.156,2.1574,2.1506,2.1442,2.1471,2.1446,2.1436,2.1396,2.1396,2.1397,2.1398,2.1415,2.149,2.1648,2.1765,2.1753,2.1799,2.1891,2.187,2.1737,2.1758,2.1867,2.1966,2.2184,2.2307,2.2304,2.2407,2.2627,2.2827,2.2863,2.2874,2.2831,2.2791,2.2757,2.2716,2.2714,2.2748,2.2654,2.2477,2.241,2.2404,2.2403,2.2407,2.2403,2.2353,2.2309,2.2309,2.2309,2.2309,2.2309,2.2309,2.2309,2.2309,2.2309,2.2309,2.2309,2.2309,2.2295,2.2289,2.2289,2.2262,2.2275,2.226,2.2235,2.2204,2.2213,2.2205,2.2249,1.9545,2.0503,2.051,2.0508,2.0508,2.0508,2.0508,2.0535,2.0659,2.0854,2.0976,2.1075,2.1154,2.1292,2.1081,2.084,2.0619,2.0561,2.0644,2.0782,2.0855,2.0906,2.1006,2.1133,2.1219,2.1289,2.135,2.1376,2.1465,2.1653,2.1794,2.1865,2.1867,2.1998,2.2191,2.2202,2.2148,2.2182,2.2223,2.2235,2.2175,2.213,2.2074,2.2103,2.2214,2.2069,2.188,2.1735,2.1597,2.1515,2.1548,2.1619,2.1599,2.1533,2.1459,2.1389,2.1392,2.1393,2.1438,2.1624,2.1813,2.1908,2.1921,2.1999,2.2077,2.2126,2.2056,2.2054,2.2117,2.2071,2.2212,2.2284,2.2326,2.2542,2.2769,2.2886,2.2958,2.2914,2.2865,2.2852,2.2845,2.2809,2.2787,2.2807,2.2814,2.2689,2.2667,2.2646,2.2521,2.2502,2.2481,2.243,2.2372,2.2309,2.2309,2.2309,2.2309,2.2309,2.2309,2.2309,2.2309,2.2309,2.2309,2.2309,2.2309,2.2302,2.2309,2.2309,2.2302,2.2289,2.2295,2.2297,2.2311,2.2307,2.2309]}]]